[[{"header":{"parameterUnit":"m.s-1","parameterCategory":1,"la1":30.6,"la2":29.2853,"lo1":-89.7004,"lo2":-87.6739,"dy":0.0162,"dx":0.0183,"nx":112,"ny":82,"refTime":"2023-06-01T06:00:00:Z","depth":0,"parameterNumber":2,"parameterNumberName":"U-component_of_WINDS"},"data":[0.0,0.0,0.0,0.0,0.0,0.0,0.0,0.0,0.0,0.0,0.0,0.0,0.0,0.0,0.0,0.0,0.0,0.0,0.0,0.0,0.0,0.0,0.0,0.0,0.0,0.0,0.0,0.0,0.0,0.0,0.0,0.0,0.0,0.0,0.0,0.0,0.0,0.0,0.0,0.0,0.0,0.0,0.0,0.0,0.0,0.0,0.0,0.0,0.0,0.0,0.0,0.0,0.0,0.0,0.0,0.0,0.0,0.0,0.0,0.0,0.0,0.0,0.0,0.0,0.0,0.0,0.0,0.0,0.0,0.0,0.0,0.0,0.0,0.0,0.0,0.0,0.0,0.0,0.0,0.0,0.0,0.0,0.0,0.0,0.0,0.0,0.0,0.0,0.0,0.0,-3.8073,-3.9168,-4.0025,-4.0647,-4.0966,-3.9531,-3.7849,-3.5972,0.0,0.0,0.0,0.0,0.0,0.0,0.0,0.0,0.0,0.0,0.0,0.0,0.0,0.0,0.0,0.0,0.0,0.0,0.0,0.0,0.0,0.0,0.0,0.0,0.0,0.0,0.0,0.0,0.0,0.0,0.0,0.0,0.0,0.0,0.0,0.0,0.0,0.0,0.0,0.0,0.0,0.0,0.0,0.0,0.0,0.0,0.0,0.0,0.0,0.0,0.0,0.0,0.0,0.0,0.0,0.0,0.0,0.0,0.0,0.0,0.0,0.0,0.0,0.0,0.0,0.0,0.0,0.0,0.0,0.0,0.0,0.0,0.0,0.0,0.0,0.0,0.0,0.0,0.0,0.0,0.0,0.0,0.0,0.0,0.0,0.0,0.0,0.0,0.0,0.0,0.0,0.0,0.0,0.0,0.0,0.0,0.0,0.0,0.0,0.0,0.0,0.0,0.0,0.0,-3.9324,-4.0923,-4.075,-4.0419,-4.0142,-3.8591,-3.7086,-3.5737,0.0,0.0,0.0,0.0,0.0,0.0,0.0,0.0,0.0,0.0,0.0,0.0,0.0,0.0,0.0,0.0,0.0,0.0,0.0,0.0,0.0,0.0,0.0,0.0,0.0,0.0,0.0,0.0,0.0,0.0,0.0,0.0,0.0,0.0,0.0,0.0,0.0,0.0,0.0,0.0,0.0,0.0,0.0,0.0,0.0,0.0,0.0,0.0,0.0,0.0,0.0,0.0,0.0,0.0,0.0,0.0,0.0,0.0,0.0,0.0,0.0,0.0,0.0,0.0,0.0,0.0,0.0,0.0,0.0,0.0,0.0,0.0,0.0,0.0,0.0,0.0,0.0,0.0,0.0,0.0,0.0,0.0,0.0,0.0,0.0,0.0,0.0,0.0,0.0,0.0,0.0,0.0,0.0,0.0,0.0,0.0,0.0,0.0,0.0,0.0,0.0,0.0,0.0,-3.9239,-4.0631,-4.1983,-4.1461,-4.0864,-4.0481,-3.9033,-3.7497,-3.5747,-3.5224,0.0,0.0,0.0,0.0,0.0,0.0,0.0,0.0,0.0,0.0,0.0,0.0,0.0,0.0,0.0,0.0,0.0,0.0,0.0,0.0,0.0,0.0,0.0,0.0,0.0,0.0,0.0,0.0,0.0,0.0,0.0,0.0,0.0,0.0,0.0,0.0,0.0,0.0,0.0,0.0,0.0,0.0,0.0,0.0,0.0,0.0,0.0,0.0,0.0,0.0,0.0,0.0,0.0,0.0,0.0,0.0,0.0,0.0,0.0,0.0,0.0,0.0,0.0,0.0,0.0,0.0,0.0,0.0,0.0,0.0,0.0,0.0,0.0,0.0,0.0,0.0,0.0,0.0,0.0,0.0,0.0,0.0,0.0,0.0,0.0,0.0,0.0,0.0,0.0,0.0,0.0,0.0,0.0,0.0,0.0,0.0,0.0,0.0,0.0,0.0,0.0,0.0,-4.0876,-4.151,-4.243,-4.1858,-4.1213,-4.0644,-3.9476,-3.7849,-3.5747,-3.5614,0.0,0.0,0.0,0.0,0.0,0.0,0.0,0.0,0.0,0.0,0.0,0.0,0.0,0.0,0.0,0.0,0.0,0.0,0.0,0.0,0.0,0.0,0.0,0.0,0.0,0.0,0.0,0.0,0.0,0.0,0.0,0.0,0.0,0.0,0.0,0.0,0.0,0.0,0.0,0.0,0.0,0.0,0.0,0.0,0.0,0.0,0.0,0.0,0.0,0.0,0.0,0.0,0.0,0.0,0.0,0.0,0.0,0.0,0.0,0.0,0.0,0.0,0.0,0.0,0.0,0.0,0.0,0.0,0.0,0.0,0.0,0.0,0.0,0.0,0.0,0.0,0.0,0.0,0.0,0.0,0.0,0.0,0.0,0.0,0.0,0.0,0.0,0.0,0.0,0.0,0.0,0.0,0.0,0.0,0.0,0.0,0.0,0.0,0.0,0.0,0.0,0.0,-4.1188,-4.1477,-4.2239,-4.1651,-4.0816,-3.9772,-3.8988,-3.7702,-3.5747,-3.5614,0.0,0.0,0.0,0.0,0.0,0.0,0.0,0.0,0.0,0.0,0.0,0.0,0.0,0.0,0.0,0.0,0.0,0.0,0.0,0.0,0.0,0.0,0.0,0.0,0.0,0.0,0.0,0.0,0.0,0.0,0.0,0.0,0.0,0.0,0.0,0.0,0.0,0.0,0.0,0.0,0.0,0.0,0.0,0.0,0.0,0.0,0.0,0.0,0.0,0.0,0.0,0.0,0.0,0.0,0.0,0.0,0.0,0.0,0.0,0.0,0.0,0.0,0.0,0.0,0.0,0.0,0.0,0.0,0.0,0.0,0.0,0.0,0.0,0.0,0.0,0.0,0.0,0.0,0.0,0.0,0.0,0.0,0.0,0.0,0.0,0.0,0.0,0.0,0.0,0.0,0.0,0.0,0.0,0.0,0.0,0.0,0.0,0.0,0.0,0.0,0.0,0.0,-3.9679,-3.9709,-4.034,-3.995,-3.9436,-3.9018,-3.7837,-3.6707,-3.5644,0.0,0.0,0.0,0.0,0.0,0.0,0.0,0.0,0.0,0.0,0.0,0.0,0.0,0.0,0.0,0.0,0.0,0.0,0.0,0.0,0.0,0.0,0.0,0.0,0.0,0.0,0.0,0.0,0.0,0.0,0.0,0.0,0.0,0.0,0.0,0.0,0.0,0.0,0.0,0.0,0.0,0.0,0.0,0.0,0.0,0.0,0.0,0.0,0.0,0.0,0.0,0.0,0.0,0.0,0.0,0.0,0.0,0.0,0.0,0.0,0.0,0.0,0.0,0.0,0.0,0.0,0.0,0.0,0.0,0.0,0.0,0.0,0.0,0.0,0.0,0.0,0.0,0.0,0.0,0.0,0.0,0.0,0.0,0.0,0.0,0.0,0.0,0.0,0.0,0.0,0.0,0.0,0.0,0.0,0.0,0.0,0.0,0.0,0.0,0.0,0.0,0.0,-3.859,-3.8407,-3.8349,-3.8727,-3.8537,-3.8208,-3.7872,-3.6716,-3.5773,-3.5319,0.0,0.0,0.0,0.0,0.0,0.0,0.0,0.0,0.0,0.0,0.0,0.0,0.0,0.0,0.0,0.0,0.0,0.0,0.0,0.0,0.0,0.0,0.0,0.0,0.0,0.0,0.0,0.0,0.0,0.0,0.0,0.0,0.0,0.0,0.0,0.0,0.0,0.0,0.0,0.0,0.0,0.0,0.0,0.0,0.0,0.0,0.0,0.0,0.0,0.0,0.0,0.0,0.0,0.0,0.0,0.0,0.0,0.0,0.0,0.0,0.0,0.0,0.0,0.0,0.0,0.0,0.0,0.0,0.0,0.0,0.0,0.0,0.0,0.0,0.0,0.0,0.0,0.0,0.0,0.0,0.0,0.0,0.0,0.0,0.0,0.0,0.0,0.0,0.0,0.0,0.0,0.0,0.0,0.0,0.0,0.0,0.0,0.0,0.0,0.0,0.0,0.0,-3.7575,-3.7662,-3.7666,-3.7701,-3.7643,-3.7286,-3.6327,-3.5611,-3.5022,0.0,0.0,0.0,0.0,0.0,0.0,0.0,0.0,0.0,0.0,0.0,0.0,0.0,0.0,0.0,0.0,0.0,0.0,0.0,0.0,0.0,0.0,0.0,0.0,0.0,0.0,0.0,0.0,0.0,0.0,0.0,0.0,0.0,0.0,0.0,0.0,0.0,0.0,0.0,0.0,0.0,0.0,0.0,0.0,0.0,0.0,0.0,0.0,0.0,0.0,0.0,0.0,0.0,0.0,0.0,0.0,0.0,0.0,0.0,0.0,0.0,0.0,0.0,0.0,0.0,0.0,0.0,0.0,0.0,0.0,0.0,0.0,0.0,0.0,0.0,0.0,0.0,0.0,0.0,0.0,0.0,0.0,0.0,0.0,0.0,0.0,0.0,0.0,0.0,0.0,0.0,0.0,0.0,0.0,0.0,0.0,0.0,0.0,0.0,0.0,0.0,0.0,0.0,-3.6589,-3.6232,-3.5844,-3.5714,-3.5889,-3.5642,-3.4879,-3.4066,-3.3495,-3.3278,0.0,0.0,0.0,0.0,0.0,0.0,0.0,0.0,0.0,0.0,0.0,0.0,0.0,0.0,0.0,0.0,0.0,0.0,0.0,0.0,0.0,0.0,0.0,0.0,0.0,0.0,0.0,0.0,0.0,0.0,0.0,0.0,0.0,0.0,0.0,0.0,0.0,0.0,0.0,0.0,0.0,0.0,0.0,0.0,0.0,0.0,0.0,0.0,0.0,0.0,0.0,0.0,0.0,0.0,0.0,0.0,0.0,0.0,0.0,0.0,0.0,0.0,0.0,0.0,0.0,0.0,0.0,0.0,0.0,0.0,0.0,0.0,0.0,0.0,0.0,0.0,0.0,0.0,0.0,0.0,0.0,0.0,0.0,0.0,0.0,0.0,0.0,0.0,0.0,0.0,0.0,0.0,0.0,0.0,0.0,0.0,0.0,0.0,0.0,0.0,0.0,0.0,-3.5375,-3.5166,-3.475,-3.4259,-3.4303,-3.4119,-3.3407,-3.2556,-3.2144,-3.229,0.0,0.0,0.0,0.0,0.0,0.0,0.0,0.0,0.0,0.0,0.0,0.0,0.0,0.0,0.0,0.0,0.0,0.0,0.0,0.0,0.0,0.0,0.0,0.0,0.0,0.0,0.0,0.0,0.0,0.0,0.0,0.0,0.0,0.0,0.0,0.0,0.0,0.0,0.0,0.0,0.0,0.0,0.0,0.0,0.0,0.0,0.0,0.0,0.0,0.0,0.0,0.0,0.0,0.0,0.0,0.0,0.0,0.0,0.0,0.0,0.0,0.0,0.0,0.0,0.0,0.0,0.0,0.0,0.0,0.0,0.0,0.0,0.0,0.0,0.0,0.0,0.0,0.0,0.0,0.0,0.0,0.0,0.0,0.0,0.0,0.0,0.0,0.0,0.0,0.0,0.0,0.0,0.0,0.0,0.0,0.0,0.0,0.0,0.0,0.0,0.0,0.0,-3.4341,-3.4427,-3.4113,-3.3307,-3.3218,-3.2845,-3.2081,-3.1341,-3.1113,-3.1526,0.0,0.0,0.0,0.0,0.0,0.0,0.0,0.0,0.0,0.0,0.0,0.0,0.0,0.0,0.0,0.0,0.0,0.0,0.0,0.0,0.0,0.0,0.0,0.0,0.0,0.0,0.0,0.0,0.0,0.0,0.0,0.0,0.0,0.0,0.0,0.0,0.0,0.0,0.0,0.0,0.0,0.0,0.0,0.0,0.0,0.0,0.0,0.0,0.0,0.0,0.0,0.0,0.0,0.0,0.0,0.0,0.0,0.0,0.0,0.0,-4.4101,-4.4587,0.0,0.0,0.0,0.0,0.0,0.0,0.0,0.0,0.0,0.0,0.0,0.0,0.0,0.0,0.0,0.0,0.0,0.0,0.0,0.0,0.0,0.0,0.0,0.0,0.0,0.0,0.0,0.0,0.0,0.0,0.0,0.0,0.0,0.0,0.0,0.0,0.0,0.0,0.0,0.0,-3.4654,-3.4528,-3.4182,-3.3518,-3.3273,-3.2648,-3.1258,-3.0971,-3.0714,-3.02,-2.8551,0.0,0.0,0.0,0.0,0.0,0.0,0.0,0.0,0.0,0.0,0.0,0.0,0.0,0.0,0.0,0.0,0.0,0.0,0.0,0.0,0.0,0.0,0.0,0.0,0.0,0.0,0.0,0.0,0.0,0.0,0.0,0.0,0.0,0.0,0.0,0.0,0.0,0.0,0.0,0.0,0.0,0.0,0.0,0.0,0.0,0.0,0.0,0.0,0.0,0.0,0.0,0.0,0.0,0.0,0.0,0.0,0.0,0.0,0.0,-4.3186,-4.347,0.0,0.0,0.0,0.0,0.0,0.0,0.0,0.0,0.0,0.0,0.0,0.0,0.0,0.0,0.0,0.0,0.0,0.0,0.0,0.0,0.0,0.0,0.0,0.0,0.0,0.0,0.0,0.0,0.0,0.0,0.0,0.0,0.0,0.0,0.0,0.0,0.0,0.0,0.0,0.0,-3.3417,-3.3403,-3.3058,-3.2351,-3.2139,-3.1655,-3.0457,-3.0341,-3.0047,-2.9245,-2.7854,0.0,0.0,0.0,0.0,0.0,0.0,0.0,0.0,0.0,0.0,0.0,0.0,0.0,0.0,0.0,0.0,0.0,0.0,0.0,0.0,0.0,0.0,0.0,0.0,0.0,0.0,0.0,0.0,0.0,0.0,0.0,0.0,0.0,0.0,0.0,0.0,0.0,0.0,0.0,0.0,0.0,0.0,0.0,0.0,0.0,0.0,0.0,0.0,0.0,0.0,0.0,0.0,0.0,-4.1967,-4.1914,-4.1914,-4.1914,-4.1914,-4.1914,-4.1914,-4.1996,-4.2159,-4.2079,0.0,0.0,0.0,0.0,0.0,0.0,0.0,0.0,0.0,0.0,0.0,0.0,0.0,0.0,0.0,0.0,0.0,0.0,0.0,0.0,0.0,0.0,-3.1408,-3.0125,-3.0279,-3.0674,-3.0514,0.0,0.0,0.0,0.0,0.0,0.0,0.0,0.0,0.0,0.0,0.0,-3.2013,-3.2134,-3.1858,-3.102,-3.09,-3.0573,-2.9651,-2.9549,-2.9232,-2.8346,-2.7423,-2.6575,0.0,0.0,0.0,0.0,0.0,0.0,0.0,0.0,0.0,0.0,0.0,0.0,0.0,0.0,0.0,0.0,0.0,0.0,0.0,0.0,0.0,0.0,0.0,0.0,0.0,0.0,0.0,0.0,0.0,0.0,0.0,0.0,-4.1786,-4.3172,0.0,0.0,0.0,0.0,0.0,0.0,0.0,0.0,0.0,0.0,0.0,0.0,0.0,-4.1151,-4.0988,-4.0525,-4.0375,-4.0594,-4.0426,-4.0375,-4.0375,-4.0375,-4.0375,-4.0375,-4.0375,0.0,-4.1488,-4.0883,0.0,0.0,0.0,0.0,0.0,0.0,0.0,0.0,0.0,0.0,0.0,0.0,0.0,0.0,0.0,0.0,0.0,0.0,0.0,0.0,0.0,0.0,-3.0318,-3.01,-2.9998,-2.9959,-2.988,-2.9984,-3.0088,-2.9869,-3.0152,-3.0292,0.0,0.0,0.0,0.0,0.0,0.0,-3.201,-3.2236,-3.1999,-3.1029,-3.0907,-3.0316,-2.8774,-2.8635,-2.8256,-2.7353,-2.6442,-2.5903,-2.5776,-2.4932,0.0,0.0,0.0,0.0,0.0,0.0,0.0,0.0,0.0,0.0,0.0,0.0,0.0,0.0,0.0,0.0,0.0,0.0,0.0,0.0,0.0,0.0,0.0,0.0,0.0,0.0,0.0,0.0,0.0,-4.0811,-4.2319,-4.2597,-4.3093,-4.3533,0.0,0.0,0.0,0.0,0.0,0.0,0.0,0.0,0.0,-4.2016,-4.1366,-4.0901,-4.0697,-4.0436,-4.0337,-4.0305,-4.0188,-4.007,-4.007,-4.007,-4.007,-4.007,-3.9747,-3.9607,-3.9649,-3.9771,-3.9418,-3.8872,0.0,0.0,0.0,0.0,-3.5846,-3.4651,-3.372,-3.2502,-3.1365,-3.1365,0.0,0.0,0.0,0.0,0.0,0.0,0.0,-3.0533,-3.0444,-3.0292,-3.0228,-3.0152,-3.0011,-2.9934,-2.9792,-3.0164,-3.0318,-3.0011,-3.0305,-3.0457,-3.0152,-3.0228,0.0,0.0,0.0,-3.0659,-3.0803,-3.0856,-3.0773,-3.033,-2.9804,-2.9269,-2.8598,-2.8007,-2.7346,-2.6464,-2.5986,-2.5541,-2.5049,-2.4688,-2.4454,0.0,0.0,0.0,0.0,0.0,0.0,0.0,0.0,0.0,0.0,0.0,0.0,0.0,0.0,0.0,0.0,0.0,0.0,0.0,0.0,0.0,0.0,0.0,0.0,0.0,0.0,0.0,0.0,-4.1534,-4.2502,-4.2258,-4.3039,-4.3571,0.0,0.0,0.0,0.0,0.0,0.0,-4.2414,-4.1948,-4.1692,-4.1692,-4.1237,-4.0901,-4.0745,-4.0583,-4.0436,-4.0337,-4.0238,-4.0121,-4.007,-4.007,-4.007,-4.007,-3.947,-3.8865,-3.8327,-3.8689,-3.846,-3.7933,-3.7977,-3.7709,-3.7222,-3.6045,-3.4886,-3.3688,-3.2526,-3.1603,-3.0986,-3.0986,-3.0986,-3.0986,-3.0849,0.0,0.0,0.0,0.0,-3.0773,-3.0596,-3.052,-3.0457,-3.0228,-3.0152,-3.0075,-2.9869,-3.0241,-3.0546,-3.0152,-3.047,-3.0698,-3.0305,-3.0381,0.0,-3.01,-3.0176,-3.0164,-2.9935,-2.9743,-2.9549,-2.9512,-2.8635,-2.8059,-2.7826,-2.7148,-2.6389,-2.5519,-2.5509,-2.5167,-2.455,-2.454,-2.454,-2.454,0.0,0.0,0.0,0.0,0.0,0.0,0.0,0.0,0.0,0.0,0.0,0.0,0.0,0.0,0.0,0.0,0.0,0.0,0.0,0.0,0.0,0.0,0.0,0.0,0.0,0.0,0.0,0.0,0.0,-4.2822,-4.2897,0.0,0.0,0.0,0.0,-4.231,-4.2649,-4.288,-4.2844,-4.2418,-4.2157,-4.2157,-4.1569,-4.1157,-4.0871,-4.0631,-4.0485,-4.0485,-4.0337,-4.0238,-4.007,-4.007,-4.007,-4.007,-3.947,-3.8865,-3.8238,-3.7727,-3.7121,-3.66,-3.6584,-3.5985,-3.5045,-3.5001,-3.3811,-3.2187,-3.216,-3.1603,-3.0986,-3.0986,-3.0986,-3.0986,-3.0986,-3.0986,0.0,0.0,-3.0986,-3.0986,-3.0986,-3.0849,-3.0609,-3.0444,-3.0368,-3.0292,-2.9869,-3.0241,-3.0546,-3.0152,-3.0609,-3.0911,-3.0698,0.0,-3.0698,-3.0622,-3.0662,-3.0497,-3.0137,-2.9524,-2.9003,-2.8611,-2.7729,-2.6862,-2.5999,-2.5862,-2.5509,-2.4657,-2.456,-2.455,-2.454,-2.454,-2.454,-2.454,-2.4292,0.0,0.0,0.0,0.0,0.0,0.0,0.0,0.0,0.0,0.0,0.0,0.0,0.0,0.0,0.0,0.0,0.0,0.0,0.0,0.0,0.0,0.0,0.0,0.0,0.0,0.0,0.0,0.0,-4.2458,-4.2711,0.0,-4.2882,-4.2882,-4.2957,-4.305,-4.3178,-4.3304,-4.3304,-4.2864,-4.2498,-4.2198,-4.1692,-4.122,-4.0793,-4.0697,-4.0583,-4.0485,-4.0337,-4.0288,-4.0188,-3.9747,-3.9523,-3.947,-3.8479,-3.7911,-3.7679,-3.7058,-3.6662,-3.6492,-3.6492,-3.5958,-3.5139,-3.438,-3.3422,-3.239,-3.1616,-3.1185,-3.0986,-3.0986,-3.0986,-3.0986,-3.0986,-3.0986,-3.0986,-3.0986,-3.0986,-3.0986,-3.0986,-3.0748,-3.052,-3.0419,-3.0343,-3.0177,-2.9999,-3.0381,-3.0687,-3.0534,-3.0786,-3.0911,-3.052,-3.0685,-3.0836,-3.0533,-3.0164,-2.972,-2.9326,-2.8567,-2.7928,-2.7635,-2.6817,-2.6107,-2.583,-2.5284,-2.4805,-2.455,-2.454,-2.454,-2.454,-2.454,-2.4444,-2.4317,-2.4049,-2.3877,0.0,0.0,0.0,0.0,0.0,0.0,0.0,0.0,0.0,0.0,0.0,0.0,0.0,0.0,0.0,0.0,0.0,0.0,0.0,0.0,0.0,0.0,0.0,0.0,0.0,-4.1886,-4.2443,-4.2422,-4.2826,-4.3105,-4.3105,-4.3105,-4.3232,-4.3479,-4.3497,-4.3497,-4.3497,-4.2976,-4.2498,-4.2198,-4.1622,-4.1117,-4.0793,-4.0745,-4.0648,-4.0485,-4.0337,-4.0188,-3.9918,-3.9418,-3.9082,-3.8849,-3.7854,-3.7417,-3.7358,-3.6723,-3.6352,-3.6148,-3.6148,-3.5672,-3.478,-3.3808,-3.2932,-3.2128,-3.1272,-3.0986,-3.0986,-3.0986,-3.0986,-3.0986,-3.0986,-3.0986,-3.0986,-3.0986,-3.0986,-3.0986,-3.0986,-3.0823,-3.0583,-3.0393,-3.0406,-3.0343,-3.0114,-3.047,-3.0763,-3.0712,-3.0888,-3.0911,-3.0672,-3.0823,-3.0911,-3.0672,-2.9998,-2.9353,-2.8988,-2.7885,-2.7001,-2.6731,-2.5883,-2.5391,-2.5391,-2.4805,-2.4327,-2.4074,-2.4063,-2.3861,-2.3599,-2.3599,-2.3493,-2.3378,-2.3024,-2.2957,-2.3093,0.0,0.0,0.0,0.0,0.0,0.0,0.0,0.0,0.0,0.0,0.0,0.0,0.0,0.0,0.0,0.0,0.0,0.0,0.0,0.0,0.0,0.0,0.0,-4.0235,-4.1103,-4.1904,-4.2793,-4.3232,-4.3461,-4.3497,-4.3497,-4.3497,-4.3497,-4.3497,-4.3497,-4.3497,-4.2693,-4.2216,-4.2198,-4.1391,-4.0918,-4.0888,-4.0793,-4.0648,-4.0534,-4.0337,-3.9918,-3.9206,-3.9135,-3.8794,-3.8238,-3.7621,-3.7358,-3.7298,-3.6723,-3.6006,-3.54,-3.54,-3.4846,-3.3891,-3.3143,-3.2245,-3.1272,-3.1061,-3.0986,-3.0986,-3.0986,-3.0986,-3.0986,-3.0986,-3.0986,-3.0986,-3.0986,-3.0986,-3.0986,-3.0986,-3.0898,-3.081,-3.038,-3.0633,-3.0698,-3.0189,-3.0496,-3.0823,-3.0661,-3.0773,-3.096,-3.096,-3.096,-3.0947,-3.0947,-3.0173,0.0,-2.9101,-2.7541,-2.6239,-2.5797,-2.5028,-2.4454,-2.4464,-2.4454,-2.4074,-2.3146,-2.3071,-2.2629,-2.173,-2.1721,-2.1712,-2.1712,-2.1204,-2.1181,-2.164,0.0,0.0,0.0,0.0,0.0,0.0,0.0,0.0,0.0,0.0,0.0,0.0,0.0,0.0,0.0,0.0,0.0,0.0,0.0,0.0,0.0,-3.6688,-3.8404,-3.9846,-4.0727,-4.1531,-4.2388,-4.2548,-4.2855,-4.3424,-4.3497,-4.3497,-4.3497,-4.3497,-4.3497,-4.3497,-4.2995,-4.2537,-4.2198,-4.1622,-4.1192,-4.0871,-4.0871,-4.084,-4.0776,-4.0087,-3.9679,-3.9454,-3.8407,-3.7796,-3.7621,-3.7013,-3.6723,-3.6723,-3.5991,-3.5593,-3.54,-3.54,-3.4581,-3.3353,-3.3003,-3.2245,-3.1272,-3.1061,-3.0986,-3.0986,-3.0986,-3.0986,-3.0986,-3.0986,-3.0986,-3.0986,-3.0986,-3.0508,-3.0024,-3.0024,-2.9394,-2.8694,-2.8697,-2.8607,-2.8458,-2.8603,-2.8781,-2.89,-2.8988,-2.9063,-2.9352,-2.992,-2.9516,-2.9113,-2.9113,-2.8238,-2.7492,-2.7245,-2.6132,-2.5228,-2.4859,-2.4667,-2.4257,-2.3526,-2.3501,-2.3041,-2.2121,-2.2078,-2.1943,-2.1708,-2.1708,-2.1581,-2.1238,-2.1081,-2.0893,0.0,0.0,0.0,0.0,0.0,0.0,0.0,0.0,0.0,0.0,0.0,0.0,0.0,0.0,0.0,0.0,0.0,0.0,0.0,0.0,0.0,0.0,-3.6591,-3.79,-3.8977,-3.9958,-4.091,-4.1699,-4.1809,-4.1992,-4.2451,-4.2488,-4.2635,-4.2965,-4.3002,-4.3061,-4.325,-4.2826,-4.2275,-4.1487,-4.0999,-4.0613,-4.0388,-4.0134,-4.0144,-4.0402,-3.9542,-3.8995,-3.8707,-3.7854,-3.7238,-3.7013,-3.6662,-3.6352,-3.6022,-3.5608,-3.5059,-3.4447,0.0,0.0,0.0,0.0,-3.1909,-3.1272,-3.1061,-3.0986,-3.0986,-3.0986,-3.0748,-3.0432,-3.0432,-3.019,-2.9897,-2.9656,-2.9276,-2.883,-2.8608,-2.8009,-2.7477,-2.7477,-2.7557,-2.7601,-2.7754,-2.8004,-2.8288,-2.8415,-2.8162,0.0,-2.8567,-2.848,-2.8393,-2.8412,-2.7592,-2.6888,-2.6507,-2.5605,-2.4784,-2.3968,-2.3947,-2.3515,-2.2596,-2.2473,0.0,0.0,0.0,-2.0963,-2.0516,-2.0508,0.0,0.0,0.0,-1.9759,-1.962,-2.0314,0.0,0.0,-2.2921,-2.3135,0.0,0.0,0.0,0.0,0.0,0.0,0.0,0.0,0.0,0.0,0.0,0.0,0.0,0.0,0.0,0.0,-3.6925,-3.765,-3.8034,-3.9053,-4.0065,-4.0873,-4.0965,-4.102,-4.1111,-4.1185,-4.1534,-4.2249,-4.2378,-4.2553,-4.2794,-4.2372,0.0,0.0,0.0,-3.9577,-3.9577,-3.8996,-3.9041,-3.9682,-3.8694,-3.7963,-3.7467,-3.7223,-3.6779,-3.6261,-3.6199,-3.5793,-3.5175,-3.5046,-3.4161,-3.2905,-3.3031,-3.3087,-3.296,-3.195,-3.1434,-3.1272,-3.0973,0.0,0.0,-3.0644,-3.005,-2.9362,-2.9362,-2.8885,-2.815,-2.7746,-2.7536,-2.7363,-2.6995,-2.68,-2.6669,-2.6453,-2.6885,-2.7302,-2.7175,-2.7603,-2.8038,-2.8145,-2.752,-2.7026,-2.7026,-2.7673,-2.8155,-2.8118,-2.7484,-2.6831,-2.6425,-2.5605,-2.4495,-2.3219,-2.2997,0.0,-2.1664,-2.1562,-2.1114,-2.0205,-2.0161,-1.9728,-1.8835,-1.8827,-1.8603,-1.8072,-1.8125,-1.8318,-1.8652,-1.8762,-1.972,-2.159,-2.2513,-2.3028,0.0,0.0,0.0,0.0,0.0,0.0,0.0,0.0,0.0,0.0,0.0,0.0,0.0,0.0,0.0,-3.6011,-3.6925,-3.765,-3.8034,-3.8579,-3.9239,-4.0029,-4.012,-4.0396,-4.1056,-4.1699,-4.2139,-4.2286,-4.2892,-4.3004,-4.2459,-4.1717,-4.0931,-4.001,-3.9207,-3.8801,-3.8801,-3.8665,-3.8688,-3.8826,-3.7502,0.0,-3.6657,-3.554,-3.4979,-3.486,-3.4349,-3.4014,-3.3767,-3.2688,-3.1727,-3.1034,-3.2003,-3.23,-3.2096,-3.1743,-3.1434,-3.1198,-3.0254,-2.972,-2.9264,-2.8558,-2.7971,-2.7553,-2.7553,-2.7403,0.0,-2.7119,-2.664,-2.6093,-2.5989,-2.5283,-2.4701,-2.488,-2.49,-2.4938,-2.5469,-2.5738,-2.5906,-2.6278,-2.6267,-2.6151,-2.6151,-2.6252,-2.6423,-2.6382,-2.6106,-2.5788,-2.5484,-2.448,-2.362,-2.3148,-2.2401,-2.1615,-2.0672,-2.059,-2.0133,-1.9131,-1.9112,-1.9044,-1.8827,-1.8827,-1.8603,-1.8072,-1.8125,-1.789,-1.7557,-1.8426,-1.9354,-2.0525,-2.148,-2.2349,0.0,0.0,0.0,0.0,0.0,0.0,0.0,0.0,0.0,0.0,0.0,-3.2296,-3.355,0.0,-3.4998,-3.6574,-3.7058,-3.7469,-3.8285,-3.8401,-3.8629,-3.9227,-3.9294,-3.9625,-4.0414,-4.0855,-4.1277,-4.168,-4.2066,-4.1933,-4.1144,-4.0682,-3.9917,-3.8731,-3.8269,-3.8043,-3.8043,-3.7541,-3.7385,-3.7675,-3.632,-3.5639,-3.56,-3.4836,-3.4342,-3.3955,-3.3638,-3.3131,-3.2391,-3.1408,-3.0747,-3.047,-3.1026,-3.1145,-3.0989,-3.0775,-3.0559,-3.0256,-2.9262,-2.8774,-2.8387,-2.7627,-2.6928,-2.6347,-2.6347,-2.6053,-2.5701,-2.5436,-2.5062,-2.4635,-2.4377,-2.3941,-2.3579,-2.3744,-2.3841,-2.4067,-2.4727,-2.506,-2.5359,-2.5841,-2.5895,-2.5895,-2.5895,-2.5581,-2.5507,-2.5822,-2.5768,-2.5303,-2.4588,-2.3859,-2.3008,-2.1796,-2.1309,-2.0626,-1.9619,-1.9571,-1.933,-1.8827,-1.8827,-1.8827,-1.8827,-1.8698,-1.8497,-1.8126,-1.7931,-1.7665,-1.7326,-1.7774,-1.8543,-1.9528,-1.9984,-2.131,0.0,0.0,0.0,0.0,0.0,0.0,0.0,-2.4767,-2.7209,-2.9108,-3.06,-3.2074,-3.3687,-3.4137,-3.4931,-3.7006,-3.7152,-3.7432,-3.8546,-3.8401,-3.8391,-3.8878,-3.8927,-3.9129,-3.9625,-3.9955,-4.0341,-4.0836,-4.102,-4.0735,-3.9948,-3.9707,-3.8965,-3.7547,-3.7335,-3.7249,-3.7249,-3.6346,-3.6107,-3.6555,-3.5272,-3.4601,-3.4488,-3.4118,-3.3634,-3.3126,-3.2868,-3.2063,-3.0895,-3.0283,-3.0021,-3.0008,-2.9929,-2.9779,-2.9656,-2.9747,-2.9561,-2.9164,-2.8205,-2.7692,-2.7373,-2.6632,-2.582,-2.5142,-2.5142,-2.4703,-2.4115,-2.37,-2.3591,-2.3504,-2.3099,-2.3001,-2.3001,-2.3001,-2.3296,-2.3755,-2.4355,-2.4781,-2.5207,-2.5786,-2.5895,-2.5895,-2.5728,-2.5243,-2.5019,-2.5455,-2.5284,-2.4672,-2.3568,-2.312,-2.2217,-2.044,-2.0163,-1.9719,-1.8835,-1.8827,-1.8827,-1.8827,-1.8827,-1.8827,-1.8827,-1.8567,-1.8388,-1.8094,-1.7837,-1.7557,-1.7326,-1.7326,-1.7774,-1.8754,-1.8839,-2.0166,0.1403,-0.3658,-0.8398,-1.1006,-1.4497,-1.8408,0.0,-2.4999,-2.6959,-2.9094,-3.1101,-3.268,-3.3323,-3.4153,-3.5199,-3.6549,-3.7157,-3.7721,-3.8596,-3.8658,-3.8915,-3.968,-3.9772,-3.9515,-3.8891,-4.0139,-4.0726,-4.0084,-4.0708,-4.0767,-3.9951,-3.9211,-3.8433,-3.7518,-3.6818,-3.6422,-3.6422,-3.5885,-3.565,-3.5734,-3.438,-3.3734,-3.3682,-3.2415,-3.1762,-3.1646,-3.0456,-2.9554,-2.892,-2.8817,-2.8831,-2.8766,-2.8266,-2.8066,-2.8225,-2.9389,-2.928,-2.8359,-2.7385,-2.6265,-2.5205,-2.4323,-2.3731,-2.3304,-2.3304,-2.324,-2.3154,-2.3099,-2.3078,-2.3067,-2.3012,-2.3001,-2.3001,-2.3001,-2.3045,-2.334,-2.429,-2.453,-2.4836,-2.5732,-2.5895,-2.5728,-2.5115,-2.4956,-2.4763,-2.4374,-2.375,-2.3053,-2.2259,-2.1428,-2.0741,-2.0382,-1.9502,-1.8944,-1.8827,-1.8827,-1.8827,-1.8827,-1.8827,-1.8827,-1.8827,-1.8567,-1.8396,-1.8117,-1.7852,-1.7557,-1.7326,-1.7326,-1.7774,-1.8769,-1.8784,-1.9439,0.4441,0.0607,-0.2925,-0.6606,-1.0277,-1.4015,-1.804,-2.1692,-2.4929,-2.7131,-3.0069,-3.2501,-3.3601,-3.4333,-3.5307,-3.6911,-3.7173,-3.7542,-3.859,-3.8528,-3.8593,-3.9191,-3.9651,-4.0,-4.0084,-4.0406,-4.0449,-3.995,-4.0212,-3.9849,-3.8558,-3.8169,-3.764,-3.6838,-3.6492,-3.6156,-3.5898,-3.5391,-3.4958,-3.456,-3.3646,-3.2964,-3.247,-3.1792,-3.1043,-3.0315,-2.9345,-2.8817,-2.86,-2.8224,-2.8106,-2.8079,-2.7512,-2.7338,-2.7352,-2.7541,-2.7411,-2.6914,-2.5707,-2.4908,-2.4379,-2.3511,-2.3165,-2.3001,-2.3001,-2.3001,-2.3001,-2.3001,-2.3001,-2.2927,-2.2553,-2.2478,-2.2402,-2.2004,-2.1928,-2.2178,-2.3116,-2.3314,-2.3585,-2.4492,-2.4669,-2.4584,-2.4327,-2.3907,-2.3416,-2.2615,-2.2668,-2.2473,-2.1373,-2.0732,-2.0172,-1.9502,-1.9052,-1.8827,-1.8827,-1.8827,-1.8827,-1.8827,-1.8827,-1.8727,-1.8619,-1.8396,-1.8132,-1.79,-1.7628,-1.7434,-1.7326,-1.7326,-1.7549,-1.789,-1.789,-1.8141,0.8772,0.5928,0.3252,-0.0426,-0.4594,-0.8699,-1.2745,-1.7569,-2.1973,-2.4743,-2.8449,-3.1641,-3.3181,-3.4186,-3.5352,-3.7006,-3.7173,-3.747,-3.8707,-3.8597,-3.8621,-3.9266,-3.9733,-4.0271,-4.0959,-4.0544,-4.003,-3.9601,-3.957,-3.9053,-3.7897,-3.7614,-3.7228,-3.6638,-3.6409,-3.6071,-3.5616,-3.5052,-3.448,-3.385,-3.3049,-3.2342,-3.1736,-3.1218,-3.0315,-2.9219,-2.8766,-2.8587,-2.8536,-2.7987,-2.7801,-2.7706,-2.7076,-2.6769,-2.6685,-2.5856,-2.57,-2.5608,-2.4504,-2.3975,-2.3694,-2.3139,-2.3001,-2.3001,-2.3001,-2.3001,-2.3001,-2.3001,-2.3001,-2.2852,-2.2252,-2.2101,-2.1949,-2.1318,-2.1165,-2.1406,-2.2291,-2.2483,-2.2744,-2.3619,-2.3714,-2.3531,-2.3357,-2.2765,-2.2069,-2.0979,-2.1374,-2.1382,-2.0247,-1.9954,-1.9611,-1.8843,-1.8827,-1.8827,-1.8827,-1.8827,-1.8827,-1.8827,-1.8827,-1.8719,-1.8503,-1.8257,-1.7994,-1.7692,-1.7419,-1.7326,-1.7326,-1.7326,-1.7326,-1.7326,-1.7326,-1.7326,1.5625,1.2675,0.9547,0.7816,0.2917,-0.2863,-0.7873,-1.3008,-1.7929,-2.2324,-2.6556,-2.9968,-3.1464,-3.3419,-3.5215,-3.6509,-3.7157,-3.7859,-3.8942,-3.9082,-3.9458,-4.0522,-4.0265,-4.022,-4.0758,-4.0318,-3.9663,-3.8799,-3.8744,-3.8726,-3.8676,-3.7913,-3.7505,-3.7469,-3.6719,-3.6071,-3.5616,-3.5052,-3.4545,-3.4101,-3.261,-3.1946,-3.1819,-3.0271,-2.9219,-2.8651,-2.8587,-2.8587,-2.8536,-2.7987,-2.7798,-2.7674,-2.6664,-2.6205,-2.6064,-2.4765,-2.458,-2.4923,-2.4296,-2.3621,-2.3001,-2.3001,-2.3001,-2.3001,-2.3001,-2.3001,-2.3001,-2.3001,-2.3001,-2.2852,-2.2252,-2.2101,-2.1949,-2.1318,-2.1165,-2.1406,-2.2291,-2.2483,-2.2744,-2.3619,-2.3444,-2.2921,-2.2208,-2.1686,-2.0979,-1.982,-1.9646,-1.9471,-1.8928,-1.8835,-1.8835,-1.8827,-1.8827,-1.8827,-1.8827,-1.8827,-1.8827,-1.8827,-1.8827,-1.8719,-1.8503,-1.828,-1.8009,-1.7692,-1.7419,-1.7326,-1.7326,-1.7326,-1.7326,-1.7326,-1.7326,-1.7326,1.9025,1.7854,1.6012,1.2816,0.9536,0.5963,0.1383,-0.3991,-0.9256,-1.4001,-1.9323,-2.4198,-2.7653,-3.101,-3.3853,-3.5555,-3.7149,-3.8475,-3.9305,-3.9396,-3.9521,-3.9986,-3.9946,-3.9916,-3.9976,-3.9962,-3.9652,-3.899,-3.897,-3.8755,-3.8336,-3.7809,-3.7395,-3.7132,-3.6557,-3.5881,-3.5068,-3.4864,-3.4399,-3.3555,-3.1972,-3.0925,-3.0286,-2.9345,-2.8766,-2.8587,-2.8249,-2.8052,-2.7987,-2.7134,-2.6734,-2.6684,-2.5868,-2.5444,-2.5171,-2.4438,-2.4157,-2.4011,-2.353,-2.3213,-2.3001,-2.3001,-2.2703,-2.2402,-2.2402,-2.209,-2.1776,-2.1776,-2.1776,-2.1624,-2.1021,-2.0867,-2.0702,-2.0079,-1.9923,-2.0071,-2.0588,-2.0922,-2.1334,-2.1803,-2.2059,-2.198,-2.1427,-2.1257,-2.0718,-1.9729,-1.9279,-1.9012,-1.8827,-1.8827,-1.8635,-1.8164,-1.8542,-1.8635,-1.8071,-1.8542,-1.8827,-1.8827,-1.8827,-1.8635,-1.8257,-1.8102,-1.7916,-1.7419,-1.7326,-1.7326,-1.7326,-1.7326,-1.7326,-1.7326,-1.7326,-1.7326,2.2956,2.2429,2.1468,1.8863,1.6387,1.3423,0.9115,0.4288,-0.0781,-0.6012,-1.1614,-1.7241,-2.2763,-2.7414,-3.1486,-3.4826,-3.7546,-3.9415,-4.0098,-4.0214,-4.0285,-4.0501,-4.0304,-4.0109,-4.0036,-4.0116,-3.9906,-3.9289,-3.9154,-3.8913,-3.8473,-3.7843,-3.7395,-3.7132,-3.6597,-3.5837,-3.4816,-3.4769,-3.4003,-3.2407,-3.1115,-3.0058,-2.917,-2.8766,-2.8522,-2.8314,-2.7987,-2.7709,-2.7443,-2.6564,-2.6233,-2.6164,-2.5523,-2.5123,-2.4729,-2.41,-2.3638,-2.3224,-2.3075,-2.3001,-2.2927,-2.2777,-2.2402,-2.2025,-2.1863,-2.1482,-2.1165,-2.1165,-2.1165,-2.1088,-2.0391,-2.0167,-2.0079,-1.946,-1.9301,-1.9451,-1.9928,-2.0192,-2.0418,-2.0935,-2.0997,-2.0826,-2.0546,-2.0365,-2.0002,-1.9371,-1.8819,-1.845,-1.845,-1.8172,-1.78,-1.7326,-1.7699,-1.78,-1.7318,-1.7699,-1.8172,-1.8357,-1.845,-1.8164,-1.7613,-1.7916,-1.7636,-1.6777,-1.7145,-1.7326,-1.7326,-1.7326,-1.7326,-1.7326,-1.7326,-1.7326,2.7354,2.6601,2.5937,2.587,2.3185,1.9451,1.5449,1.1717,0.7516,0.1656,-0.3394,-0.9071,-1.6401,-2.2449,-2.8139,-3.3857,-3.7924,-4.0583,-4.1227,-4.143,-4.1634,-4.1947,-4.1314,-4.0835,-4.0799,-4.0683,-4.0319,-3.9607,-3.9313,-3.9129,-3.9101,-3.8096,-3.7524,-3.7505,-3.6719,-3.5793,-3.4816,-3.4721,-3.3415,-3.0925,-3.0147,-2.9387,-2.8522,-2.8522,-2.8249,-2.7789,-2.7709,-2.7443,-2.6905,-2.6358,-2.6164,-2.6094,-2.5523,-2.504,-2.4634,-2.3644,-2.3054,-2.2628,-2.2852,-2.2927,-2.2777,-2.2252,-2.2025,-2.1873,-2.1318,-2.1165,-2.1088,-2.1088,-2.1088,-2.0934,-2.0323,-2.0167,-2.001,-1.946,-1.9301,-1.9522,-2.0254,-2.0108,-1.9998,-2.0757,-2.0184,-1.9554,-1.9546,-1.9096,-1.8735,-1.8735,-1.8071,-1.7591,-1.7684,-1.7044,-1.6588,-1.6581,-1.6588,-1.6588,-1.6581,-1.6588,-1.6857,-1.7598,-1.7692,-1.7419,-1.6676,-1.752,-1.734,-1.5858,-1.6777,-1.7232,-1.7232,-1.7232,-1.7326,-1.7326,-1.7326,-1.7326,2.9282,2.9439,2.9397,2.8339,2.7366,2.5886,2.3294,2.0585,1.7251,1.2438,0.7593,0.2495,-0.2941,-1.3709,-2.278,-2.5902,-3.4012,-4.0364,-4.1502,-4.1796,-4.1867,-4.1846,-4.1755,-4.1411,-4.072,-4.0628,-4.0493,-4.0251,-3.989,-3.9519,-3.9129,-3.8269,-3.7701,-3.7505,-3.6399,-3.5481,-3.4833,-3.3716,-3.24,-3.0925,-3.0435,-2.9407,-2.7987,-2.7987,-2.7709,-2.7175,-2.6769,-2.6496,-2.6358,-2.5804,-2.5523,-2.5523,-2.5382,-2.4743,-2.3897,-2.3486,-2.2681,-2.1807,-2.17,-2.1624,-2.1624,-2.1471,-2.1088,-2.0634,-2.0469,-2.0157,-1.9766,-1.9766,-1.9766,-1.9766,-1.9539,-1.9539,-1.946,-1.9301,-1.9301,-1.9361,-1.9414,-1.9674,-1.9825,-1.9949,-1.9729,-1.9455,-1.8804,-1.8342,-1.7785,-1.7239,-1.648,-1.6372,-1.7598,-1.7044,-1.6393,-1.5724,-1.6204,-1.6393,-1.5724,-1.6298,-1.6676,-1.6864,-1.7412,-1.7505,-1.6951,-1.6936,-1.6655,-1.5812,-1.6089,-1.6177,-1.6177,-1.6943,-1.7326,-1.7326,-1.7326,-1.7326,3.0719,3.0999,3.1116,3.0332,2.9972,2.9246,2.7236,2.5585,2.3468,1.9755,1.5856,1.1626,0.683,-0.6474,-1.7749,-2.0764,-3.1932,-4.0677,-4.1891,-4.2226,-4.2283,-4.2134,-4.1944,-4.1476,-4.0564,-4.0477,-4.0498,-4.0544,-4.0076,-3.9671,-3.9279,-3.8444,-3.7841,-3.7505,-3.6643,-3.5715,-3.4816,-3.3008,-3.1705,-3.0925,-3.0133,-2.9107,-2.7776,-2.7776,-2.7377,-2.6633,-2.6302,-2.6025,-2.5734,-2.5075,-2.4779,-2.4707,-2.442,-2.3779,-2.299,-2.251,-2.1842,-2.1031,-2.0547,-2.0391,-2.0391,-2.0702,-2.0469,-2.0167,-1.9923,-1.9539,-1.9301,-1.9301,-1.9301,-1.9301,-1.9301,-1.9301,-1.9213,-1.8816,-1.8727,-1.8698,-1.8377,-1.8362,-1.8401,-1.8302,-1.8249,-1.8156,-1.7692,-1.7412,-1.7044,-1.6676,-1.5913,-1.5717,-1.656,-1.6001,-1.5439,-1.4962,-1.5343,-1.5439,-1.4962,-1.5343,-1.5724,-1.6008,-1.6278,-1.617,-1.5697,-1.5697,-1.5311,-1.4453,-1.493,-1.5317,-1.5798,-1.6372,-1.685,-1.7326,-1.7326,-1.7326,3.1894,3.1879,3.1879,3.1879,3.1595,3.0822,2.8962,2.8339,2.7471,2.5006,2.239,1.8971,1.4079,-0.0374,-1.2967,-1.7486,-3.0652,-4.08,-4.2111,-4.248,-4.2554,-4.236,-4.188,-4.1208,-4.0236,-4.0218,-4.0352,-4.0542,-4.0075,-3.9696,-3.9519,-3.8693,-3.7893,-3.723,-3.6825,-3.5925,-3.4512,-3.2439,-3.1174,-3.0808,-2.967,-2.8638,-2.7709,-2.7709,-2.7108,-2.6082,-2.6082,-2.5804,-2.5229,-2.4409,-2.4108,-2.4036,-2.3316,-2.2745,-2.2241,-2.1451,-2.0847,-2.0411,-1.9618,-1.9301,-1.9381,-1.9932,-2.0089,-2.0001,-1.946,-1.9301,-1.9301,-1.9301,-1.9301,-1.9301,-1.9301,-1.9301,-1.9063,-1.8256,-1.8006,-1.7868,-1.7502,-1.6934,-1.663,-1.657,-1.6588,-1.6581,-1.6487,-1.6487,-1.6393,-1.6298,-1.5724,-1.5242,-1.5242,-1.4675,-1.4298,-1.4298,-1.4298,-1.4298,-1.4298,-1.4298,-1.458,-1.5153,-1.4854,-1.4465,-1.3878,-1.4166,-1.3878,-1.2727,-1.359,-1.4555,-1.5412,-1.5697,-1.6278,-1.7138,-1.7232,-1.7326,3.2826,3.2933,3.2933,3.2933,3.2864,3.2524,3.1347,3.0763,3.0317,2.9822,2.7769,2.4455,1.9126,0.4751,-0.8476,-1.5112,-2.8419,-3.8824,-4.1446,-4.1732,-4.1611,-4.1512,-4.151,-4.0957,-3.946,-3.9808,-4.02,-4.0345,-4.02,-3.996,-3.9596,-3.9059,-3.786,-3.5822,-3.538,-3.4479,-3.3002,-3.1931,-3.1072,-3.0375,-2.9512,-2.843,-2.7108,-2.7108,-2.6552,-2.5453,-2.5453,-2.5382,-2.5229,-2.4409,-2.4108,-2.4036,-2.3316,-2.2585,-2.1842,-2.1538,-2.0847,-1.9942,-1.9636,-1.9469,-1.9301,-1.946,-1.946,-1.946,-1.9301,-1.9301,-1.9301,-1.9301,-1.9301,-1.9301,-1.9301,-1.9301,-1.9152,-1.8709,-1.8193,-1.7704,-1.7345,-1.6958,-1.6635,-1.656,-1.6588,-1.6393,-1.5724,-1.5629,-1.5439,-1.4771,-1.458,-1.4484,-1.4484,-1.4394,-1.4298,-1.4298,-1.4298,-1.4298,-1.4298,-1.4298,-1.4202,-1.3823,-1.4382,-1.437,-1.3607,-1.3409,-1.3119,-1.2732,-1.292,-1.3017,-1.321,-1.493,-1.5893,-1.6082,-1.6943,-1.7326,3.3039,3.3182,3.3251,3.3563,3.3614,3.3339,3.2336,3.1946,3.1622,3.1131,2.8366,2.5132,2.2238,0.7059,-0.6623,-1.1618,-2.5271,-3.641,-3.9792,-4.0702,-4.1093,-4.1174,-4.1169,-4.0707,-3.9472,-3.9687,-3.9983,-4.0238,-4.0347,-4.0249,-3.987,-3.891,-3.7659,-3.6125,-3.5244,-3.4219,-3.3039,-3.2114,-3.1203,-3.0269,-2.9637,-2.856,-2.6973,-2.6973,-2.6114,-2.4707,-2.5087,-2.4862,-2.4059,-2.3683,-2.3305,-2.2798,-2.2059,-2.1461,-2.1011,-2.0779,-2.0245,-1.9636,-1.8984,-1.8736,-1.8567,-1.8078,-1.8567,-1.9301,-1.9301,-1.9301,-1.9222,-1.8727,-1.8647,-1.8559,-1.8089,-1.792,-1.7789,-1.715,-1.6409,-1.5848,-1.5567,-1.5497,-1.5439,-1.5439,-1.5439,-1.5248,-1.4867,-1.4867,-1.4675,-1.4394,-1.4298,-1.4298,-1.4298,-1.4298,-1.4298,-1.4298,-1.4298,-1.4298,-1.4298,-1.4016,-1.3727,-1.3539,-1.3329,-1.313,-1.2743,-1.2355,-1.2063,-1.1965,-1.1965,-1.2155,-1.2727,-1.4262,-1.5317,-1.5798,-1.685,-1.7326,3.3251,3.3459,3.3649,3.4086,3.4185,3.3903,3.3008,3.2633,3.236,3.1916,2.7905,2.3873,2.1881,0.6704,-0.6951,-1.1321,-2.4232,-3.4868,-3.8233,-3.9718,-4.0562,-4.0833,-4.0671,-4.0229,-3.9443,-3.9425,-3.9616,-4.0053,-4.0383,-4.0415,-4.0005,-3.8655,-3.7523,-3.6745,-3.5453,-3.4301,-3.3271,-3.2281,-3.1218,-3.0162,-2.9574,-2.8495,-2.6973,-2.6905,-2.5906,-2.4409,-2.4862,-2.4348,-2.3169,-2.2883,-2.236,-2.168,-2.0944,-2.0489,-2.0264,-2.002,-1.9706,-1.9222,-1.8318,-1.7908,-1.7594,-1.6944,-1.7594,-1.8727,-1.8727,-1.8727,-1.8567,-1.7917,-1.7738,-1.7543,-1.692,-1.666,-1.6411,-1.5473,-1.4719,-1.4224,-1.3991,-1.4147,-1.4298,-1.4298,-1.4298,-1.4298,-1.4298,-1.4298,-1.4298,-1.4298,-1.4298,-1.4298,-1.4298,-1.4298,-1.4298,-1.4298,-1.4298,-1.4298,-1.4298,-1.3919,-1.3539,-1.3346,-1.2565,-1.2078,-1.1883,-1.1389,-1.1194,-1.1194,-1.1194,-1.158,-1.2344,-1.3692,-1.4746,-1.5514,-1.6756,-1.7326,3.3767,3.4268,3.4673,3.4721,3.4721,3.4577,3.3969,3.3182,3.287,3.4105,2.8733,2.1821,1.5361,0.2415,-1.02,-1.9106,-2.8498,-3.5481,-3.7837,-3.8963,-3.968,-4.0149,-3.9708,-3.9168,-3.8756,-3.866,-3.8923,-3.9696,-4.0223,-4.0256,-3.9688,-3.8549,-3.7523,-3.6745,-3.5453,-3.4137,-3.2801,-3.1901,-3.0866,-2.9665,-2.8817,-2.7894,-2.6973,-2.6496,-2.5873,-2.5158,-2.4492,-2.412,-2.3891,-2.2499,-2.1842,-2.168,-2.0944,-2.0489,-2.0264,-2.0264,-1.9441,-1.8381,-1.8301,-1.7658,-1.678,-1.6698,-1.678,-1.6944,-1.6944,-1.6944,-1.6944,-1.6854,-1.6798,-1.6823,-1.6748,-1.6577,-1.618,-1.5109,-1.464,-1.4402,-1.3964,-1.4139,-1.4298,-1.4298,-1.4298,-1.4298,-1.4298,-1.4298,-1.4298,-1.4298,-1.4298,-1.4298,-1.4298,-1.4298,-1.4298,-1.4298,-1.4298,-1.4298,-1.4298,-1.4298,-1.3817,-1.2958,-1.2759,-1.2273,-1.1292,-1.1194,-1.1194,-1.1194,-1.1194,-1.1292,-1.1389,-1.3307,-1.4364,-1.4459,-1.6372,-1.7326,3.4268,3.4625,3.488,3.5224,3.527,3.5131,3.4625,3.4153,3.3324,3.1285,2.5564,1.8554,1.0777,-0.0916,-1.2007,-2.0002,-2.8061,-3.4281,-3.7034,-3.8807,-4.0026,-4.0493,-3.9748,-3.9218,-3.9299,-3.8803,-3.8917,-3.9915,-4.0344,-4.0377,-3.9991,-3.8816,-3.7572,-3.6336,-3.5069,-3.3687,-3.221,-3.1622,-3.0777,-2.9602,-2.8944,-2.8026,-2.6973,-2.6427,-2.5581,-2.4564,-2.4264,-2.3599,-2.2649,-2.2059,-2.1538,-2.1011,-2.0722,-2.0411,-2.002,-2.002,-1.9539,-1.8798,-1.8318,-1.7504,-1.6617,-1.6124,-1.5553,-1.5311,-1.637,-1.6698,-1.6617,-1.6049,-1.5936,-1.5749,-1.5108,-1.472,-1.4566,-1.428,-1.416,-1.4112,-1.389,-1.4151,-1.4298,-1.4298,-1.4171,-1.4063,-1.4063,-1.393,-1.3827,-1.3827,-1.3827,-1.3827,-1.3827,-1.3827,-1.3888,-1.4045,-1.4201,-1.4298,-1.4298,-1.3721,-1.3244,-1.2861,-1.2175,-1.1688,-1.1198,-1.1194,-1.1194,-1.1194,-1.1194,-1.1194,-1.1194,-1.3312,-1.4268,-1.4364,-1.6372,-1.7326,3.4577,3.4927,3.4807,3.3925,3.3723,3.3618,3.3422,3.2133,3.0421,2.8307,2.1161,1.2865,0.4985,-0.5915,-1.5878,-2.2541,-2.9183,-3.4367,-3.6754,-3.8965,-4.0481,-4.0866,-3.9896,-3.9359,-3.9743,-3.9199,-3.9185,-4.0043,-4.0403,-4.0476,-4.021,-3.9024,-3.7802,-3.6619,-3.5127,-3.3687,-3.236,-3.1751,-3.0851,-2.9602,-2.8867,-2.8012,-2.6973,-2.5988,-2.5063,-2.4036,-2.3599,-2.2787,-2.1756,-2.1538,-2.1088,-2.0566,-2.0566,-2.0255,-1.9863,-1.9529,-1.9045,-1.8407,-1.7513,-1.6698,-1.5801,-1.5235,-1.458,-1.4334,-1.556,-1.5966,-1.5801,-1.5151,-1.4985,-1.4817,-1.3899,-1.3489,-1.342,-1.368,-1.3749,-1.3784,-1.3851,-1.409,-1.4159,-1.4081,-1.3918,-1.3791,-1.3791,-1.364,-1.3513,-1.3513,-1.3513,-1.3513,-1.3513,-1.3513,-1.3586,-1.3767,-1.386,-1.3939,-1.4094,-1.3437,-1.2856,-1.2565,-1.1883,-1.1389,-1.1194,-1.1194,-1.1194,-1.1194,-1.1194,-1.1194,-1.1194,-1.2926,-1.398,-1.4364,-1.6082,-1.7037,3.4673,3.5178,3.457,3.0335,2.9262,2.9394,2.9844,2.5907,2.3048,2.6244,1.5879,0.4105,-0.2825,-1.3348,-2.2878,-2.8693,-3.3395,-3.658,-3.7285,-3.9405,-4.0891,-4.0918,-3.9957,-3.9417,-3.9761,-3.9671,-3.9675,-3.9885,-4.0343,-4.0476,-4.021,-3.9104,-3.8302,-3.7884,-3.5865,-3.4382,-3.347,-3.2415,-3.1116,-2.9602,-2.8532,-2.767,-2.6892,-2.4969,-2.4108,-2.4036,-2.2499,-2.1832,-2.1766,-2.0944,-2.0644,-2.0566,-2.0342,-2.0108,-1.9784,-1.8709,-1.7658,-1.6617,-1.5718,-1.4824,-1.4173,-1.4088,-1.4088,-1.4088,-1.4088,-1.4173,-1.4173,-1.4088,-1.4088,-1.401,-1.3534,-1.3398,-1.3435,-1.3491,-1.3544,-1.357,-1.3851,-1.3944,-1.3833,-1.3574,-1.3519,-1.3519,-1.3519,-1.3519,-1.3513,-1.3513,-1.3513,-1.3513,-1.3513,-1.3513,-1.3513,-1.3519,-1.3065,-1.2991,-1.3499,-1.3539,-1.3055,-1.2078,-1.198,-1.178,-1.1194,-1.1194,-1.1194,-1.1194,-1.1194,-1.1194,-1.1194,-1.2252,-1.3307,-1.4364,-1.5317,-1.6372,3.4673,3.3073,3.0891,2.9535,2.6269,2.3263,2.2707,2.0543,1.7269,1.2338,0.6282,-0.1063,-1.0766,-1.8751,-2.5292,-2.9537,-3.4197,-3.748,-3.7963,-3.9684,-4.0884,-4.0871,-4.0157,-3.9469,-3.8999,-3.9305,-3.9621,-3.989,-4.0338,-4.0585,-4.0538,-3.9548,-3.8479,-3.738,-3.5399,-3.3872,-3.2982,-3.2003,-3.0644,-2.9071,-2.8325,-2.7471,-2.6427,-2.4838,-2.4108,-2.4036,-2.2499,-2.1832,-2.1766,-2.0944,-2.0245,-1.9696,-1.945,-1.8877,-1.8069,-1.7568,-1.709,-1.6698,-1.637,-1.5718,-1.4985,-1.4985,-1.458,-1.4088,-1.4088,-1.4088,-1.4088,-1.3913,-1.3717,-1.3613,-1.3451,-1.3203,-1.304,-1.341,-1.3399,-1.3259,-1.3549,-1.3635,-1.361,-1.3532,-1.3369,-1.3248,-1.3248,-1.3091,-1.2958,-1.2958,-1.2958,-1.2958,-1.2958,-1.2697,-1.2592,-1.269,-1.235,-1.2365,-1.3131,-1.2612,-1.2208,-1.197,-1.1688,-1.1394,-1.1194,-1.1194,-1.1194,-1.1194,-1.1194,-1.1194,-1.1194,-1.2252,-1.359,-1.5317,-1.5609,-1.6372,3.0969,2.8928,2.4929,2.3305,1.8812,1.4688,1.4248,1.1013,0.675,0.1977,-0.3179,-0.9569,-1.8481,-2.4268,-2.8713,-3.1887,-3.5563,-3.8145,-3.8385,-3.9997,-4.1105,-4.0989,-4.0282,-3.9598,-3.9085,-3.9303,-3.9659,-4.0005,-4.0429,-4.0662,-4.0699,-3.975,-3.8704,-3.76,-3.5651,-3.4072,-3.3035,-3.1788,-3.0389,-2.8881,-2.7999,-2.7136,-2.622,-2.4767,-2.3975,-2.3599,-2.2349,-2.1614,0.0,-2.0789,-2.0245,-1.9775,-1.9204,-1.8479,-1.7666,-1.6854,-1.6363,-1.6124,-1.5801,-1.5394,-1.4908,-1.4908,-1.458,-1.4088,-1.4088,-1.4088,-1.4088,-1.3913,-1.3724,-1.3535,-1.3444,-1.3124,-1.293,-1.3262,-1.3191,-1.3147,-1.3312,-1.3385,-1.3338,-1.323,-1.3079,-1.2964,-1.2964,-1.2819,-1.2705,-1.2705,-1.2705,-1.2619,-1.2448,-1.2186,-1.1991,-1.1981,-1.1558,-1.1536,-1.2281,-1.1932,-1.1718,-1.1559,-1.1351,-1.1194,-1.1194,-1.1194,-1.1194,-1.1194,-1.1194,-1.1194,-1.1194,-1.2252,-1.3403,-1.4644,-1.5032,-1.5609,0.0,2.1769,1.6655,1.2521,0.7775,0.4158,0.432,-0.1717,0.0,-0.59,-1.251,-2.0147,-2.5673,-2.9563,-3.2695,-3.5098,-3.7278,-3.8639,-3.8594,-4.0262,-4.1341,-4.1113,-4.0299,-3.9786,-3.9749,-3.9591,-3.9726,-4.0256,-4.0548,-4.0683,-4.0699,-3.9768,-3.8958,-3.8315,-3.6449,-3.4805,-3.3521,-3.184,-3.03,-2.9035,-2.7604,-2.6731,-2.6208,-2.4696,-2.361,-2.2883,-2.2059,-2.1318,-2.0566,-2.0566,-2.0566,-2.0401,-1.9283,-1.8718,-1.8158,-1.6296,-1.5484,-1.5151,-1.4419,-1.4088,-1.4088,-1.4088,-1.4088,-1.4088,-1.4088,-1.4088,-1.4088,-1.4088,-1.3841,-1.3587,-1.3398,-1.3241,-1.3077,-1.3039,-1.3028,-1.3093,-1.3109,-1.3097,-1.3019,-1.2753,-1.2705,-1.2705,-1.2705,-1.2705,-1.2705,-1.2705,-1.2705,-1.2534,-1.21,-1.1929,-1.1757,-1.1327,-1.0804,-1.0634,-1.0944,-1.1364,-1.1427,-1.0872,-1.1061,-1.1175,-1.1175,-1.1189,-1.1194,-1.1194,-1.1194,-1.1194,-1.1194,-1.2155,-1.263,-1.2727,-1.3692,-1.4268,-0.1276,0.0,0.4902,0.2368,-0.2003,-0.6291,0.0,-1.1595,-1.4646,-1.8945,-2.1745,-2.5135,-3.0353,-3.2846,-3.4366,-3.5346,-3.735,-3.8772,-3.8639,-3.9997,-4.1019,-4.0965,-4.027,-3.9851,-4.0074,-3.9731,-3.9719,-4.0265,-4.0505,-4.0642,-4.0701,-4.0034,-3.9242,-3.8315,-3.6703,-3.5105,-3.3521,-3.2275,-3.0526,-2.826,-2.792,-2.6625,-2.4612,-2.3672,-2.2798,-2.2059,-2.1242,-2.0789,-2.0566,-2.0566,-2.0245,-1.945,-1.823,-1.7253,-1.6445,-1.4985,-1.4419,-1.4419,-1.4173,-1.4088,-1.4088,-1.4088,-1.4088,-1.4088,-1.4088,-1.4088,-1.3997,-1.3633,-1.3548,-1.3379,-1.296,-1.2796,-1.282,-1.2813,-1.2831,-1.2825,-1.2807,-1.2801,-1.2783,-1.2717,-1.2705,-1.2705,-1.2705,-1.2705,-1.2705,-1.2705,-1.2705,-1.2534,-1.21,-1.1671,-1.1322,-1.0809,-1.0381,-1.0144,-1.0197,-1.0447,-1.0668,-1.0636,-1.0849,-1.0967,-1.0967,-1.1113,-1.1194,-1.1194,-1.1194,-1.1194,-1.1194,-1.1482,-1.1965,-1.2732,-1.292,-1.3499,-1.3747,-1.0312,-0.7878,-0.9148,-1.2899,-1.6881,-1.8952,-2.0764,-2.3119,-2.7012,-2.8483,-3.0128,-3.3616,-3.4997,-3.5822,-3.6465,-3.7871,-3.9103,-3.9589,-4.0504,-4.1255,-4.1463,-4.0966,-4.0727,-4.0956,-4.0402,-4.0176,-4.0453,-4.056,-4.0621,-4.0708,-4.0138,-3.9246,-3.7972,-3.6685,-3.5178,-3.3521,-3.2149,-3.0392,-2.8247,-2.7339,-2.6039,-2.4337,-2.339,-2.2585,-2.1766,-2.1318,-2.0702,-2.001,-2.001,-1.945,-1.8479,-1.735,-1.6453,-1.5703,-1.465,-1.4166,-1.4088,-1.4088,-1.4088,-1.4088,-1.4088,-1.4088,-1.4088,-1.4088,-1.3997,-1.3822,-1.3639,-1.3379,-1.3209,-1.2973,-1.2796,-1.2705,-1.2705,-1.2705,-1.2705,-1.2705,-1.2705,-1.2705,-1.2705,-1.2705,-1.2705,-1.2705,-1.2705,-1.2705,-1.2705,-1.2705,-1.2443,-1.1757,-1.1499,-1.1063,-1.0381,-1.0125,-1.0038,-1.0038,-1.006,-1.0216,-1.0423,-1.0631,-1.0745,-1.0745,-1.0948,-1.1099,-1.1194,-1.1194,-1.1194,-1.1194,-1.1194,-1.1482,-1.196,-1.196,-1.2349,-2.2206,-2.0908,-2.1167,-2.0816,-2.3366,-2.6063,-2.6651,-2.8666,-3.0689,-3.1842,-3.3108,-3.4407,-3.5684,-3.6402,-3.7032,-3.7711,-3.8503,-3.9475,-4.0728,-4.1237,-4.1648,-4.2032,-4.1818,-4.1659,-4.1791,-4.1113,-4.0691,-4.07,-4.0641,-4.0621,-4.0695,-4.0138,-3.9142,-3.7689,-3.6573,-3.5178,-3.3521,-3.1769,-3.0076,-2.8427,-2.6561,-2.5274,-2.4409,-2.3316,-2.2274,-2.1451,-2.1451,-2.0527,-1.9134,-1.9134,-1.8567,-1.7658,-1.6706,-1.6131,-1.5621,-1.4727,-1.4243,-1.4088,-1.4088,-1.4088,-1.4088,-1.4088,-1.4004,-1.3913,-1.3913,-1.3568,-1.3222,-1.3392,-1.3307,-1.3058,-1.3076,-1.2894,-1.2705,-1.2705,-1.2705,-1.2705,-1.2705,-1.2705,-1.2705,-1.2705,-1.2613,-1.2534,-1.2534,-1.2357,-1.2272,-1.2272,-1.2272,-1.1923,-1.1063,-1.0885,-1.0631,-0.9946,-0.9859,-0.9864,-0.9951,-1.0038,-1.0031,-1.0211,-1.0414,-1.0542,-1.057,-1.0749,-1.0943,-1.1146,-1.1151,-1.1165,-1.1194,-1.1194,-1.1198,-1.11,-1.1194,-1.1198,-3.6946,-3.6194,-3.4606,-3.1023,-2.9902,-3.0277,-3.2638,-3.3126,-3.3386,-3.4542,-3.515,-3.5667,-3.6357,-3.7113,-3.7676,-3.7798,-3.8807,-3.9882,-4.075,-4.1237,-4.1516,-4.1604,-4.1604,-4.1502,-4.1315,-4.095,-4.071,-4.0694,-4.0634,-4.064,-4.0694,-4.0134,-3.9307,-3.8218,-3.6761,-3.5178,-3.3521,-3.1769,-3.0015,-2.8247,-2.6493,-2.4897,-2.3368,-2.2424,-2.1145,-1.9687,-1.9687,-1.9125,-1.8158,-1.8158,-1.8078,-1.7836,-1.6535,-1.6041,-1.5794,-1.4573,-1.4166,-1.4088,-1.4088,-1.4088,-1.4088,-1.4088,-1.3568,-1.2875,-1.2875,-1.2015,-1.1235,-1.2015,-1.2705,-1.3058,-1.2796,-1.2705,-1.2705,-1.2705,-1.2705,-1.2705,-1.2705,-1.2705,-1.2705,-1.2705,-1.21,-1.1499,-1.1499,-1.088,-1.0356,-1.0356,-1.0183,-0.984,-0.9327,-0.9052,-0.8965,-0.9065,-0.9065,-0.9331,-0.9951,-1.0038,-1.0052,-0.9998,-1.0201,-1.0395,-1.0565,-1.0608,-1.0721,-1.0938,-1.0943,-1.1023,-1.1194,-1.1194,-1.1096,-1.09,-1.1096,-1.1096,-4.0266,-3.9799,-3.8658,-3.6417,-3.4933,-3.4397,-3.5788,-3.5555,-3.529,-3.6121,-3.6155,-3.619,-3.6568,-3.6963,-3.7443,-3.8114,-3.9444,-4.0533,-4.1157,-4.1622,-4.199,-4.2257,-4.2482,-4.2506,-4.2257,-4.1678,-4.1351,-4.1357,-4.0882,-4.0633,-4.07,-3.9969,-3.9019,-3.7904,-3.6435,-3.4848,-3.3072,-3.1615,-3.0076,-2.8363,-2.6561,-2.4897,-2.3294,-2.2274,-2.0914,-1.9301,-1.9301,-1.8567,-1.7261,-1.7261,-1.6944,-1.6386,-1.5553,-1.522,-1.5054,-1.4328,-1.3743,-1.3398,-1.3913,-1.3483,-1.2705,-1.3222,-1.2705,-1.1929,-1.1832,-1.1235,-1.0631,-1.0971,-1.158,-1.21,-1.2015,-1.1929,-1.1837,-1.1311,-1.1225,-1.1225,-1.1225,-1.1225,-1.1225,-1.1225,-1.088,-1.0534,-1.0534,-1.0188,-0.9836,-0.9753,-0.9666,-0.9405,-0.8794,-0.8615,-0.844,-0.836,-0.8273,-0.8623,-0.9331,-0.9419,-0.9598,-0.9951,-0.9684,-0.983,-1.0405,-1.004,-1.0136,-1.0716,-1.0721,-1.0768,-1.0858,-1.0976,-1.0936,-1.0651,-1.0854,-1.0801,-4.0407,-4.0031,-3.9547,-3.9146,-3.8103,-3.7185,-3.7394,-3.6935,-3.6568,-3.6948,-3.669,-3.6496,-3.6887,-3.72,-3.7793,-3.895,-4.0112,-4.1012,-4.1328,-4.1735,-4.2198,-4.2673,-4.3105,-4.3281,-4.3109,-4.2589,-4.2253,-4.2207,-4.1435,-4.0969,-4.0972,-3.9888,-3.8804,-3.7703,-3.6098,-3.4488,-3.2908,-3.1474,-2.9954,-2.8492,-2.6413,-2.4756,-2.3441,-2.2124,-2.0692,-1.9301,-1.9054,-1.8158,-1.6698,-1.646,-1.5899,-1.509,-1.4824,-1.4566,-1.4321,-1.4166,-1.3652,-1.3137,-1.3568,-1.279,-1.1671,-1.2186,-1.1757,-1.089,-1.0702,-1.0361,-0.9937,-0.9927,-1.0274,-1.0717,-1.089,-1.0971,-1.0799,-1.0096,-0.9923,-0.9923,-0.9923,-0.9923,-0.9923,-0.9923,-0.9749,-0.9575,-0.9488,-0.9314,-0.9139,-0.8882,-0.8794,-0.8619,-0.8002,-0.7914,-0.7742,-0.757,-0.757,-0.7834,-0.854,-0.8803,-0.9157,-0.9685,-0.9331,-0.949,-1.0192,-0.9651,-0.9745,-1.0499,-1.0504,-1.0527,-1.0482,-1.0646,-1.0536,-1.0256,-1.0545,-1.0533,-4.0681,-4.011,-3.9375,-3.9229,-3.8405,-3.7631,-3.7613,-3.7241,-3.6948,-3.697,-3.6829,-3.6869,-3.7607,-3.8703,-3.9779,-4.0578,-4.0802,-4.0935,-4.0918,-4.1283,-4.1735,-4.2198,-4.2673,-4.2972,-4.3109,-4.3221,-4.3247,-4.3109,-4.2403,-4.1933,-4.183,-4.0172,-3.8916,-3.8263,-3.5969,-3.4319,-3.3443,-3.1287,-2.9662,-2.8492,-2.5815,-2.4232,-2.3441,-2.1527,-2.0167,-1.9222,-1.8399,-1.7594,-1.6617,-1.5824,-1.534,-1.509,-1.4824,-1.4496,-1.4088,-1.4088,-1.4088,-1.3913,-1.3052,-1.2705,-1.2448,-1.1671,-1.0809,-0.9941,-0.9758,-0.8982,-0.8201,-0.8803,-0.889,-0.889,-0.9749,-1.0009,-1.0009,-0.9923,-0.9923,-0.9923,-0.9923,-0.9923,-0.9923,-0.9923,-0.9231,-0.854,-0.8356,-0.7577,-0.6966,-0.6694,-0.6432,-0.6346,-0.6257,-0.6083,-0.6169,-0.6779,-0.6868,-0.7129,-0.7834,-0.8536,-0.889,-0.8978,-0.9598,-0.9956,-1.0062,-0.9975,-1.0074,-1.0291,-1.0296,-1.0295,-1.0204,-1.0218,-1.0041,-0.9588,-0.9953,-1.004,-4.0662,-4.0396,-3.9983,-3.9754,-3.8976,-3.8077,-3.7321,-3.7052,-3.6856,-3.6632,-3.6527,-3.6686,-3.7465,-3.8363,-3.934,-4.0418,-4.0776,-4.1088,-4.1622,-4.1833,-4.2126,-4.2573,-4.3032,-4.3431,-4.3868,-4.3605,-4.3342,-4.3206,-4.2564,-4.1873,-4.1187,-4.0108,-3.9147,-3.8324,-3.6103,-3.4235,-3.2819,-3.1058,-2.9108,-2.6925,-2.5783,-2.4387,-2.2787,-2.1201,-1.9816,-1.8407,-1.7594,-1.6706,-1.5906,-1.5506,-1.5347,-1.5257,-1.4824,-1.4489,-1.4088,-1.4088,-1.3704,-1.3237,-1.3464,-1.2443,-1.0982,-1.1052,-1.0106,-0.8811,-0.8372,-0.8028,-0.768,-0.7757,-0.7665,-0.7841,-0.8798,-0.9061,-0.8886,-0.8273,-0.8185,-0.8185,-0.8185,-0.8185,-0.8185,-0.8185,-0.7837,-0.7577,-0.7404,-0.7054,-0.6704,-0.6257,-0.6169,-0.5997,-0.5908,-0.5733,-0.5819,-0.6083,-0.6517,-0.6864,-0.7129,-0.7834,-0.8448,-0.889,-0.9157,-0.951,-0.9951,-0.9598,-0.9547,-1.0074,-0.9986,-0.9846,-0.983,-0.9863,-0.9648,-0.9292,-0.9571,-0.9566,-4.0591,-4.0545,-4.037,-4.0149,-3.9458,-3.8578,-3.7631,-3.7135,-3.6821,-3.6574,-3.6765,-3.7068,-3.7422,-3.8446,-3.9433,-4.0097,-4.0585,-4.1088,-4.1709,-4.1912,-4.2139,-4.2613,-4.2814,-4.3192,-4.3905,-4.3434,-4.3119,-4.3187,-4.261,-4.1911,-4.1217,-4.0166,-3.9201,-3.8398,-3.6011,-3.4005,-3.2387,-3.0791,-2.8434,-2.5341,-2.5037,-2.3864,-2.1826,-2.041,-1.9061,-1.7917,-1.705,-1.639,-1.5764,-1.5492,-1.534,-1.5159,-1.4657,-1.4328,-1.4088,-1.4088,-1.3704,-1.3231,-1.3548,-1.2363,-1.0809,-1.0707,-0.9753,-0.8544,-0.7856,-0.7591,-0.7415,-0.7143,-0.7139,-0.7228,-0.7929,-0.8017,-0.7929,-0.7228,-0.7139,-0.7139,-0.7139,-0.7139,-0.7139,-0.7139,-0.7054,-0.6966,-0.67,-0.6615,-0.6438,-0.5997,-0.5997,-0.5908,-0.5733,-0.5733,-0.5733,-0.5733,-0.6169,-0.6428,-0.6428,-0.7132,-0.7658,-0.8185,-0.8273,-0.8803,-0.9951,-0.9423,-0.9336,-0.9864,-0.9607,-0.9432,-0.9345,-0.9385,-0.9272,-0.9012,-0.9196,-0.9196,-4.0552,-4.0555,-4.0468,-4.0331,-3.9812,-3.9154,-3.8626,-3.7666,-3.69,-3.69,-3.7706,-3.8219,-3.7611,-3.9244,-4.047,-3.9819,-4.0336,-4.0853,-4.0853,-4.1224,-4.1649,-4.2092,-4.1815,-4.2008,-4.2988,-4.2667,-4.2619,-4.3143,-4.2627,-4.2265,-4.2197,-4.0372,-3.9072,-3.851,-3.5547,-3.3477,-3.2387,-3.0519,-2.763,-2.3902,-2.3496,-2.2366,-2.0747,-1.8852,-1.7974,-1.7908,-1.7105,-1.6718,-1.6653,-1.5771,-1.5151,-1.4622,-1.4243,-1.4088,-1.4088,-1.4088,-1.4088,-1.3913,-1.3052,-1.2705,-1.2363,-1.0463,-0.9763,-0.941,-0.8201,-0.768,-0.7415,-0.7143,-0.7139,-0.7139,-0.7139,-0.7139,-0.7139,-0.7139,-0.7139,-0.7139,-0.7139,-0.7139,-0.7139,-0.7139,-0.6966,-0.6704,-0.6432,-0.6257,-0.5994,-0.5733,-0.5733,-0.5733,-0.5733,-0.5733,-0.5733,-0.5733,-0.5733,-0.5733,-0.5733,-0.6343,-0.6779,-0.6779,-0.6949,-0.7918,-0.9864,-0.9689,-0.9602,-0.9602,-0.9432,-0.9174,-0.8911,-0.8911,-0.8828,-0.8572,-0.8739,-0.882,-4.0448,-4.0644,-4.0731,-4.0507,-4.0149,-3.9743,-3.9308,-3.8237,-3.7152,-3.6597,-3.6748,-3.7034,-3.7422,-3.8043,-3.8666,-3.9294,-3.9336,-3.9403,-3.9739,-4.0088,-4.0375,-4.0565,-4.098,-4.1442,-4.194,-4.1991,-4.1977,-4.2002,-4.1975,-4.1752,-4.1318,-4.0461,-3.9238,-3.7558,-3.5694,-3.3443,-3.0757,-2.893,-2.6362,-2.2974,-2.1504,-2.0275,-1.9215,-1.7751,-1.7074,-1.7017,-1.6183,-1.5764,-1.5764,-1.5492,-1.4797,-1.3769,-1.3611,-1.3034,-1.2192,-1.2894,-1.2735,-1.2221,-1.254,-1.1843,-1.0549,-0.9671,-0.8982,-0.8285,-0.7584,-0.7319,-0.7231,-0.7139,-0.7139,-0.7139,-0.7139,-0.7139,-0.7139,-0.7139,-0.7139,-0.7139,-0.7139,-0.7139,-0.7139,-0.7139,-0.6966,-0.6704,-0.6432,-0.6257,-0.5994,-0.5733,-0.5733,-0.5733,-0.5733,-0.5733,-0.5733,-0.5733,-0.5733,-0.5733,-0.5733,-0.5908,-0.6257,-0.6779,-0.6511,-0.6861,-0.7918,-0.8185,-0.8364,-0.8364,-0.8815,-0.8999,-0.8911,-0.874,-0.8652,-0.8568,-0.8617,-0.8641,-4.0431,-4.0698,-4.0857,-4.0704,-4.0386,-3.9929,-3.9264,-3.8287,-3.7266,-3.6451,-3.65,-3.6775,-3.6991,-3.7464,-3.8018,-3.8502,-3.8608,-3.8684,-3.8981,-3.9373,-3.9656,-3.9882,-4.0041,-4.0394,-4.0948,-4.0756,-4.0674,-4.0916,-4.1119,-4.1123,-4.0916,-4.0268,-3.9241,-3.7772,-3.5771,-3.3329,-3.0578,-2.8444,-2.5595,-2.2083,-2.0554,-1.8955,-1.7432,-1.6542,-1.6139,-1.6139,-1.5673,-1.5195,-1.4881,-1.4783,-1.3972,-1.285,-1.2751,-1.2175,-1.1327,-1.194,-1.178,-1.1354,-1.1935,-1.1408,-1.0376,-0.9676,-0.8982,-0.8285,-0.7584,-0.7231,-0.7139,-0.7139,-0.7139,-0.7139,-0.7139,-0.7139,-0.7139,-0.7139,-0.7139,-0.7054,-0.6966,-0.6966,-0.6966,-0.6874,-0.67,-0.6438,-0.6346,-0.6083,-0.5908,-0.5733,-0.5733,-0.5733,-0.5733,-0.5733,-0.5733,-0.5733,-0.5733,-0.5644,-0.546,-0.546,-0.5547,-0.5805,-0.5361,-0.527,-0.5711,-0.6596,-0.7302,-0.7658,-0.8021,-0.838,-0.874,-0.8652,-0.8568,-0.8568,-0.8568,-0.8568,-4.0419,-4.0684,-4.0876,-4.0908,-4.0486,-3.9795,-3.8766,-3.7993,-3.7266,-3.6533,-3.6827,-3.7076,-3.6439,-3.7369,-3.803,-3.7491,-3.7939,-3.8377,-3.8391,-3.8805,-3.9238,-3.9586,-3.8995,-3.8954,-3.9944,-3.9192,-3.9013,-3.9948,-4.013,-4.0416,-4.0877,-3.9916,-3.9084,-3.847,-3.5749,-3.3271,-3.114,-2.8461,-2.5093,-2.1192,-1.9995,-1.7992,-1.5484,-1.5333,-1.5257,-1.5166,-1.5166,-1.4699,-1.3913,-1.3717,-1.2936,-1.183,-1.164,-1.1354,-1.1068,-1.1154,-1.1149,-1.1068,-1.1149,-1.1063,-1.089,-1.0028,-0.9414,-0.889,-0.8113,-0.7496,-0.7139,-0.7139,-0.7139,-0.7139,-0.7139,-0.7139,-0.7139,-0.7139,-0.7139,-0.7054,-0.6881,-0.6795,-0.6704,-0.652,-0.6257,-0.6083,-0.6083,-0.5911,-0.5733,-0.5733,-0.5733,-0.5733,-0.5733,-0.5733,-0.5733,-0.5733,-0.5644,-0.5463,-0.501,-0.4921,-0.4743,-0.43,-0.3853,-0.3587,-0.3587,-0.5095,-0.6334,-0.7224,-0.7139,-0.7584,-0.8476,-0.8568,-0.8568,-0.8568,-0.8568,-0.8568,-4.0169,-4.0537,-4.0773,-4.0876,-4.0346,-3.961,-3.8965,-3.8132,-3.7358,-3.686,-3.6881,-3.6847,-3.636,-3.6534,-3.6706,-3.6577,-3.668,-3.6801,-3.6775,-3.7143,-3.7439,-3.751,-3.768,-3.7846,-3.8097,-3.8176,-3.8534,-3.9265,-3.9437,-3.9919,-4.0852,-4.0187,-3.8775,-3.6567,-3.5515,-3.308,-2.9177,-2.6164,-2.3349,-2.0741,-1.7578,-1.5389,-1.4126,-1.4307,-1.3964,-1.3275,-1.3275,-1.3197,-1.2954,-1.2693,-1.1929,-1.0911,-1.0722,-1.0028,-0.9257,-0.9946,-0.9777,-0.9257,-0.9946,-0.9593,-0.8811,-0.8464,-0.8116,-0.7764,-0.7408,-0.7231,-0.7139,-0.7139,-0.7139,-0.7139,-0.7139,-0.7139,-0.7139,-0.7139,-0.7139,-0.7051,-0.7054,-0.6881,-0.6795,-0.6704,-0.6349,-0.6083,-0.6083,-0.5911,-0.5733,-0.5733,-0.5733,-0.5733,-0.5733,-0.5733,-0.5733,-0.5733,-0.5371,-0.5099,-0.501,-0.4654,-0.4387,-0.43,-0.3853,-0.3587,-0.3587,-0.4297,-0.4741,-0.5008,-0.634,-0.7231,-0.7408,-0.8208,-0.8568,-0.8568,-0.8568,-0.8568,-4.0032,-4.0372,-4.0634,-4.076,-4.0441,-3.9991,-3.957,-3.8902,-3.8235,-3.7753,-3.7117,-3.6557,-3.6343,-3.6301,-3.6301,-3.6301,-3.6155,-3.6121,-3.6284,-3.6336,-3.651,-3.6884,-3.6926,-3.7157,-3.7739,-3.7613,-3.7889,-3.8748,-3.8875,-3.9169,-3.9726,-3.9637,-3.8851,-3.7276,-3.5777,-3.299,-2.8813,-2.5536,-2.2174,-1.8792,-1.6401,-1.4497,-1.2857,-1.3281,-1.319,-1.2674,-1.2674,-1.2419,-1.1997,-1.174,-1.0971,-0.9946,-0.968,-0.9165,-0.8652,-0.9082,-0.8999,-0.8656,-0.9087,-0.8815,-0.8201,-0.8113,-0.7768,-0.7507,-0.7323,-0.7231,-0.7139,-0.7139,-0.7139,-0.7139,-0.7139,-0.7139,-0.7139,-0.7139,-0.7139,-0.7051,-0.6786,-0.67,-0.6526,-0.6352,-0.6086,-0.5908,-0.5908,-0.5822,-0.5733,-0.5733,-0.5733,-0.5733,-0.5733,-0.5733,-0.5733,-0.5733,-0.528,-0.4921,-0.4654,-0.421,-0.3853,-0.3676,-0.3409,-0.323,-0.323,-0.3497,-0.3855,-0.43,-0.5275,-0.5985,-0.6432,-0.6962,-0.7231,-0.7231,-0.7231,-0.7408,-3.9776,-4.0146,-4.0469,-4.0659,-4.0579,-4.0402,-4.0181,-3.9697,-3.9133,-3.8691,-3.7542,-3.6557,-3.6409,-3.6409,-3.6367,-3.6241,-3.6027,-3.5933,-3.6088,-3.6002,-3.6036,-3.6388,-3.6216,-3.6457,-3.7434,-3.6872,-3.6879,-3.7947,-3.7911,-3.7942,-3.8238,-3.8694,-3.7831,-3.5391,-3.4586,-3.1472,-2.5767,-2.3755,-2.0652,-1.6597,-1.5367,-1.3749,-1.1671,-1.2083,-1.2248,-1.2248,-1.2248,-1.1826,-1.1068,-1.0809,-1.012,-0.9262,-0.8999,-0.874,-0.8568,-0.8568,-0.8568,-0.8568,-0.8568,-0.8384,-0.8201,-0.8201,-0.7852,-0.7507,-0.7415,-0.7234,-0.7051,-0.6874,-0.6962,-0.7051,-0.6874,-0.6962,-0.7139,-0.7139,-0.7139,-0.6962,-0.652,-0.6432,-0.6254,-0.5819,-0.5733,-0.5733,-0.5733,-0.5733,-0.5733,-0.5733,-0.5733,-0.5733,-0.5733,-0.5733,-0.5644,-0.5552,-0.5191,-0.4654,-0.421,-0.3765,-0.332,-0.2964,-0.2875,-0.2875,-0.2875,-0.2875,-0.323,-0.4032,-0.421,-0.4654,-0.5453,-0.563,-0.5719,-0.5719,-0.5719,-0.6074,-3.9195,-3.9719,-4.023,-4.0606,-4.0519,-4.0325,-4.0276,-3.9675,-3.9129,-3.9032,-3.8412,-3.765,-3.6939,-3.6821,-3.662,-3.5985,-3.6054,-3.6045,-3.5425,-3.5878,-3.5827,-3.4775,-3.4921,-3.5152,-3.5301,-3.4751,-3.4903,-3.6155,-3.5555,-3.5758,-3.7213,-3.7743,-3.2992,-2.2052,-2.8239,-2.5457,-1.2321,-1.6136,-1.7288,-1.5665,-1.2693,-1.0885,-1.0299,-1.0294,-1.0381,-1.0381,-1.0381,-1.0294,-1.0125,-0.9689,-0.9432,-0.9262,-0.8828,-0.8656,-0.8568,-0.8568,-0.8568,-0.8568,-0.8568,-0.8384,-0.8201,-0.8028,-0.7768,-0.7415,-0.7231,-0.7139,-0.6962,-0.6074,-0.6428,-0.6874,-0.6074,-0.652,-0.7139,-0.7139,-0.7139,-0.7054,-0.6792,-0.6523,-0.6343,-0.6083,-0.5819,-0.5733,-0.5733,-0.5733,-0.5733,-0.5733,-0.5733,-0.5733,-0.5733,-0.5733,-0.5552,-0.5099,-0.4654,-0.421,-0.3765,-0.323,-0.2963,-0.2875,-0.2875,-0.2875,-0.2875,-0.2875,-0.2963,-0.3053,-0.3855,-0.4387,-0.4476,-0.5277,-0.5719,-0.5719,-0.5719,-0.5808,-3.8652,-3.9388,-4.0096,-4.0258,-4.046,-4.0625,-4.0539,-4.0189,-3.9835,-3.9681,-3.9212,-3.8479,-3.7345,-3.7002,-3.6701,-3.6156,-3.5851,-3.5723,-3.5779,-3.5274,-3.4841,-3.466,-3.436,-3.4163,-3.4378,-3.4007,-3.4039,-3.4796,-3.3395,-3.2762,-3.3273,-3.3003,-2.8088,-1.7792,-2.0331,-1.7825,-0.9289,-0.8796,-0.934,-1.0704,-0.9316,-0.9305,-1.0517,-1.0139,-1.0038,-1.0038,-1.0038,-0.9951,-0.9777,-0.9432,-0.9174,-0.9087,-0.874,-0.8568,-0.8568,-0.8568,-0.8568,-0.8568,-0.8568,-0.8384,-0.8028,-0.794,-0.7588,-0.7234,-0.7143,-0.6697,-0.6251,-0.5808,-0.5985,-0.6251,-0.5808,-0.6428,-0.7051,-0.6969,-0.6969,-0.6877,-0.6526,-0.6435,-0.6254,-0.5908,-0.5822,-0.5733,-0.5733,-0.5733,-0.5733,-0.5733,-0.5733,-0.5644,-0.5371,-0.5282,-0.5102,-0.4654,-0.421,-0.3855,-0.3587,-0.3142,-0.2875,-0.2875,-0.2875,-0.2875,-0.2875,-0.2875,-0.2875,-0.2875,-0.332,-0.3497,-0.3497,-0.3942,-0.4121,-0.4121,-0.4121,-0.4387,-3.8049,-3.8737,-3.938,-3.9661,-4.0097,-4.0501,-4.0555,-4.0542,-4.0461,-4.0293,-3.9915,-3.9248,-3.8077,-3.7435,-3.6921,-3.6392,-3.5851,-3.5542,-3.5644,-3.4775,-3.3969,-3.3761,-3.3244,-3.2897,-3.2958,-3.2191,-3.1905,-3.2419,-3.0452,-2.9227,-2.9157,-2.8642,-2.3226,-1.1963,-1.2767,-1.0471,-0.4364,-0.3691,-0.4428,-0.6412,-0.6783,-0.8241,-1.0639,-0.997,-0.9689,-0.9607,-0.9689,-0.951,-0.9248,-0.8811,-0.864,-0.8556,-0.8296,-0.8388,-0.8568,-0.8568,-0.8568,-0.8568,-0.8564,-0.8296,-0.794,-0.7856,-0.7499,-0.7231,-0.7139,-0.6609,-0.5985,-0.545,-0.5539,-0.563,-0.5361,-0.5983,-0.6697,-0.6792,-0.6704,-0.6615,-0.6171,-0.6169,-0.608,-0.5733,-0.5735,-0.5738,-0.5738,-0.5738,-0.5738,-0.5738,-0.5735,-0.5552,-0.5191,-0.5099,-0.4832,-0.4387,-0.3855,-0.3588,-0.3409,-0.3142,-0.2875,-0.2875,-0.2875,-0.2875,-0.2875,-0.2875,-0.2875,-0.2875,-0.2875,-0.2875,-0.2875,-0.2875,-0.2875,-0.2875,-0.2875,-0.323,-3.7345,-3.7486,-3.7772,-3.871,-3.9176,-3.9526,-4.0092,-4.0422,-4.0605,-4.0654,-4.0395,-4.003,-3.9566,-3.842,-3.7323,-3.6504,-3.6308,-3.5688,-3.412,-3.4479,-3.379,-3.0968,-3.0954,-3.0894,-3.0293,-2.8102,-2.715,-2.814,-2.5987,-2.5037,-2.6009,-2.6668,-1.8408,0.0368,-0.639,-0.4356,0.8136,-0.2196,-0.6602,-0.4755,-0.5883,-0.772,-1.0022,-0.9262,-0.8819,-0.858,-0.8815,-0.8711,-0.8181,-0.7305,-0.7221,-0.7577,-0.7316,-0.7764,-0.8568,-0.8568,-0.8568,-0.8564,-0.8292,-0.8201,-0.8113,-0.768,-0.7507,-0.7415,-0.7143,-0.7051,-0.6694,-0.4912,-0.5003,-0.545,-0.4645,-0.4912,-0.5716,-0.6612,-0.6612,-0.6343,-0.6171,-0.5908,-0.5733,-0.5733,-0.5741,-0.5657,-0.5657,-0.5657,-0.5657,-0.5657,-0.5738,-0.5733,-0.5644,-0.528,-0.4832,-0.4387,-0.3855,-0.3409,-0.2963,-0.2875,-0.2875,-0.2875,-0.2875,-0.2875,-0.2875,-0.2875,-0.2875,-0.2875,-0.2875,-0.2875,-0.2875,-0.2875,-0.2875,-0.2875,-0.2875,-0.2964,-3.6711,-3.7049,-3.7504,-3.7838,-3.8433,-3.9048,-3.9509,-3.9965,-4.0349,-4.0631,-4.05,-4.0273,-4.0082,-3.8884,-3.7718,-3.7145,-3.5891,-3.4922,-3.4526,-3.3061,-3.1359,-2.9655,-2.859,-2.7575,-2.6424,-2.5549,-2.4494,-2.3077,-2.0843,-1.8986,-1.7571,-1.8172,-1.297,-0.0802,0.0221,0.4192,1.1814,0.3245,-0.1591,-0.2612,-0.5444,-0.8154,-1.0552,-0.9883,-0.9515,-0.9437,-0.8277,-0.7566,-0.7305,-0.6953,-0.6602,-0.6428,-0.6874,-0.7319,-0.7676,-0.8388,-0.8568,-0.8564,-0.8292,-0.8113,-0.794,-0.7591,-0.7415,-0.7231,-0.7139,-0.6697,-0.6074,-0.5361,-0.5003,-0.4825,-0.5092,-0.5361,-0.5719,-0.6432,-0.626,-0.5905,-0.5819,-0.5733,-0.5733,-0.5733,-0.5741,-0.5657,-0.5738,-0.5018,-0.475,-0.5557,-0.5735,-0.5466,-0.4837,-0.4656,-0.43,-0.3499,-0.323,-0.3053,-0.2875,-0.2875,-0.2875,-0.2875,-0.2875,-0.2875,-0.2875,-0.2875,-0.2875,-0.2875,-0.2875,-0.2875,-0.2875,-0.2875,-0.2875,-0.2875,-0.2875,-0.2875,-3.5924,-3.6288,-3.6784,-3.6826,-3.743,-3.8232,-3.8808,-3.9368,-3.9868,-4.0248,-4.0396,-4.042,-4.0313,-3.9394,-3.8483,-3.7966,-3.6374,-3.5069,-3.4712,-3.2165,-2.9599,-2.7414,-2.554,-2.3728,-2.1974,-2.1343,-2.0323,-1.8462,-1.6309,-1.4226,-1.241,-1.2242,-0.8817,-0.1514,0.4069,0.7959,1.0094,0.5164,0.0819,-0.2783,-0.6285,-0.8905,-1.0619,-1.0554,-1.0197,-0.9437,-0.7925,-0.7037,-0.6599,-0.598,-0.5539,-0.5364,-0.6251,-0.6786,-0.7228,-0.8208,-0.8568,-0.8564,-0.8292,-0.8025,-0.7856,-0.7595,-0.7323,-0.7139,-0.7139,-0.6697,-0.6074,-0.5808,-0.5272,-0.4914,-0.5542,-0.5808,-0.5985,-0.6254,-0.5994,-0.5733,-0.5733,-0.5733,-0.5733,-0.5733,-0.5741,-0.5565,-0.5104,-0.4746,-0.4748,-0.5557,-0.5555,-0.5282,-0.4654,-0.43,-0.3855,-0.3232,-0.2963,-0.2875,-0.2875,-0.2875,-0.2875,-0.2875,-0.2875,-0.2875,-0.2875,-0.2875,-0.2875,-0.2875,-0.2875,-0.2875,-0.2875,-0.2875,-0.2875,-0.2875,-0.2875,-0.2875,0.0,0.0,0.0,-3.5525,-3.6167,-3.6978,-3.7884,-3.8561,-3.91,-3.9461,-4.0024,-4.0386,-4.0299,-3.9956,-3.9486,-3.8912,-3.7784,-3.6331,-3.4542,-3.1919,-2.8644,-2.4329,-2.1925,-1.9593,-1.6998,-1.5545,-1.4648,-1.4424,-1.2306,-1.1033,-1.0895,-0.951,-0.6194,-0.0737,0.4861,0.6387,0.3529,0.2927,-0.0162,-0.5675,-0.8539,-1.0042,-1.0222,-1.1273,-1.059,-0.8664,-0.7933,-0.7214,-0.6325,-0.4474,-0.3942,-0.4476,-0.5364,-0.634,-0.7228,-0.8208,-0.8568,-0.8564,-0.8292,-0.8028,-0.7856,-0.7595,-0.7323,-0.7139,-0.7139,-0.7139,-0.6874,-0.5985,-0.5719,-0.5719,-0.5719,-0.6074,-0.6343,-0.6171,-0.5908,-0.5733,-0.5733,-0.5733,-0.5733,-0.5733,-0.5741,-0.5295,-0.4028,-0.4842,-0.5657,-0.5657,-0.5287,-0.501,-0.5008,-0.421,-0.3587,-0.3587,-0.3142,-0.2875,-0.2875,-0.2875,-0.2875,-0.2875,-0.2875,-0.2875,-0.2875,-0.2875,-0.2875,-0.2875,-0.2875,-0.2875,-0.2875,-0.2875,-0.2875,-0.2875,-0.2875,-0.2875,-3.4833,0.0,0.0,0.0,0.0,0.0,-3.5942,-3.638,-3.7019,-3.8127,-3.852,-3.8867,-3.9704,-3.9655,-3.9484,-3.953,-3.8029,-3.6576,-3.5833,-3.2026,-2.8384,-2.5951,-2.2774,-1.9319,-1.5771,-1.505,-1.3095,-0.8954,-0.8064,-0.6657,-0.4271,-0.7527,-0.7837,-0.4502,0.3032,0.4341,-0.1225,0.2404,-0.162,-1.3181,-1.5109,-1.5836,-1.536,-1.458,-1.362,-1.2383,-1.123,-0.9861,-0.8249,-0.6419,-0.5542,-0.5364,-0.634,-0.6874,-0.7228,-0.8208,-0.8476,-0.8292,-0.8201,-0.794,-0.7595,-0.7507,-0.7323,-0.7139,-0.7139,-0.7139,-0.7051,-0.6786,-0.6254,-0.5719,-0.5719,-0.6074,-0.6428,-0.6343,-0.5994,-0.5733,-0.5733,-0.5733,-0.5733,-0.5733,-0.5741,-0.5565,-0.5196,-0.5471,-0.5744,-0.5738,-0.5282,-0.4921,-0.4565,-0.3942,-0.3499,-0.3142,-0.2963,-0.2875,-0.2875,-0.2875,-0.2875,-0.2875,-0.2875,-0.2875,-0.2875,-0.2875,-0.2875,-0.2875,-0.2875,-0.2875,-0.2875,-0.2875,-0.2875,-0.2875,-0.2875,-0.2875,-3.4252,-3.407,-3.3935,-3.3716,0.0,0.0,-3.5178,-3.5557,-3.6133,-3.7286,-3.7699,-3.8044,-3.8733,-3.8878,-3.8946,-3.9108,-3.8088,-3.7173,-3.6915,-3.3532,-2.969,-2.6039,-2.2905,-1.8629,-1.26,-1.2438,-1.0679,-0.5835,-0.5476,-0.4768,-0.3194,-0.7523,-1.0308,-1.0797,-0.4336,-0.4805,-1.3048,-0.6151,-0.8573,-2.0193,-2.032,-1.9915,-1.8907,-1.7742,-1.6184,-1.4428,-1.3161,-1.1753,-1.026,-0.9126,-0.7471,-0.5808,-0.6697,-0.7139,-0.7228,-0.8208,-0.8476,-0.838,-0.838,-0.8032,-0.768,-0.768,-0.7411,-0.7139,-0.7139,-0.7139,-0.7139,-0.7139,-0.6697,-0.6251,-0.6166,-0.6254,-0.6343,-0.6257,-0.5994,-0.5733,-0.5733,-0.5733,-0.5733,-0.5733,-0.5738,-0.5741,-0.5735,-0.5738,-0.5741,-0.5735,-0.5102,-0.4565,-0.4297,-0.3676,-0.3232,-0.2964,-0.2875,-0.2875,-0.2875,-0.2875,-0.2875,-0.2875,-0.2875,-0.2875,-0.2875,-0.2875,-0.2875,-0.2875,-0.2875,-0.2875,-0.2875,-0.2875,-0.2875,-0.2875,-0.2875,-0.2875,-3.3495,-3.3511,-3.3665,-3.313,-3.3339,0.0,-3.4731,-3.5076,-3.5436,-3.6278,-3.6834,-3.7166,-3.7216,-3.7434,-3.7627,-3.7641,-3.7581,-3.7558,-3.7647,-3.5389,-3.1186,-2.4251,-2.141,-1.6681,-0.8196,-0.7887,-0.7184,-0.4816,-0.4556,-0.4972,-0.604,-0.937,-1.3447,-1.8136,-1.4006,-1.66,-2.6895,-1.819,-1.7851,-2.5897,-2.446,-2.2984,-2.1603,-2.0696,-1.8747,-1.5843,-1.4903,-1.371,-1.2583,-1.231,-0.9885,-0.6422,-0.7221,-0.7577,-0.7665,-0.8556,-0.8911,-0.8911,-0.8911,-0.856,-0.8201,-0.8204,-0.7848,-0.7401,-0.7316,-0.7228,-0.7228,-0.7139,-0.7139,-0.7054,-0.6881,-0.6612,-0.6343,-0.6169,-0.5908,-0.5733,-0.5733,-0.5733,-0.5733,-0.5733,-0.5733,-0.5733,-0.5733,-0.5733,-0.5733,-0.5733,-0.4926,-0.43,-0.43,-0.3499,-0.2875,-0.2875,-0.2875,-0.2875,-0.2875,-0.2875,-0.2875,-0.2875,-0.2875,-0.2875,-0.2875,-0.2875,-0.2875,-0.2875,-0.2875,-0.2875,-0.2875,-0.2875,-0.2875,-0.2875,-0.2875,-0.2873,-3.3339,-3.2949,-3.2516,-3.1804,-3.169,0.0,-3.13,-3.1291,-3.1588,-3.2688,-3.2962,-3.3322,-3.4184,-3.4097,-3.4004,-3.4133,-3.4784,-3.5772,-3.7245,-3.3945,-2.7748,-1.8008,-1.3494,-0.9193,-0.4134,-0.1258,-0.1729,-0.6334,-0.6346,-0.7194,-0.9644,-1.3858,-1.7975,-2.1739,-1.638,-1.7791,-2.6914,-2.0513,-2.0613,-2.7327,-2.7666,-2.6791,-2.4776,-2.3553,-2.2126,-2.0381,-1.9956,-1.8434,-1.6207,-1.5947,-1.3567,-1.0274,-1.0453,-1.0453,-1.0539,-1.0722,-1.0631,-1.0534,-1.0717,-1.0371,-0.984,-1.0024,-0.9758,-0.9231,-0.8452,-0.8193,-0.8105,-0.7316,-0.7139,-0.7054,-0.6881,-0.6612,-0.6343,-0.6169,-0.5908,-0.5733,-0.5733,-0.5733,-0.5733,-0.5733,-0.5733,-0.5733,-0.5733,-0.5733,-0.5733,-0.5733,-0.4926,-0.43,-0.43,-0.3499,-0.2875,-0.2875,-0.2875,-0.2875,-0.2875,-0.2875,-0.2875,-0.2875,-0.2875,-0.2875,-0.2875,-0.2875,-0.2875,-0.2875,-0.2875,-0.2875,-0.2875,-0.2875,-0.2875,-0.2875,-0.2875,-0.2784,-3.2895,-3.2185,-3.1622,-3.1203,-3.0852,0.0,0.0,-3.0526,-3.0619,-3.1121,-3.1221,-3.1256,-3.1411,-3.1241,-3.1034,-3.0823,-3.1817,-3.2544,-3.2589,-3.272,-3.0053,-2.2615,-1.8512,-1.2795,-0.3906,-0.4515,-0.5912,-0.7001,-0.6753,-0.7775,-1.0483,-1.5295,-2.0295,-2.5486,-2.4015,-2.634,-3.3014,-2.9331,-2.9435,-3.3402,-3.171,-3.0221,-2.89,-2.6895,-2.4987,-2.3066,-2.2275,-2.0562,-1.8276,-1.7826,-1.6164,-1.3924,-1.2977,-1.2638,-1.2638,-1.2638,-1.2541,-1.2372,-1.2054,-1.1547,-1.1026,-1.0712,-1.0279,-0.9836,-0.9318,-0.8886,-0.8281,-0.7404,-0.7054,-0.6877,-0.67,-0.6435,-0.6169,-0.5997,-0.5822,-0.5733,-0.5733,-0.5733,-0.5733,-0.5733,-0.5733,-0.5733,-0.5733,-0.5733,-0.5644,-0.5371,-0.4746,-0.421,-0.3944,-0.332,-0.2875,-0.2875,-0.2875,-0.2875,-0.2875,-0.2875,-0.2875,-0.2875,-0.2875,-0.2875,-0.2875,-0.2875,-0.2875,-0.2875,-0.2875,-0.2875,-0.2875,-0.2875,-0.2875,-0.2875,-0.2875,-0.2784,-3.2312,-3.1507,-3.0911,-3.0674,-3.0194,-2.9836,0.0,0.0,0.0,-2.9881,-2.9798,-2.9559,-2.8738,-2.857,-2.8274,-2.7678,-2.8633,-2.8736,-2.6797,-3.0026,-3.0588,-2.5267,-2.2813,-1.6927,-0.5188,-0.8819,-1.0021,-0.5458,-0.5604,-0.7793,-1.208,-1.7201,-2.2811,-2.9122,-3.1827,-3.5131,-3.9179,-3.7695,-3.7604,-3.8893,-3.5045,-3.2787,-3.2055,-2.9766,-2.7418,-2.5105,-2.3985,-2.2285,-2.0245,-1.9752,-1.8788,-1.7326,-1.5292,-1.4455,-1.4455,-1.4455,-1.4455,-1.4289,-1.3393,-1.2808,-1.2298,-1.1397,-1.0626,-1.0183,-1.0183,-0.9492,-0.854,-0.7665,-0.7231,-0.7054,-0.652,-0.6254,-0.6083,-0.5733,-0.5733,-0.5733,-0.5733,-0.5733,-0.5733,-0.5733,-0.5733,-0.5644,-0.5552,-0.5552,-0.5371,-0.4921,-0.4478,-0.4032,-0.3676,-0.3232,-0.2875,-0.2875,-0.2875,-0.2875,-0.2875,-0.2875,-0.2875,-0.2875,-0.2875,-0.2875,-0.2875,-0.2875,-0.2875,-0.2875,-0.2875,-0.2873,-0.2784,-0.2784,-0.2873,-0.2875,-0.2873,-0.2784,-3.1788,-3.1145,-3.0674,-2.9407,-2.898,-2.8776,-2.8271,0.0,-2.8011,-2.7391,0.0,-2.7088,-2.6324,0.0,0.0,-2.4828,-2.524,-2.4795,-2.2309,-2.3201,-2.082,-1.1775,-1.214,-1.1232,-0.6528,-0.6108,-0.4102,0.0788,-0.1645,-0.7993,-1.8724,-2.3526,-2.7935,-3.2418,-3.4815,-3.7088,-3.9264,-3.8275,-3.7827,-3.7941,-3.5642,-3.3632,-3.1821,-3.0717,-2.9232,-2.7512,-2.7366,-2.5896,-2.3593,-2.352,-2.236,-2.044,-1.7471,-1.6347,-1.6347,-1.6347,-1.6347,-1.6183,-1.5108,-1.4615,-1.4196,-1.3124,-1.21,-1.1149,-1.1149,-1.0448,-0.9579,-0.8627,-0.8368,-0.8017,-0.6694,-0.6343,-0.6254,-0.5819,-0.5733,-0.5733,-0.5733,-0.5733,-0.5733,-0.5733,-0.5733,-0.5552,-0.5191,-0.5099,-0.4921,-0.4476,-0.3944,-0.3676,-0.3587,-0.3232,-0.2875,-0.2875,-0.2875,-0.2875,-0.2875,-0.2875,-0.2875,-0.2875,-0.2875,-0.2875,-0.2875,-0.2875,-0.2875,-0.2875,-0.2875,-0.2784,-0.2513,-0.2513,-0.2694,-0.2875,-0.2694,-0.2424,-3.1462,-3.0911,-3.0375,-2.8967,-2.861,-2.8481,-2.7776,-2.7629,-2.7285,-2.6212,0.0,0.0,0.0,0.0,0.0,0.0,-2.3301,-2.2886,-1.9947,-2.1039,-2.0008,-1.4494,-1.3644,-1.3176,-1.2345,-0.4044,-0.1763,-0.9153,-0.8327,-1.1492,-2.0698,-2.7107,-3.1641,-3.413,-3.6295,-3.8251,-3.9928,-3.9081,-3.8633,-3.8596,-3.6899,-3.5036,-3.3067,-3.2369,-3.0836,-2.8784,-2.8515,-2.7154,-2.5155,-2.4897,-2.3604,-2.1704,-2.043,-1.9446,-1.8709,-1.8709,-1.8479,-1.7997,-1.6355,-1.5696,-1.5184,-1.3457,-1.2534,-1.2015,-1.1494,-1.1063,-1.0534,-0.9579,-0.9235,-0.8798,-0.757,-0.7132,-0.6786,-0.5908,-0.5733,-0.5733,-0.5733,-0.5733,-0.5733,-0.5733,-0.5733,-0.5552,-0.5099,-0.501,-0.4743,-0.4032,-0.3765,-0.3497,-0.323,-0.3053,-0.2875,-0.2875,-0.2875,-0.2875,-0.2875,-0.2875,-0.2875,-0.2875,-0.2875,-0.2875,-0.2875,-0.2875,-0.2784,-0.2694,-0.2694,-0.2513,-0.2334,-0.1703,-0.1792,-0.2513,-0.2334,-0.1973,-3.1072,-3.0495,-2.9889,-2.8532,-2.8222,-2.8105,-2.759,-2.7324,-2.6837,-2.5557,-2.5134,0.0,0.0,0.0,-2.2596,-2.1435,0.0,-2.1628,-1.8707,-1.9412,-1.931,-1.6784,-1.544,-1.4118,-1.2618,-0.2667,-0.1446,-1.3889,-1.1935,-1.4287,-2.3707,-2.9502,-3.3535,-3.5804,-3.7469,-3.8963,-4.0291,-3.956,-3.9208,-3.9255,-3.7721,-3.6162,-3.4559,-3.3725,-3.2198,-3.0257,-2.9524,-2.8204,-2.6455,-2.5877,-2.453,-2.2818,-2.2818,-2.1941,-2.0702,-2.0323,-1.9923,-1.9292,-1.7261,-1.6026,-1.5108,-1.3457,-1.2875,-1.2534,-1.1929,-1.1671,-1.1494,-1.0534,-1.0101,-0.9584,-0.8181,-0.7573,-0.7139,-0.5997,-0.5733,-0.5733,-0.5733,-0.5733,-0.5733,-0.5733,-0.5733,-0.5552,-0.5099,-0.4921,-0.4565,-0.3765,-0.3499,-0.332,-0.2963,-0.2875,-0.2875,-0.2875,-0.2875,-0.2875,-0.2875,-0.2875,-0.2875,-0.2875,-0.2875,-0.2875,-0.2875,-0.2875,-0.2784,-0.2604,-0.2604,-0.2333,-0.1793,-0.1074,-0.0985,-0.1615,-0.1434,-0.1075,-3.054,-2.9766,-2.9205,-2.7842,-2.7523,-2.7523,-2.7523,-2.6956,-2.6235,-2.5453,-2.4685,-2.3884,-2.3119,-2.3001,-2.2681,-2.1552,-2.1302,0.0,0.0,-1.7422,-1.5996,-1.3697,-1.3966,-1.1175,-0.3086,-0.2145,-0.316,-0.5819,-0.7594,-1.4946,-2.9548,-3.0793,-3.3223,-3.7946,-3.8609,-3.9273,-4.0101,-3.945,-3.9229,-3.9463,-3.7781,-3.6676,-3.6084,-3.4605,-3.3323,-3.2164,-3.0955,-2.9462,-2.7762,-2.7098,-2.573,-2.4036,-2.4036,-2.3254,-2.1873,-2.0634,-2.0167,-1.9844,-1.7755,-1.5553,-1.373,-1.3652,-1.3222,-1.2705,-1.2619,-1.2619,-1.2448,-1.1494,-1.089,-1.0111,-0.8269,-0.7485,-0.6877,-0.5908,-0.5733,-0.5733,-0.5733,-0.5733,-0.5733,-0.5733,-0.5733,-0.5552,-0.5099,-0.4654,-0.4121,-0.3676,-0.3232,-0.2875,-0.2875,-0.2875,-0.2875,-0.2875,-0.2875,-0.2875,-0.2875,-0.2875,-0.2875,-0.2875,-0.2875,-0.2875,-0.2875,-0.2875,-0.2875,-0.2875,-0.2875,-0.2153,-0.0716,-0.0716,-0.0448,-0.009,0.0627,0.0448,-3.0881,-3.0644,-3.0404,-2.8597,-2.8309,-2.8292,-2.7617,-2.7311,-2.6793,-2.5522,-2.5098,-2.4476,-2.3235,-2.3001,-2.2617,-2.1451,-2.1255,-2.0459,0.0,-1.6261,-1.435,-1.2838,-1.3015,-1.2726,-1.1272,-0.9037,-1.0442,-1.7186,-1.6384,-2.0337,-3.1205,-3.3599,-3.578,-3.8326,-3.8898,-3.943,-3.9947,-3.9655,-3.9116,-3.8361,-3.7625,-3.6589,-3.5397,-3.4431,-3.3308,-3.2038,-3.0808,-2.9614,-2.8427,-2.7258,-2.6045,-2.4862,-2.4337,-2.3548,-2.2628,-2.1787,-2.1165,-2.0537,-1.8364,-1.6191,-1.4314,-1.3815,-1.3568,-1.3307,-1.279,-1.2705,-1.2619,-1.2357,-1.1929,-1.1058,-0.9218,-0.8348,-0.7658,-0.6083,-0.5733,-0.5733,-0.5733,-0.5733,-0.5733,-0.5733,-0.5733,-0.5552,-0.5099,-0.4654,-0.4121,-0.3676,-0.3232,-0.2875,-0.2875,-0.2875,-0.2875,-0.2875,-0.2875,-0.2875,-0.2875,-0.2875,-0.2875,-0.2875,-0.2875,-0.2875,-0.2875,-0.2875,-0.2784,-0.2604,-0.2604,-0.2064,-0.0986,-0.0,0.0448,0.0538,0.2327,0.2326,-3.1029,-3.0777,-3.0404,-2.8853,-2.8424,-2.8228,-2.7617,-2.7311,-2.6806,-2.5921,-2.5229,-2.469,-2.3988,-2.3345,-2.2777,-2.2025,-2.1497,-2.042,0.0,-1.6093,-1.4441,-1.3379,-1.2675,-1.3021,-1.462,-1.3303,-1.5255,-2.2393,-2.2195,-2.4654,-3.1221,-3.3824,-3.5862,-3.7461,-3.8414,-3.9083,-3.9437,-3.9239,-3.8655,-3.7654,-3.7218,-3.6458,-3.5436,-3.4657,-3.355,-3.2213,-3.1026,-2.9818,-2.8725,-2.7537,-2.6539,-2.5652,-2.5122,-2.4264,-2.3276,-2.2392,-2.1558,-2.0595,-1.8921,-1.7074,-1.5379,-1.465,-1.4068,-1.3646,-1.3215,-1.2875,-1.2705,-1.2705,-1.2095,-1.1052,-0.9561,-0.8519,-0.7566,-0.6083,-0.5733,-0.5733,-0.5733,-0.5733,-0.5733,-0.5733,-0.5552,-0.5371,-0.501,-0.4478,-0.3942,-0.3676,-0.3232,-0.2875,-0.2875,-0.2875,-0.2875,-0.2875,-0.2875,-0.2875,-0.2875,-0.2875,-0.2875,-0.2875,-0.2875,-0.2875,-0.2875,-0.2512,-0.2152,-0.1973,-0.1613,-0.0896,0.0179,0.1164,0.1522,0.1524,0.3403,0.3492]},{"header":{"parameterUnit":"m.s-1","parameterCategory":1,"la1":30.6,"la2":29.2853,"lo1":-89.7004,"lo2":-87.6739,"dy":0.0162,"dx":0.0183,"nx":112,"ny":82,"refTime":"2023-06-01T06:00:00:Z","depth":0,"parameterNumber":3,"parameterNumberName":"V-component_of_WINDS"},"data":[0.0,0.0,0.0,0.0,0.0,0.0,0.0,0.0,0.0,0.0,0.0,0.0,0.0,0.0,0.0,0.0,0.0,0.0,0.0,0.0,0.0,0.0,0.0,0.0,0.0,0.0,0.0,0.0,0.0,0.0,0.0,0.0,0.0,0.0,0.0,0.0,0.0,0.0,0.0,0.0,0.0,0.0,0.0,0.0,0.0,0.0,0.0,0.0,0.0,0.0,0.0,0.0,0.0,0.0,0.0,0.0,0.0,0.0,0.0,0.0,0.0,0.0,0.0,0.0,0.0,0.0,0.0,0.0,0.0,0.0,0.0,0.0,0.0,0.0,0.0,0.0,0.0,0.0,0.0,0.0,0.0,0.0,0.0,0.0,0.0,0.0,0.0,0.0,0.0,0.0,-3.8575,-3.7659,-3.4336,-3.1757,-3.073,-3.2587,-3.438,-3.5815,0.0,0.0,0.0,0.0,0.0,0.0,0.0,0.0,0.0,0.0,0.0,0.0,0.0,0.0,0.0,0.0,0.0,0.0,0.0,0.0,0.0,0.0,0.0,0.0,0.0,0.0,0.0,0.0,0.0,0.0,0.0,0.0,0.0,0.0,0.0,0.0,0.0,0.0,0.0,0.0,0.0,0.0,0.0,0.0,0.0,0.0,0.0,0.0,0.0,0.0,0.0,0.0,0.0,0.0,0.0,0.0,0.0,0.0,0.0,0.0,0.0,0.0,0.0,0.0,0.0,0.0,0.0,0.0,0.0,0.0,0.0,0.0,0.0,0.0,0.0,0.0,0.0,0.0,0.0,0.0,0.0,0.0,0.0,0.0,0.0,0.0,0.0,0.0,0.0,0.0,0.0,0.0,0.0,0.0,0.0,0.0,0.0,0.0,0.0,0.0,0.0,0.0,0.0,0.0,-3.6671,-2.9869,-2.8533,-2.9366,-3.2362,-3.3694,-3.4432,-3.4662,0.0,0.0,0.0,0.0,0.0,0.0,0.0,0.0,0.0,0.0,0.0,0.0,0.0,0.0,0.0,0.0,0.0,0.0,0.0,0.0,0.0,0.0,0.0,0.0,0.0,0.0,0.0,0.0,0.0,0.0,0.0,0.0,0.0,0.0,0.0,0.0,0.0,0.0,0.0,0.0,0.0,0.0,0.0,0.0,0.0,0.0,0.0,0.0,0.0,0.0,0.0,0.0,0.0,0.0,0.0,0.0,0.0,0.0,0.0,0.0,0.0,0.0,0.0,0.0,0.0,0.0,0.0,0.0,0.0,0.0,0.0,0.0,0.0,0.0,0.0,0.0,0.0,0.0,0.0,0.0,0.0,0.0,0.0,0.0,0.0,0.0,0.0,0.0,0.0,0.0,0.0,0.0,0.0,0.0,0.0,0.0,0.0,0.0,0.0,0.0,0.0,0.0,0.0,-3.3662,-3.146,-2.7656,-2.7312,-2.888,-3.2781,-3.393,-3.436,-3.437,-3.6795,0.0,0.0,0.0,0.0,0.0,0.0,0.0,0.0,0.0,0.0,0.0,0.0,0.0,0.0,0.0,0.0,0.0,0.0,0.0,0.0,0.0,0.0,0.0,0.0,0.0,0.0,0.0,0.0,0.0,0.0,0.0,0.0,0.0,0.0,0.0,0.0,0.0,0.0,0.0,0.0,0.0,0.0,0.0,0.0,0.0,0.0,0.0,0.0,0.0,0.0,0.0,0.0,0.0,0.0,0.0,0.0,0.0,0.0,0.0,0.0,0.0,0.0,0.0,0.0,0.0,0.0,0.0,0.0,0.0,0.0,0.0,0.0,0.0,0.0,0.0,0.0,0.0,0.0,0.0,0.0,0.0,0.0,0.0,0.0,0.0,0.0,0.0,0.0,0.0,0.0,0.0,0.0,0.0,0.0,0.0,0.0,0.0,0.0,0.0,0.0,0.0,0.0,-2.9834,-2.7345,-2.7292,-2.7313,-2.8858,-3.2766,-3.3865,-3.438,-3.437,-3.753,0.0,0.0,0.0,0.0,0.0,0.0,0.0,0.0,0.0,0.0,0.0,0.0,0.0,0.0,0.0,0.0,0.0,0.0,0.0,0.0,0.0,0.0,0.0,0.0,0.0,0.0,0.0,0.0,0.0,0.0,0.0,0.0,0.0,0.0,0.0,0.0,0.0,0.0,0.0,0.0,0.0,0.0,0.0,0.0,0.0,0.0,0.0,0.0,0.0,0.0,0.0,0.0,0.0,0.0,0.0,0.0,0.0,0.0,0.0,0.0,0.0,0.0,0.0,0.0,0.0,0.0,0.0,0.0,0.0,0.0,0.0,0.0,0.0,0.0,0.0,0.0,0.0,0.0,0.0,0.0,0.0,0.0,0.0,0.0,0.0,0.0,0.0,0.0,0.0,0.0,0.0,0.0,0.0,0.0,0.0,0.0,0.0,0.0,0.0,0.0,0.0,0.0,-3.0201,-2.7323,-2.7299,-2.7308,-2.8846,-3.2785,-3.3892,-3.4397,-3.437,-3.753,0.0,0.0,0.0,0.0,0.0,0.0,0.0,0.0,0.0,0.0,0.0,0.0,0.0,0.0,0.0,0.0,0.0,0.0,0.0,0.0,0.0,0.0,0.0,0.0,0.0,0.0,0.0,0.0,0.0,0.0,0.0,0.0,0.0,0.0,0.0,0.0,0.0,0.0,0.0,0.0,0.0,0.0,0.0,0.0,0.0,0.0,0.0,0.0,0.0,0.0,0.0,0.0,0.0,0.0,0.0,0.0,0.0,0.0,0.0,0.0,0.0,0.0,0.0,0.0,0.0,0.0,0.0,0.0,0.0,0.0,0.0,0.0,0.0,0.0,0.0,0.0,0.0,0.0,0.0,0.0,0.0,0.0,0.0,0.0,0.0,0.0,0.0,0.0,0.0,0.0,0.0,0.0,0.0,0.0,0.0,0.0,0.0,0.0,0.0,0.0,0.0,0.0,-3.0036,-2.7291,-2.7338,-2.9968,-3.2364,-3.3769,-3.4219,-3.438,-3.4421,0.0,0.0,0.0,0.0,0.0,0.0,0.0,0.0,0.0,0.0,0.0,0.0,0.0,0.0,0.0,0.0,0.0,0.0,0.0,0.0,0.0,0.0,0.0,0.0,0.0,0.0,0.0,0.0,0.0,0.0,0.0,0.0,0.0,0.0,0.0,0.0,0.0,0.0,0.0,0.0,0.0,0.0,0.0,0.0,0.0,0.0,0.0,0.0,0.0,0.0,0.0,0.0,0.0,0.0,0.0,0.0,0.0,0.0,0.0,0.0,0.0,0.0,0.0,0.0,0.0,0.0,0.0,0.0,0.0,0.0,0.0,0.0,0.0,0.0,0.0,0.0,0.0,0.0,0.0,0.0,0.0,0.0,0.0,0.0,0.0,0.0,0.0,0.0,0.0,0.0,0.0,0.0,0.0,0.0,0.0,0.0,0.0,0.0,0.0,0.0,0.0,0.0,-3.3398,-3.0277,-2.7862,-2.7369,-3.0929,-3.336,-3.3359,-3.394,-3.4849,-3.5941,0.0,0.0,0.0,0.0,0.0,0.0,0.0,0.0,0.0,0.0,0.0,0.0,0.0,0.0,0.0,0.0,0.0,0.0,0.0,0.0,0.0,0.0,0.0,0.0,0.0,0.0,0.0,0.0,0.0,0.0,0.0,0.0,0.0,0.0,0.0,0.0,0.0,0.0,0.0,0.0,0.0,0.0,0.0,0.0,0.0,0.0,0.0,0.0,0.0,0.0,0.0,0.0,0.0,0.0,0.0,0.0,0.0,0.0,0.0,0.0,0.0,0.0,0.0,0.0,0.0,0.0,0.0,0.0,0.0,0.0,0.0,0.0,0.0,0.0,0.0,0.0,0.0,0.0,0.0,0.0,0.0,0.0,0.0,0.0,0.0,0.0,0.0,0.0,0.0,0.0,0.0,0.0,0.0,0.0,0.0,0.0,0.0,0.0,0.0,0.0,0.0,0.0,-3.2808,-3.1046,-2.9164,-2.7392,-2.9542,-3.101,-3.1026,-3.3063,-3.5795,0.0,0.0,0.0,0.0,0.0,0.0,0.0,0.0,0.0,0.0,0.0,0.0,0.0,0.0,0.0,0.0,0.0,0.0,0.0,0.0,0.0,0.0,0.0,0.0,0.0,0.0,0.0,0.0,0.0,0.0,0.0,0.0,0.0,0.0,0.0,0.0,0.0,0.0,0.0,0.0,0.0,0.0,0.0,0.0,0.0,0.0,0.0,0.0,0.0,0.0,0.0,0.0,0.0,0.0,0.0,0.0,0.0,0.0,0.0,0.0,0.0,0.0,0.0,0.0,0.0,0.0,0.0,0.0,0.0,0.0,0.0,0.0,0.0,0.0,0.0,0.0,0.0,0.0,0.0,0.0,0.0,0.0,0.0,0.0,0.0,0.0,0.0,0.0,0.0,0.0,0.0,0.0,0.0,0.0,0.0,0.0,0.0,0.0,0.0,0.0,0.0,0.0,0.0,-3.2657,-3.1496,-3.0479,-2.9967,-3.0517,-3.0983,-3.0994,-3.1628,-3.3349,-3.6476,0.0,0.0,0.0,0.0,0.0,0.0,0.0,0.0,0.0,0.0,0.0,0.0,0.0,0.0,0.0,0.0,0.0,0.0,0.0,0.0,0.0,0.0,0.0,0.0,0.0,0.0,0.0,0.0,0.0,0.0,0.0,0.0,0.0,0.0,0.0,0.0,0.0,0.0,0.0,0.0,0.0,0.0,0.0,0.0,0.0,0.0,0.0,0.0,0.0,0.0,0.0,0.0,0.0,0.0,0.0,0.0,0.0,0.0,0.0,0.0,0.0,0.0,0.0,0.0,0.0,0.0,0.0,0.0,0.0,0.0,0.0,0.0,0.0,0.0,0.0,0.0,0.0,0.0,0.0,0.0,0.0,0.0,0.0,0.0,0.0,0.0,0.0,0.0,0.0,0.0,0.0,0.0,0.0,0.0,0.0,0.0,0.0,0.0,0.0,0.0,0.0,0.0,-3.1992,-3.1112,-3.0609,-3.0983,-3.1022,-3.0992,-3.1017,-3.2132,-3.3579,-3.5394,0.0,0.0,0.0,0.0,0.0,0.0,0.0,0.0,0.0,0.0,0.0,0.0,0.0,0.0,0.0,0.0,0.0,0.0,0.0,0.0,0.0,0.0,0.0,0.0,0.0,0.0,0.0,0.0,0.0,0.0,0.0,0.0,0.0,0.0,0.0,0.0,0.0,0.0,0.0,0.0,0.0,0.0,0.0,0.0,0.0,0.0,0.0,0.0,0.0,0.0,0.0,0.0,0.0,0.0,0.0,0.0,0.0,0.0,0.0,0.0,0.0,0.0,0.0,0.0,0.0,0.0,0.0,0.0,0.0,0.0,0.0,0.0,0.0,0.0,0.0,0.0,0.0,0.0,0.0,0.0,0.0,0.0,0.0,0.0,0.0,0.0,0.0,0.0,0.0,0.0,0.0,0.0,0.0,0.0,0.0,0.0,0.0,0.0,0.0,0.0,0.0,0.0,-3.0921,-3.0325,-3.018,-3.0924,-3.1248,-3.1442,-3.1389,-3.3905,-3.5477,-3.5477,0.0,0.0,0.0,0.0,0.0,0.0,0.0,0.0,0.0,0.0,0.0,0.0,0.0,0.0,0.0,0.0,0.0,0.0,0.0,0.0,0.0,0.0,0.0,0.0,0.0,0.0,0.0,0.0,0.0,0.0,0.0,0.0,0.0,0.0,0.0,0.0,0.0,0.0,0.0,0.0,0.0,0.0,0.0,0.0,0.0,0.0,0.0,0.0,0.0,0.0,0.0,0.0,0.0,0.0,0.0,0.0,0.0,0.0,0.0,0.0,-2.5333,-2.5742,0.0,0.0,0.0,0.0,0.0,0.0,0.0,0.0,0.0,0.0,0.0,0.0,0.0,0.0,0.0,0.0,0.0,0.0,0.0,0.0,0.0,0.0,0.0,0.0,0.0,0.0,0.0,0.0,0.0,0.0,0.0,0.0,0.0,0.0,0.0,0.0,0.0,0.0,0.0,0.0,-3.0659,-3.0683,-3.0777,-3.0983,-3.3128,-3.4555,-3.4564,-3.516,-3.5488,-3.5517,-3.6708,0.0,0.0,0.0,0.0,0.0,0.0,0.0,0.0,0.0,0.0,0.0,0.0,0.0,0.0,0.0,0.0,0.0,0.0,0.0,0.0,0.0,0.0,0.0,0.0,0.0,0.0,0.0,0.0,0.0,0.0,0.0,0.0,0.0,0.0,0.0,0.0,0.0,0.0,0.0,0.0,0.0,0.0,0.0,0.0,0.0,0.0,0.0,0.0,0.0,0.0,0.0,0.0,0.0,0.0,0.0,0.0,0.0,0.0,0.0,-2.4808,-2.5098,0.0,0.0,0.0,0.0,0.0,0.0,0.0,0.0,0.0,0.0,0.0,0.0,0.0,0.0,0.0,0.0,0.0,0.0,0.0,0.0,0.0,0.0,0.0,0.0,0.0,0.0,0.0,0.0,0.0,0.0,0.0,0.0,0.0,0.0,0.0,0.0,0.0,0.0,0.0,0.0,-3.0891,-3.0877,-3.0962,-3.0969,-3.3719,-3.5467,-3.5503,-3.5525,-3.5493,-3.5477,-3.6136,0.0,0.0,0.0,0.0,0.0,0.0,0.0,0.0,0.0,0.0,0.0,0.0,0.0,0.0,0.0,0.0,0.0,0.0,0.0,0.0,0.0,0.0,0.0,0.0,0.0,0.0,0.0,0.0,0.0,0.0,0.0,0.0,0.0,0.0,0.0,0.0,0.0,0.0,0.0,0.0,0.0,0.0,0.0,0.0,0.0,0.0,0.0,0.0,0.0,0.0,0.0,0.0,0.0,-2.4108,-2.4199,-2.4199,-2.4199,-2.4199,-2.4199,-2.4199,-2.4369,-2.471,-2.6166,0.0,0.0,0.0,0.0,0.0,0.0,0.0,0.0,0.0,0.0,0.0,0.0,0.0,0.0,0.0,0.0,0.0,0.0,0.0,0.0,0.0,0.0,-3.519,-3.5428,-3.4986,-3.4823,-3.6045,0.0,0.0,0.0,0.0,0.0,0.0,0.0,0.0,0.0,0.0,0.0,-3.1597,-3.1167,-3.117,-3.1704,-3.4018,-3.5481,-3.5494,-3.5529,-3.5461,-3.5477,-3.59,-3.7086,0.0,0.0,0.0,0.0,0.0,0.0,0.0,0.0,0.0,0.0,0.0,0.0,0.0,0.0,0.0,0.0,0.0,0.0,0.0,0.0,0.0,0.0,0.0,0.0,0.0,0.0,0.0,0.0,0.0,0.0,0.0,0.0,-2.4614,-2.2474,0.0,0.0,0.0,0.0,0.0,0.0,0.0,0.0,0.0,0.0,0.0,0.0,0.0,-2.1536,-2.2255,-2.2811,-2.3076,-2.2967,-2.3222,-2.331,-2.331,-2.331,-2.331,-2.331,-2.331,0.0,-2.5673,-2.6804,0.0,0.0,0.0,0.0,0.0,0.0,0.0,0.0,0.0,0.0,0.0,0.0,0.0,0.0,0.0,0.0,0.0,0.0,0.0,0.0,0.0,0.0,-3.5185,-3.5243,-3.5279,-3.5389,-3.5609,-3.5419,-3.5228,-3.5439,-3.5148,-3.5001,0.0,0.0,0.0,0.0,0.0,0.0,-3.3003,-3.1817,-3.1999,-3.4612,-3.5242,-3.5495,-3.5533,-3.552,-3.5523,-3.5486,-3.7588,-3.895,-3.9315,-3.9325,0.0,0.0,0.0,0.0,0.0,0.0,0.0,0.0,0.0,0.0,0.0,0.0,0.0,0.0,0.0,0.0,0.0,0.0,0.0,0.0,0.0,0.0,0.0,0.0,0.0,0.0,0.0,0.0,0.0,-2.392,-2.2502,-2.2057,-2.2075,-2.1942,0.0,0.0,0.0,0.0,0.0,0.0,0.0,0.0,0.0,-2.0606,-2.1077,-2.1633,-2.2097,-2.253,-2.2706,-2.2803,-2.2969,-2.3135,-2.3135,-2.3135,-2.3135,-2.3135,-2.3647,-2.4629,-2.5872,-2.6574,-2.7473,-2.8372,0.0,0.0,0.0,0.0,-3.1993,-3.3171,-3.3427,-3.4101,-3.4835,-3.4835,0.0,0.0,0.0,0.0,0.0,0.0,0.0,-3.4817,-3.4868,-3.5001,-3.5082,-3.5148,-3.5294,-3.5359,-3.5504,-3.5162,-3.503,-3.5294,-3.5016,-3.4883,-3.5148,-3.5082,0.0,0.0,0.0,-3.4654,-3.4211,-3.3821,-3.4028,-3.5355,-3.5519,-3.5507,-3.5474,-3.6831,-3.7638,-3.762,-3.8707,-3.9329,-3.932,-3.9317,-3.9325,0.0,0.0,0.0,0.0,0.0,0.0,0.0,0.0,0.0,0.0,0.0,0.0,0.0,0.0,0.0,0.0,0.0,0.0,0.0,0.0,0.0,0.0,0.0,0.0,0.0,0.0,0.0,0.0,-2.1391,-2.05,-2.0954,-2.0644,-2.0434,0.0,0.0,0.0,0.0,0.0,0.0,-1.8442,-1.9338,-1.9886,-1.9886,-2.0898,-2.1633,-2.2008,-2.2264,-2.253,-2.2706,-2.2882,-2.3047,-2.3135,-2.3135,-2.3135,-2.3135,-2.4069,-2.4999,-2.5852,-2.6466,-2.7307,-2.8197,-2.9272,-2.9995,-3.0412,-3.0785,-3.1688,-3.2818,-3.3099,-3.3742,-3.4414,-3.4414,-3.4414,-3.4414,-3.4563,0.0,0.0,0.0,0.0,-3.4631,-3.4735,-3.4802,-3.4883,-3.5082,-3.5148,-3.5213,-3.5439,-3.5096,-3.4831,-3.5148,-3.4898,-3.4698,-3.5016,-3.4949,0.0,-3.5243,-3.5332,-3.5317,-3.505,-3.529,-3.5529,-3.5484,-3.552,-3.5753,-3.6428,-3.8237,-3.9307,-3.9296,-3.928,-3.9314,-3.9288,-3.9272,-3.9272,-3.9272,0.0,0.0,0.0,0.0,0.0,0.0,0.0,0.0,0.0,0.0,0.0,0.0,0.0,0.0,0.0,0.0,0.0,0.0,0.0,0.0,0.0,0.0,0.0,0.0,0.0,0.0,0.0,0.0,0.0,-1.7628,-1.7549,0.0,0.0,0.0,0.0,-1.8727,-1.7994,-1.7434,-1.7419,-1.8334,-1.888,-1.888,-2.0051,-2.097,-2.1731,-2.2176,-2.2441,-2.2441,-2.2706,-2.2882,-2.3135,-2.3135,-2.3135,-2.3135,-2.4069,-2.4999,-2.5913,-2.6787,-2.7719,-2.8467,-2.8582,-2.9271,-3.033,-3.0292,-3.1529,-3.3185,-3.3157,-3.3742,-3.4414,-3.4414,-3.4414,-3.4414,-3.4414,-3.4414,0.0,0.0,-3.4414,-3.4414,-3.4414,-3.4563,-3.475,-3.4868,-3.4935,-3.5001,-3.5439,-3.5096,-3.4831,-3.5148,-3.475,-3.4481,-3.4698,0.0,-3.4698,-3.4765,-3.4963,-3.5237,-3.5442,-3.5499,-3.5498,-3.5489,-3.5491,-3.6468,-3.891,-3.9259,-3.928,-3.9268,-3.9305,-3.9288,-3.9272,-3.9272,-3.9272,-3.9272,-3.9448,0.0,0.0,0.0,0.0,0.0,0.0,0.0,0.0,0.0,0.0,0.0,0.0,0.0,0.0,0.0,0.0,0.0,0.0,0.0,0.0,0.0,0.0,0.0,0.0,0.0,0.0,0.0,0.0,-1.8241,-1.7692,0.0,-1.7326,-1.7326,-1.7138,-1.685,-1.6574,-1.6298,-1.6298,-1.7318,-1.8149,-1.8788,-1.9886,-2.0889,-2.1919,-2.2097,-2.2264,-2.2441,-2.2706,-2.2794,-2.2969,-2.3647,-2.3983,-2.4069,-2.5589,-2.6423,-2.6753,-2.7672,-2.8259,-2.851,-2.851,-2.9118,-3.0012,-3.082,-3.1856,-3.296,-3.3756,-3.4182,-3.4414,-3.4414,-3.4414,-3.4414,-3.4414,-3.4414,-3.4414,-3.4414,-3.4414,-3.4414,-3.4414,-3.4601,-3.4802,-3.4839,-3.4905,-3.5023,-3.5124,-3.4949,-3.4838,-3.4971,-3.4645,-3.4481,-3.4802,-3.4683,-3.4549,-3.4817,-3.4853,-3.4951,-3.5105,-3.6075,-3.7062,-3.7862,-3.7945,-3.8343,-3.921,-3.9309,-3.9313,-3.9288,-3.9272,-3.9272,-3.9272,-3.9272,-3.9309,-3.9295,-3.9437,-3.9542,0.0,0.0,0.0,0.0,0.0,0.0,0.0,0.0,0.0,0.0,0.0,0.0,0.0,0.0,0.0,0.0,0.0,0.0,0.0,0.0,0.0,0.0,0.0,0.0,0.0,-1.843,-1.7472,-1.8226,-1.7412,-1.6763,-1.6763,-1.6763,-1.6487,-1.5825,-1.5832,-1.5832,-1.5832,-1.7037,-1.8149,-1.8788,-2.0076,-2.1177,-2.1919,-2.2008,-2.2185,-2.2441,-2.2706,-2.2969,-2.3396,-2.4155,-2.4659,-2.4988,-2.6505,-2.7185,-2.7267,-2.8179,-2.8657,-2.8882,-2.8882,-2.9406,-3.0367,-3.1389,-3.2362,-3.3269,-3.4128,-3.4414,-3.4414,-3.4414,-3.4414,-3.4414,-3.4414,-3.4414,-3.4414,-3.4414,-3.4414,-3.4414,-3.4414,-3.4534,-3.4721,-3.481,-3.4824,-3.4905,-3.5103,-3.4898,-3.4771,-3.4867,-3.4607,-3.4481,-3.4668,-3.4534,-3.4481,-3.4668,-3.4661,-3.4673,-3.47,-3.5691,-3.7164,-3.9076,-3.9291,-3.9286,-3.9286,-3.9313,-3.9312,-3.9285,-3.9268,-3.9323,-3.9276,-3.9276,-3.9293,-3.9294,-3.948,-3.9564,-3.9598,0.0,0.0,0.0,0.0,0.0,0.0,0.0,0.0,0.0,0.0,0.0,0.0,0.0,0.0,0.0,0.0,0.0,0.0,0.0,0.0,0.0,0.0,0.0,-1.9624,-1.7979,-1.693,-1.7181,-1.6379,-1.5818,-1.5832,-1.5832,-1.5832,-1.5832,-1.5832,-1.5832,-1.5832,-1.7684,-1.8796,-1.8788,-2.0637,-2.1642,-2.1741,-2.1919,-2.2185,-2.2353,-2.2706,-2.3396,-2.4498,-2.4573,-2.5073,-2.5913,-2.6835,-2.7267,-2.7348,-2.8179,-2.9028,-2.9704,-2.9704,-3.0291,-3.1328,-3.2146,-3.3101,-3.4128,-3.4346,-3.4414,-3.4414,-3.4414,-3.4414,-3.4414,-3.4414,-3.4414,-3.4414,-3.4414,-3.4414,-3.4414,-3.4414,-3.4467,-3.452,-3.4795,-3.4624,-3.4698,-3.5347,-3.4927,-3.4534,-3.4808,-3.4631,-3.4385,-3.4385,-3.4385,-3.437,-3.437,-3.4405,0.0,-3.4375,-3.4469,-3.5786,-3.8974,-3.9287,-3.9325,-3.9342,-3.9325,-3.9285,-3.9295,-3.9362,-3.9393,-3.9405,-3.9388,-3.9371,-3.9371,-3.9669,-3.9836,-3.9856,0.0,0.0,0.0,0.0,0.0,0.0,0.0,0.0,0.0,0.0,0.0,0.0,0.0,0.0,0.0,0.0,0.0,0.0,0.0,0.0,0.0,-1.9405,-1.7603,-1.8159,-1.6662,-1.5631,-1.5848,-1.5697,-1.5598,-1.5805,-1.5832,-1.5832,-1.5832,-1.5832,-1.5832,-1.5832,-1.7044,-1.8056,-1.8788,-2.0076,-2.0988,-2.1731,-2.1731,-2.183,-2.1909,-2.3028,-2.3724,-2.4059,-2.5663,-2.6588,-2.6835,-2.7765,-2.8179,-2.8179,-2.9015,-2.9471,-2.9704,-2.9704,-3.0594,-3.1928,-3.229,-3.3101,-3.4128,-3.4346,-3.4414,-3.4414,-3.4414,-3.4414,-3.4414,-3.4414,-3.4414,-3.4414,-3.4414,-3.4787,-3.5154,-3.5154,-3.5657,-3.6073,-3.5596,-3.5643,-3.5937,-3.612,-3.5226,-3.4442,-3.4547,-3.4483,-3.4367,-3.4419,-3.4406,-3.439,-3.439,-3.4408,-3.4408,-3.4406,-3.6467,-3.8297,-3.9209,-3.9284,-3.9584,-4.034,-3.9698,-3.9312,-3.9299,-4.0662,-4.1488,-4.1479,-4.1479,-4.1457,-4.1459,-4.1823,-4.1677,0.0,0.0,0.0,0.0,0.0,0.0,0.0,0.0,0.0,0.0,0.0,0.0,0.0,0.0,0.0,0.0,0.0,0.0,0.0,0.0,0.0,0.0,-1.8443,-1.6676,-1.6746,-1.5639,-1.489,-1.5177,-1.5217,-1.5284,-1.5451,-1.5464,-1.5518,-1.5638,-1.5651,-1.5886,-1.6386,-1.7412,-1.8272,-1.9126,-2.0107,-2.0917,-2.1475,-2.1905,-2.2252,-2.2511,-2.3877,-2.4723,-2.5136,-2.6505,-2.7429,-2.7765,-2.8259,-2.8657,-2.904,-2.9484,-3.0075,-3.0745,0.0,0.0,0.0,0.0,-3.3479,-3.4128,-3.4346,-3.4414,-3.4414,-3.4414,-3.4601,-3.4854,-3.4854,-3.5037,-3.516,-3.4877,-3.5045,-3.5286,-3.5014,-3.537,-3.5809,-3.5809,-3.624,-3.6794,-3.7167,-3.6661,-3.6045,-3.6045,-3.6045,0.0,-3.6075,-3.5644,-3.5063,-3.4467,-3.4379,-3.4883,-3.6316,-3.814,-3.928,-3.9304,-3.9659,-4.012,-4.0556,-4.0334,0.0,0.0,0.0,-4.2275,-4.2299,-4.2281,0.0,0.0,0.0,-4.2615,-4.2076,-4.142,0.0,0.0,-4.0103,-4.007,0.0,0.0,0.0,0.0,0.0,0.0,0.0,0.0,0.0,0.0,0.0,0.0,0.0,0.0,0.0,0.0,-1.7811,-1.637,-1.556,-1.4893,-1.4583,-1.4877,-1.491,-1.493,-1.4963,-1.499,-1.5117,-1.5378,-1.5424,-1.591,-1.7073,-1.8095,0.0,0.0,0.0,-2.1044,-2.1044,-2.2063,-2.2768,-2.3142,-2.4651,-2.5727,-2.6479,-2.692,-2.7589,-2.833,-2.8409,-2.8856,-2.9515,-2.9669,-3.0624,-3.2055,-3.2177,-3.2232,-3.239,-3.3521,-3.4005,-3.4128,-3.4399,0.0,0.0,-3.4485,-3.4875,-3.5304,-3.5304,-3.567,-3.603,-3.5354,-3.5245,-3.5182,-3.4552,-3.4457,-3.4756,-3.575,-3.6499,-3.7235,-3.8098,-3.8344,-3.8415,-3.8385,-3.8404,-3.8419,-3.8419,-3.7398,-3.6199,-3.5034,-3.4864,-3.5931,-3.8811,-3.924,-3.9392,-3.9615,-4.0442,0.0,-4.053,-4.0982,-4.1215,-4.0972,-4.1798,-4.2306,-4.2305,-4.2287,-4.2279,-4.2318,-4.2699,-4.2893,-4.2898,-4.2893,-4.2051,-4.0393,-4.0199,-4.0087,0.0,0.0,0.0,0.0,0.0,0.0,0.0,0.0,0.0,0.0,0.0,0.0,0.0,0.0,0.0,-1.9552,-1.7811,-1.637,-1.556,-1.4713,-1.4282,-1.4569,-1.4603,-1.4703,-1.4943,-1.5177,-1.5337,-1.5391,-1.5611,-1.5759,-1.5769,-1.7387,-1.8224,-1.8128,-1.9762,-2.0631,-2.0631,-2.0885,-2.1006,-2.1081,-2.3094,0.0,-2.4378,-2.6178,-2.7083,-2.7236,-2.7815,-2.8164,-2.8459,-2.9692,-3.0773,-3.1718,-3.2709,-3.3157,-3.3382,-3.3744,-3.4005,-3.4196,-3.4957,-3.4797,-3.4416,-3.4953,-3.4851,-3.4485,-3.4485,-3.4605,0.0,-3.4555,-3.4876,-3.5263,-3.5122,-3.5609,-3.6109,-3.62,-3.64,-3.6799,-3.7406,-3.7979,-3.8408,-3.8415,-3.8398,-3.8407,-3.8407,-3.8196,-3.7911,-3.7678,-3.7632,-3.7875,-3.8502,-3.8987,-3.99,-4.1545,-4.1908,-4.1968,-4.1918,-4.1523,-4.1508,-4.1979,-4.2181,-4.2276,-4.2287,-4.2287,-4.2279,-4.2318,-4.2699,-4.2925,-4.2915,-4.2889,-4.2714,-4.2316,-4.0827,-4.0112,0.0,0.0,0.0,0.0,0.0,0.0,0.0,0.0,0.0,0.0,0.0,-2.5346,-2.3492,0.0,-2.1237,-1.8435,-1.7577,-1.678,-1.4985,-1.4741,-1.4635,-1.4374,-1.4302,-1.4422,-1.471,-1.487,-1.5023,-1.517,-1.5311,-1.5782,-1.6519,-1.7478,-1.8191,-1.8786,-1.971,-2.0228,-2.0228,-2.1024,-2.1693,-2.1971,-2.4039,-2.5071,-2.516,-2.637,-2.7073,-2.7496,-2.7852,-2.8422,-2.9293,-3.0596,-3.1425,-3.1829,-3.2269,-3.2535,-3.2656,-3.2858,-3.3059,-3.331,-3.411,-3.414,-3.398,-3.4576,-3.4778,-3.4805,-3.4805,-3.5049,-3.5212,-3.4849,-3.4975,-3.5182,-3.4814,-3.4997,-3.5289,-3.5202,-3.5513,-3.6019,-3.6659,-3.7329,-3.7952,-3.8311,-3.8391,-3.8391,-3.8391,-3.8649,-3.8721,-3.8464,-3.8383,-3.8411,-3.841,-3.8935,-4.0053,-4.2094,-4.2277,-4.2289,-4.2314,-4.197,-4.1931,-4.2287,-4.2287,-4.2287,-4.2287,-4.2494,-4.2539,-4.2444,-4.276,-4.2912,-4.2882,-4.291,-4.2902,-4.285,-4.0972,-4.0077,0.0,0.0,0.0,0.0,0.0,0.0,0.0,-3.2276,-3.0351,-2.873,-2.7311,-2.5627,-2.3261,-2.2595,-2.1197,-1.7552,-1.7423,-1.6862,-1.4412,-1.4741,-1.4929,-1.4247,-1.4168,-1.4242,-1.4422,-1.4543,-1.4683,-1.4863,-1.493,-1.5637,-1.6957,-1.7368,-1.8066,-1.9235,-1.9643,-1.9806,-1.9806,-2.1303,-2.2343,-2.2842,-2.4812,-2.5838,-2.5988,-2.6536,-2.7115,-2.7673,-2.7948,-2.8869,-3.0228,-3.1222,-3.1636,-3.1622,-3.1401,-3.1381,-3.1525,-3.176,-3.2119,-3.2533,-3.3317,-3.3593,-3.3652,-3.4241,-3.4736,-3.5086,-3.5086,-3.5444,-3.5752,-3.5137,-3.4975,-3.4845,-3.4246,-3.4101,-3.4101,-3.4101,-3.4538,-3.5218,-3.6108,-3.674,-3.7371,-3.823,-3.8391,-3.8391,-3.8504,-3.887,-3.9084,-3.8825,-3.8564,-3.8541,-3.8838,-3.9446,-4.0497,-4.214,-4.2273,-4.2288,-4.2305,-4.2287,-4.2287,-4.2287,-4.2287,-4.2287,-4.2287,-4.2701,-4.2799,-4.2627,-4.2799,-4.2915,-4.2882,-4.2882,-4.291,-4.2875,-4.1339,-4.0447,-4.019,-3.9813,-3.9088,-3.807,-3.728,-3.6127,0.0,-3.1997,-3.0338,-2.8716,-2.668,-2.485,-2.3879,-2.2713,-2.0941,-1.8223,-1.7228,-1.6206,-1.4334,-1.4166,-1.426,-1.4442,-1.4476,-1.4382,-1.4155,-1.4609,-1.4823,-1.4589,-1.4816,-1.4939,-1.4838,-1.6342,-1.7111,-1.7098,-1.8558,-1.9366,-1.9366,-2.0303,-2.079,-2.084,-2.2864,-2.3841,-2.3915,-2.5669,-2.6534,-2.6672,-2.7908,-2.8916,-2.9687,-2.9841,-2.9855,-2.9918,-3.0444,-3.0629,-3.0668,-3.1105,-3.1953,-3.3057,-3.3969,-3.4229,-3.4219,-3.4899,-3.4691,-3.4226,-3.4226,-3.4293,-3.4327,-3.4246,-3.4214,-3.4198,-3.4117,-3.4101,-3.4101,-3.4101,-3.4165,-3.4603,-3.6011,-3.6367,-3.6821,-3.8149,-3.8391,-3.8504,-3.886,-3.8985,-3.9247,-3.9971,-3.9139,-3.8942,-4.0363,-4.1383,-4.2058,-4.2255,-4.2303,-4.2299,-4.2287,-4.2287,-4.2287,-4.2287,-4.2287,-4.2287,-4.2287,-4.2701,-4.2817,-4.2681,-4.2835,-4.2915,-4.2882,-4.2882,-4.291,-4.291,-4.2691,-4.1687,-3.9753,-3.9722,-3.9364,-3.8955,-3.8354,-3.7485,-3.5985,-3.3724,-3.1481,-3.0,-2.7433,-2.5052,-2.3419,-2.2403,-2.0797,-1.7705,-1.7334,-1.6617,-1.4237,-1.4405,-1.4621,-1.4071,-1.4236,-1.4361,-1.4589,-1.4209,-1.4027,-1.4442,-1.4636,-1.4998,-1.5775,-1.6498,-1.7253,-1.8167,-1.8895,-1.9529,-2.0001,-2.0847,-2.1527,-2.2124,-2.3559,-2.4504,-2.5028,-2.5975,-2.6867,-2.7657,-2.8712,-2.9324,-2.9617,-3.0003,-3.014,-3.0111,-3.0024,-3.0629,-3.1604,-3.1543,-3.1812,-3.236,-3.3352,-3.3661,-3.371,-3.4368,-3.4343,-3.4101,-3.4101,-3.4101,-3.4101,-3.4101,-3.4101,-3.4151,-3.4399,-3.4448,-3.4497,-3.4706,-3.4754,-3.515,-3.6637,-3.6951,-3.738,-3.8817,-3.9098,-3.9152,-3.9312,-3.9592,-3.9952,-4.059,-4.0269,-4.0334,-4.1499,-4.2041,-4.2291,-4.2303,-4.2294,-4.2287,-4.2287,-4.2287,-4.2287,-4.2287,-4.2287,-4.231,-4.2315,-4.2562,-4.2717,-4.2688,-4.2822,-4.288,-4.2882,-4.2882,-4.2897,-4.2925,-4.2925,-4.248,-3.8766,-3.9084,-3.9142,-3.9021,-3.8811,-3.8442,-3.7544,-3.5238,-3.2885,-3.1528,-2.8699,-2.5852,-2.3777,-2.252,-2.072,-1.7552,-1.7334,-1.6683,-1.3802,-1.4048,-1.4153,-1.3138,-1.291,-1.3085,-1.3804,-1.3566,-1.3686,-1.4316,-1.4402,-1.4893,-1.5891,-1.6453,-1.7261,-1.8567,-1.9054,-1.9687,-2.0459,-2.1375,-2.2285,-2.3265,-2.4455,-2.5382,-2.6045,-2.6663,-2.7657,-2.8839,-2.9401,-2.9602,-2.9679,-3.0276,-3.0606,-3.0771,-3.047,-3.1204,-3.2372,-3.2216,-3.2165,-3.2338,-3.2964,-3.3303,-3.3527,-3.3984,-3.4101,-3.4101,-3.4101,-3.4101,-3.4101,-3.4101,-3.4101,-3.4201,-3.4594,-3.4691,-3.4787,-3.5131,-3.5224,-3.5626,-3.7099,-3.7417,-3.7853,-3.9309,-3.9662,-3.9749,-3.9851,-4.0237,-4.0645,-4.1174,-4.1279,-4.1516,-4.2212,-4.2308,-4.2296,-4.2323,-4.2287,-4.2287,-4.2287,-4.2287,-4.2287,-4.2287,-4.2287,-4.2292,-4.2302,-4.2494,-4.2649,-4.2711,-4.2844,-4.2882,-4.2882,-4.2882,-4.2882,-4.2882,-4.2882,-4.2882,-3.7034,-3.7609,-3.7938,-3.7575,-3.8131,-3.8526,-3.7443,-3.5983,-3.4441,-3.3097,-3.0148,-2.7341,-2.5822,-2.3509,-2.0951,-1.8302,-1.7228,-1.5779,-1.3124,-1.251,-1.2158,-1.1524,-1.0226,-0.9842,-1.1112,-1.3003,-1.4143,-1.4122,-1.4102,-1.4095,-1.4173,-1.5801,-1.6698,-1.678,-1.8407,-1.9687,-2.0459,-2.1375,-2.222,-2.3001,-2.4909,-2.5755,-2.5881,-2.7617,-2.8839,-2.954,-2.9602,-2.9602,-2.9679,-3.0276,-3.0872,-3.1557,-3.206,-3.2361,-3.2475,-3.3013,-3.337,-3.3529,-3.3287,-3.3578,-3.4101,-3.4101,-3.4101,-3.4101,-3.4101,-3.4101,-3.4101,-3.4101,-3.4101,-3.4201,-3.4594,-3.4691,-3.4787,-3.5131,-3.5224,-3.5626,-3.7099,-3.7417,-3.7853,-3.9309,-3.98,-4.0103,-4.048,-4.0784,-4.1174,-4.1788,-4.1892,-4.1995,-4.2264,-4.2305,-4.2305,-4.2287,-4.2287,-4.2287,-4.2287,-4.2287,-4.2287,-4.2287,-4.2287,-4.2292,-4.2302,-4.2548,-4.2685,-4.2711,-4.2844,-4.2882,-4.2882,-4.2882,-4.2882,-4.2882,-4.2882,-4.2882,-3.5408,-3.5423,-3.5544,-3.6445,-3.6873,-3.7122,-3.7279,-3.6442,-3.5472,-3.4872,-3.2479,-3.0015,-2.8386,-2.5111,-2.1671,-1.8706,-1.6346,-1.4099,-1.1923,-1.1483,-1.1332,-1.0901,-1.0052,-0.9767,-1.0712,-1.0989,-1.1651,-1.2857,-1.3039,-1.3724,-1.4908,-1.6049,-1.6944,-1.7513,-1.8727,-1.9991,-2.1385,-2.168,-2.2446,-2.3824,-2.566,-2.6883,-2.763,-2.8712,-2.9401,-2.9602,-2.9898,-3.0083,-3.0144,-3.094,-3.144,-3.1661,-3.2231,-3.2567,-3.2803,-3.3329,-3.3557,-3.3662,-3.3761,-3.3933,-3.4101,-3.4101,-3.43,-3.4497,-3.4497,-3.4675,-3.4849,-3.4849,-3.4849,-3.4944,-3.5333,-3.5424,-3.5498,-3.5854,-3.5941,-3.6395,-3.8116,-3.8334,-3.8687,-4.0367,-4.0628,-4.0693,-4.0943,-4.1053,-4.1328,-4.1831,-4.2061,-4.2205,-4.2287,-4.2287,-4.2351,-4.2534,-4.2391,-4.2351,-4.2573,-4.2391,-4.2287,-4.2287,-4.2287,-4.2351,-4.2494,-4.2645,-4.2724,-4.2844,-4.2882,-4.2882,-4.2882,-4.2882,-4.2882,-4.2882,-4.2882,-4.2882,-3.309,-3.3096,-3.3217,-3.4206,-3.4942,-3.5663,-3.6557,-3.6231,-3.5792,-3.5926,-3.4215,-3.2087,-3.0071,-2.5901,-2.1842,-1.8909,-1.536,-1.2428,-1.0557,-1.0027,-0.9486,-0.8516,-0.8017,-0.7796,-0.7964,-0.8162,-0.9305,-1.1638,-1.2345,-1.3209,-1.4384,-1.5869,-1.6944,-1.7513,-1.8647,-2.007,-2.1756,-2.1832,-2.2936,-2.5205,-2.6693,-2.7907,-2.8917,-2.9401,-2.9665,-2.9837,-3.0144,-3.0372,-3.0613,-3.1379,-3.1682,-3.1739,-3.2231,-3.2594,-3.2966,-3.3477,-3.3758,-3.3949,-3.405,-3.4101,-3.4151,-3.425,-3.4497,-3.4739,-3.4818,-3.5055,-3.5224,-3.5224,-3.5224,-3.527,-3.5677,-3.5827,-3.5854,-3.6216,-3.6301,-3.6774,-3.8486,-3.8789,-3.9222,-4.0868,-4.1209,-4.1318,-4.1436,-4.1525,-4.1701,-4.2019,-4.2269,-4.2432,-4.2432,-4.2552,-4.2709,-4.2882,-4.2729,-4.2709,-4.2864,-4.2729,-4.2552,-4.2472,-4.2432,-4.2534,-4.2786,-4.2724,-4.284,-4.3142,-4.2975,-4.2882,-4.2882,-4.2882,-4.2882,-4.2882,-4.2882,-4.2882,-3.0247,-3.0601,-3.0911,-3.0968,-3.2355,-3.4033,-3.5111,-3.5273,-3.5362,-3.6114,-3.5247,-3.3561,-3.1008,-2.5825,-2.1205,-1.8767,-1.4179,-1.0401,-0.8857,-0.7959,-0.6687,-0.4501,-0.416,-0.3842,-0.3121,-0.4725,-0.72,-1.0428,-1.1832,-1.2619,-1.2705,-1.5199,-1.6609,-1.6698,-1.8407,-2.0148,-2.1756,-2.1907,-2.3616,-2.6883,-2.7868,-2.8753,-2.9665,-2.9665,-2.9898,-3.0326,-3.0372,-3.0613,-3.1087,-3.1552,-3.1739,-3.1796,-3.2231,-3.2633,-3.2989,-3.361,-3.4018,-3.4349,-3.4201,-3.4151,-3.425,-3.4594,-3.4739,-3.4835,-3.5131,-3.5224,-3.527,-3.527,-3.527,-3.5362,-3.5739,-3.5827,-3.5915,-3.6216,-3.6301,-3.6715,-3.8294,-3.8833,-3.946,-4.0958,-4.1613,-4.1934,-4.1917,-4.2145,-4.2328,-4.2328,-4.2573,-4.2732,-4.2693,-4.2995,-4.3214,-4.3196,-4.3214,-4.3214,-4.3196,-4.3214,-4.3069,-4.275,-4.2711,-4.2844,-4.316,-4.2824,-4.2918,-4.3571,-4.3142,-4.292,-4.292,-4.292,-4.2882,-4.2882,-4.2882,-4.2882,-2.8525,-2.8306,-2.8265,-2.9218,-2.9734,-3.0443,-3.1915,-3.2784,-3.3494,-3.4174,-3.4606,-3.4598,-3.3621,-2.5648,-1.8946,-1.8137,-1.0399,-0.4242,-0.3631,-0.3841,-0.3479,-0.201,-0.1367,-0.1084,-0.1333,-0.2129,-0.3721,-0.6555,-0.9026,-1.1052,-1.2619,-1.4594,-1.6003,-1.6698,-1.8948,-2.0692,-2.1766,-2.339,-2.5087,-2.6883,-2.7524,-2.8648,-3.0144,-3.0144,-3.0372,-3.0851,-3.1204,-3.1437,-3.1552,-3.2007,-3.2231,-3.2231,-3.2342,-3.2834,-3.3503,-3.3697,-3.4267,-3.4899,-3.4897,-3.4944,-3.4944,-3.5038,-3.527,-3.556,-3.5633,-3.581,-3.6028,-3.6028,-3.6028,-3.6028,-3.6174,-3.6174,-3.6216,-3.6301,-3.6301,-3.68,-3.8726,-3.9033,-3.9547,-4.1358,-4.1831,-4.1959,-4.2234,-4.2436,-4.2673,-4.2938,-4.3214,-4.3213,-4.275,-4.2995,-4.3268,-4.3495,-4.3339,-4.3268,-4.3495,-4.3304,-4.316,-4.3087,-4.2826,-4.2788,-4.3032,-4.2995,-4.3105,-4.3442,-4.332,-4.3266,-4.3266,-4.3014,-4.2882,-4.2882,-4.2882,-4.2882,-2.7178,-2.6947,-2.6812,-2.7551,-2.7827,-2.8366,-2.9985,-3.09,-3.1715,-3.3041,-3.4198,-3.4747,-3.3949,-2.4592,-1.5634,-1.1569,-0.4346,0.071,0.0548,0.0092,0.0461,0.2116,0.2382,0.2355,0.2215,0.0972,-0.0884,-0.3369,-0.7337,-1.026,-1.2009,-1.4183,-1.5771,-1.6698,-1.847,-2.0207,-2.1756,-2.4313,-2.602,-2.6883,-2.7855,-2.898,-3.0312,-3.0312,-3.0673,-3.1321,-3.1625,-3.1853,-3.2064,-3.2532,-3.2734,-3.2788,-3.3002,-3.3491,-3.4084,-3.4333,-3.4785,-3.535,-3.5588,-3.5677,-3.5677,-3.5498,-3.5633,-3.5827,-3.5941,-3.6174,-3.6301,-3.6301,-3.6301,-3.6301,-3.6301,-3.6301,-3.6326,-3.6533,-3.6557,-3.7097,-3.9186,-3.9603,-4.0144,-4.2092,-4.2476,-4.2516,-4.2711,-4.2826,-4.2995,-4.316,-4.3426,-4.3477,-4.3142,-4.3373,-4.3597,-4.3763,-4.3631,-4.3597,-4.3763,-4.3631,-4.3495,-4.3391,-4.3249,-4.3248,-4.3422,-4.3422,-4.3539,-4.3831,-4.367,-4.3557,-4.3406,-4.3213,-4.305,-4.2882,-4.2882,-4.2882,-2.5943,-2.5931,-2.5931,-2.5931,-2.6277,-2.7031,-2.8711,-2.9218,-2.9849,-3.1719,-3.3194,-3.3362,-3.0716,-2.1422,-1.1222,-0.2302,0.2817,0.5371,0.4612,0.4278,0.5037,0.7089,0.6633,0.6251,0.6643,0.4316,0.1762,-0.0619,-0.5632,-0.9347,-1.1052,-1.3607,-1.5696,-1.7163,-1.806,-1.9709,-2.2199,-2.5004,-2.6625,-2.7018,-2.8403,-2.9526,-3.0372,-3.0372,-3.0911,-3.1781,-3.1781,-3.2007,-3.2437,-3.2986,-3.3182,-3.3235,-3.3767,-3.4202,-3.4578,-3.5005,-3.5391,-3.5711,-3.6131,-3.6301,-3.6259,-3.5958,-3.5871,-3.5898,-3.6216,-3.6301,-3.6301,-3.6301,-3.6301,-3.6301,-3.6301,-3.6301,-3.6426,-3.6816,-3.6917,-3.7461,-3.9542,-4.0382,-4.1162,-4.2887,-4.3214,-4.3196,-4.3232,-4.3232,-4.3268,-4.3304,-4.3495,-4.3646,-4.3646,-4.386,-4.4005,-4.4005,-4.4005,-4.4005,-4.4005,-4.4005,-4.3892,-4.3697,-4.3758,-4.3868,-4.4016,-4.3924,-4.4016,-4.4383,-4.4106,-4.3818,-4.3523,-4.3422,-4.3249,-4.2957,-4.292,-4.2882,-2.4624,-2.448,-2.448,-2.448,-2.4541,-2.4957,-2.642,-2.7098,-2.7538,-2.7931,-2.9519,-2.7886,-1.815,-1.1541,-0.4771,0.3733,0.9302,1.1962,1.0334,0.9731,0.999,1.1318,1.1026,1.0592,1.0297,0.8009,0.5292,0.2291,-0.1667,-0.5883,-1.024,-1.2128,-1.5105,-1.9653,-2.0633,-2.2178,-2.442,-2.5742,-2.6773,-2.7591,-2.8624,-2.9699,-3.0911,-3.0911,-3.1364,-3.2287,-3.2287,-3.2342,-3.2437,-3.2986,-3.3182,-3.3235,-3.3767,-3.4284,-3.4785,-3.4975,-3.5391,-3.5975,-3.6165,-3.6233,-3.6301,-3.6216,-3.6216,-3.6216,-3.6301,-3.6301,-3.6301,-3.6301,-3.6301,-3.6301,-3.6301,-3.6301,-3.6402,-3.6719,-3.6891,-3.7538,-3.9654,-4.145,-4.2778,-4.3142,-4.3214,-4.3268,-4.3495,-4.3529,-4.3597,-4.3828,-4.3892,-4.3923,-4.3923,-4.3974,-4.4005,-4.4005,-4.4005,-4.4005,-4.4005,-4.4005,-4.4036,-4.4177,-4.3936,-4.3899,-4.4162,-4.4202,-4.4289,-4.4402,-4.4327,-4.4299,-4.4242,-4.367,-4.3371,-4.3301,-4.3014,-4.2882,-2.4337,-2.4108,-2.4047,-2.361,-2.3537,-2.3891,-2.5264,-2.5755,-2.6183,-2.6824,-2.3592,-1.8176,-1.0076,-0.1245,0.7519,1.5773,1.7368,1.7075,1.5474,1.4015,1.365,1.519,1.4276,1.3325,1.3016,1.0356,0.741,0.4318,0.0616,-0.361,-0.8384,-1.2082,-1.5599,-1.9006,-2.0864,-2.2649,-2.4337,-2.5545,-2.665,-2.7736,-2.8495,-2.9574,-3.1029,-3.1029,-3.1679,-3.2788,-3.2547,-3.2695,-3.3266,-3.3511,-3.3751,-3.4119,-3.4625,-3.5021,-3.5316,-3.5453,-3.5783,-3.6165,-3.6468,-3.6574,-3.6638,-3.686,-3.6638,-3.6301,-3.6301,-3.6301,-3.6343,-3.6557,-3.6597,-3.662,-3.6681,-3.6742,-3.6675,-3.6569,-3.7739,-3.9224,-4.0552,-4.2289,-4.3597,-4.3597,-4.3597,-4.3664,-4.3795,-4.3795,-4.386,-4.3974,-4.4005,-4.4005,-4.4005,-4.4005,-4.4005,-4.4005,-4.4005,-4.4005,-4.4005,-4.4116,-4.4207,-4.4285,-4.4288,-4.4327,-4.4439,-4.4549,-4.4629,-4.4655,-4.4655,-4.4584,-4.4383,-4.3893,-4.3557,-4.3406,-4.305,-4.2882,-2.4047,-2.3756,-2.3452,-2.2883,-2.2734,-2.3084,-2.4313,-2.4815,-2.5169,-2.573,-1.8208,-0.9524,-0.2881,0.7577,1.7876,2.6193,2.4022,2.0847,1.9481,1.7683,1.7009,1.8394,1.6951,1.5644,1.524,1.2525,0.9511,0.6433,0.194,-0.2738,-0.7505,-1.256,-1.6121,-1.7823,-2.0469,-2.2489,-2.3952,-2.5334,-2.6663,-2.7881,-2.856,-2.9637,-3.1029,-3.1087,-3.1849,-3.2986,-3.2695,-3.3055,-3.3869,-3.4086,-3.4431,-3.4864,-3.5379,-3.5667,-3.5817,-3.5932,-3.6105,-3.6343,-3.6741,-3.6921,-3.7094,-3.7395,-3.7094,-3.6557,-3.6557,-3.6557,-3.6638,-3.6939,-3.6981,-3.6988,-3.7127,-3.7201,-3.7077,-3.6674,-3.8597,-4.0732,-4.1514,-4.2903,-4.4005,-4.4005,-4.4005,-4.4005,-4.4005,-4.4005,-4.4005,-4.4005,-4.4005,-4.4005,-4.4005,-4.4005,-4.4005,-4.4005,-4.4005,-4.4005,-4.4005,-4.4147,-4.4285,-4.4344,-4.4551,-4.4685,-4.4738,-4.4846,-4.4895,-4.4895,-4.4895,-4.4777,-4.4511,-4.4095,-4.3754,-4.3508,-4.3087,-4.2882,-2.3316,-2.2574,-2.1983,-2.1907,-2.1907,-2.2134,-2.3021,-2.4108,-2.4434,-2.2573,-1.5682,-0.6309,0.5705,1.2722,1.9594,2.8459,2.6343,2.2931,2.0974,2.0826,2.0766,2.0237,1.9367,1.8369,1.7154,1.4937,1.2366,0.9347,0.2372,-0.4142,-0.9712,-1.3368,-1.6121,-1.7823,-2.0469,-2.2702,-2.4494,-2.5718,-2.7069,-2.8522,-2.9324,-3.0176,-3.1029,-3.1437,-3.1951,-3.2492,-3.2949,-3.3198,-3.3339,-3.4317,-3.4785,-3.4864,-3.5379,-3.5667,-3.5817,-3.5817,-3.6182,-3.6666,-3.6706,-3.702,-3.7469,-3.7505,-3.7469,-3.7395,-3.7395,-3.7395,-3.7395,-3.7414,-3.729,-3.7128,-3.7397,-3.7452,-3.7434,-3.7395,-3.8899,-4.067,-4.2038,-4.3194,-4.4005,-4.4005,-4.4005,-4.4005,-4.4005,-4.4005,-4.4005,-4.4005,-4.4005,-4.4005,-4.4005,-4.4005,-4.4005,-4.4005,-4.4005,-4.4005,-4.4005,-4.4005,-4.4158,-4.4458,-4.4496,-4.4632,-4.487,-4.4895,-4.4895,-4.4895,-4.4895,-4.487,-4.4846,-4.4213,-4.3881,-4.3849,-4.3213,-4.2882,-2.2574,-2.2059,-2.169,-2.1165,-2.1088,-2.1318,-2.2059,-2.2713,-2.123,-1.4755,-0.5609,0.454,1.5391,2.3322,2.8809,3.0653,2.7455,2.4116,2.2362,2.14,2.0947,2.1192,2.0035,1.8811,1.7806,1.5481,1.1991,0.7128,0.1938,-0.3001,-0.7683,-1.2053,-1.5755,-1.8514,-2.0968,-2.3261,-2.5392,-2.6183,-2.7229,-2.8587,-2.9198,-3.0054,-3.1029,-3.1495,-3.216,-3.2895,-3.3093,-3.3547,-3.4219,-3.4625,-3.4975,-3.5316,-3.5532,-3.5711,-3.5932,-3.5932,-3.6174,-3.6498,-3.6741,-3.7114,-3.7542,-3.7756,-3.8016,-3.8135,-3.765,-3.7505,-3.7542,-3.7809,-3.7772,-3.7787,-3.8111,-3.8346,-3.8446,-3.8449,-4.0548,-4.2483,-4.2433,-4.3231,-4.4005,-4.4005,-4.3615,-4.328,-4.328,-4.2872,-4.2556,-4.2556,-4.2556,-4.2556,-4.2556,-4.2556,-4.2742,-4.3225,-4.3708,-4.4005,-4.4005,-4.4188,-4.4354,-4.4487,-4.4659,-4.4789,-4.4914,-4.4895,-4.4895,-4.4895,-4.4895,-4.4895,-4.4895,-4.4231,-4.3912,-4.3881,-4.3213,-4.2882,-2.2134,-2.1614,-2.0605,-1.7007,-1.6085,-1.6215,-1.6482,-1.4644,-1.1602,-0.7321,0.3826,1.4799,2.138,2.9072,3.3476,3.0602,2.7213,2.4401,2.2967,2.1599,2.0961,2.1615,2.0218,1.8879,1.8008,1.4949,1.0867,0.5717,0.1941,-0.2033,-0.6189,-1.1006,-1.4986,-1.786,-2.0795,-2.3261,-2.5169,-2.6057,-2.7175,-2.8587,-2.9247,-3.004,-3.1029,-3.1807,-3.2516,-3.3235,-3.3547,-3.4103,-3.4816,-3.4975,-3.527,-3.5622,-3.5622,-3.58,-3.6019,-3.6156,-3.6392,-3.6719,-3.7132,-3.7505,-3.7913,-3.8186,-3.8483,-3.8596,-3.8034,-3.7844,-3.7913,-3.8219,-3.8285,-3.835,-3.8713,-3.8899,-3.9254,-4.03,-4.2314,-4.3718,-4.263,-4.3045,-4.3578,-4.3336,-4.2835,-4.2445,-4.2445,-4.198,-4.159,-4.159,-4.159,-4.159,-4.159,-4.159,-4.1813,-4.237,-4.2976,-4.3546,-4.403,-4.4296,-4.4468,-4.4551,-4.4738,-4.4846,-4.4895,-4.4895,-4.4895,-4.4895,-4.4895,-4.4895,-4.4895,-4.4346,-4.4004,-4.3881,-4.3301,-4.2976,-2.1983,-2.1242,-1.8188,-0.8057,-0.5556,-0.5382,-0.4593,0.2153,0.6122,-0.1146,1.0965,2.2698,2.2204,2.7216,3.0498,2.7588,2.5394,2.3642,2.2514,2.173,2.14,2.1642,2.014,1.8801,1.8016,1.3467,0.9434,0.6496,0.2644,-0.159,-0.6189,-1.057,-1.3658,-1.5306,-1.9575,-2.2328,-2.3436,-2.5098,-2.6812,-2.8587,-2.9546,-3.0329,-3.1073,-3.254,-3.3182,-3.3235,-3.4317,-3.4769,-3.4833,-3.5379,-3.5577,-3.5622,-3.5773,-3.5905,-3.6062,-3.6522,-3.702,-3.7542,-3.7948,-3.8368,-3.8676,-3.8707,-3.8707,-3.8707,-3.8707,-3.8676,-3.8676,-3.8707,-3.8707,-3.8756,-3.9029,-3.891,-3.9579,-4.3114,-4.3957,-4.3703,-4.263,-4.26,-4.2575,-4.1776,-4.1609,-4.1609,-4.1609,-4.1609,-4.159,-4.159,-4.159,-4.159,-4.159,-4.159,-4.159,-4.1609,-4.1754,-4.2492,-4.4154,-4.4285,-4.443,-4.4685,-4.4712,-4.4745,-4.4895,-4.4895,-4.4895,-4.4895,-4.4895,-4.4895,-4.4895,-4.4557,-4.4213,-4.3881,-4.3557,-4.3213,-2.1983,-1.6131,-0.9518,-0.6278,-0.0115,0.5157,0.5399,0.763,1.0583,1.3884,1.905,2.4352,2.8795,2.9576,2.884,2.6712,2.4168,2.2187,2.1588,2.1547,2.1624,2.1731,1.9694,1.8091,1.7568,1.363,1.0062,0.7483,0.3707,-0.0177,-0.4261,-0.8767,-1.2782,-1.606,-2.013,-2.2955,-2.4184,-2.5685,-2.7351,-2.9071,-2.9718,-3.051,-3.1495,-3.2664,-3.3182,-3.3235,-3.4317,-3.4769,-3.4833,-3.5379,-3.5783,-3.6088,-3.6199,-3.6457,-3.6843,-3.7041,-3.7285,-3.7505,-3.765,-3.7948,-3.8285,-3.8285,-3.8483,-3.8707,-3.8707,-3.8707,-3.8707,-3.875,-3.8737,-3.8711,-3.8789,-3.8894,-3.9258,-4.037,-4.1237,-4.1733,-4.1393,-4.1653,-4.1887,-4.1646,-4.1144,-4.0773,-4.0773,-4.029,-3.9881,-3.9881,-3.9881,-3.9881,-3.9881,-3.9965,-4.0244,-4.0868,-4.1033,-4.1742,-4.3287,-4.3624,-4.4022,-4.4674,-4.4789,-4.4865,-4.4895,-4.4895,-4.4895,-4.4895,-4.4895,-4.4895,-4.4895,-4.4557,-4.4106,-4.3557,-4.3474,-4.3213,-1.664,-0.8022,0.1252,0.506,1.0697,1.541,1.5686,1.8059,2.0622,2.204,2.4561,2.7401,3.0456,2.8793,2.6311,2.4247,2.2439,2.1144,2.095,2.1044,2.0944,2.0436,1.8891,1.7423,1.629,1.3151,1.0072,0.7505,0.3982,0.0355,-0.3382,-0.7997,-1.2018,-1.5383,-1.9559,-2.2552,-2.4112,-2.5857,-2.7604,-2.9261,-3.0025,-3.0807,-3.1667,-3.2718,-3.3303,-3.3547,-3.4415,-3.4927,0.0,-3.547,-3.5783,-3.6045,-3.6308,-3.6661,-3.7038,-3.7414,-3.7632,-3.7756,-3.7913,-3.8101,-3.8336,-3.8336,-3.8483,-3.8707,-3.8707,-3.8707,-3.8707,-3.875,-3.8755,-3.8759,-3.877,-3.8942,-3.9212,-3.9637,-4.0298,-4.0764,-4.0669,-4.0892,-4.1051,-4.0717,-4.0253,-3.99,-3.99,-3.9454,-3.9101,-3.9101,-3.9101,-3.9129,-3.9183,-3.9245,-3.953,-4.0124,-4.0309,-4.0904,-4.2133,-4.3024,-4.3731,-4.4298,-4.4694,-4.4895,-4.4895,-4.4895,-4.4895,-4.4895,-4.4895,-4.4895,-4.4895,-4.4557,-4.4184,-4.3767,-4.3656,-4.3474,0.0,0.2336,1.3071,2.2358,2.4847,2.5186,2.5813,3.1457,0.0,2.4575,2.761,3.1024,2.7894,2.5473,2.3213,2.0881,2.0451,2.0437,2.0521,2.0404,1.994,1.8628,1.8153,1.699,1.4763,1.2388,0.9721,0.6646,0.3548,0.0266,-0.3382,-0.791,-1.1448,-1.3851,-1.8073,-2.1329,-2.3363,-2.5669,-2.7644,-2.9162,-3.0389,-3.116,-3.1652,-3.2772,-3.3563,-3.4086,-3.4625,-3.5131,-3.5622,-3.5622,-3.5622,-3.5694,-3.6266,-3.6539,-3.6821,-3.7703,-3.8086,-3.8219,-3.8564,-3.8707,-3.8707,-3.8707,-3.8707,-3.8707,-3.8707,-3.8707,-3.8707,-3.8707,-3.8817,-3.8907,-3.891,-3.9005,-3.9369,-4.043,-4.07,-4.0597,-4.0346,-4.0308,-4.0067,-3.925,-3.9101,-3.9101,-3.9101,-3.9101,-3.9101,-3.9101,-3.9101,-3.9156,-3.9272,-3.9324,-3.9376,-3.9502,-3.9628,-4.0037,-4.0844,-4.241,-4.3404,-4.3606,-4.4364,-4.4819,-4.4819,-4.4876,-4.4895,-4.4895,-4.4895,-4.4895,-4.4895,-4.4584,-4.4411,-4.4383,-4.4095,-4.3912,0.1374,0.0,2.0034,2.1196,2.7779,3.3536,0.0,3.3437,3.3884,2.9034,2.8857,2.8536,2.5357,2.2999,2.137,2.0613,2.0279,2.0183,2.0437,2.1044,2.1239,2.0873,1.91,1.7431,1.6089,1.3101,0.9995,0.6828,0.3811,0.0443,-0.3114,-0.7239,-1.0883,-1.3851,-1.7506,-2.0678,-2.3363,-2.5216,-2.7365,-2.978,-3.0072,-3.1174,-3.281,-3.3495,-3.4119,-3.4625,-3.5178,-3.547,-3.5622,-3.5622,-3.5783,-3.6199,-3.6764,-3.721,-3.7596,-3.8285,-3.8564,-3.8564,-3.8676,-3.8707,-3.8707,-3.8707,-3.8707,-3.8707,-3.8707,-3.8707,-3.8719,-3.8766,-3.8796,-3.8855,-3.9017,-3.9092,-3.9166,-3.9435,-3.9491,-3.9472,-3.9417,-3.9398,-3.9342,-3.9138,-3.9101,-3.9101,-3.9101,-3.9101,-3.9101,-3.9101,-3.9101,-3.9156,-3.9272,-3.9401,-3.9483,-3.9647,-3.9781,-3.9943,-4.0151,-4.1135,-4.2006,-4.2659,-4.3512,-4.3985,-4.3985,-4.4573,-4.4895,-4.4895,-4.4895,-4.4895,-4.4895,-4.4802,-4.4655,-4.4402,-4.4327,-4.4154,0.3555,1.4524,2.461,2.3224,2.7819,3.2256,3.0626,3.0639,3.0266,2.7729,2.6561,2.5169,2.2461,2.0821,1.9856,1.9902,1.9925,2.0139,2.0939,2.1085,2.0907,2.0447,1.8669,1.6662,1.4705,1.2739,1.0017,0.6407,0.3638,0.0532,-0.3025,-0.6987,-1.0792,-1.4386,-1.7498,-2.0515,-2.3363,-2.5344,-2.7485,-2.9766,-3.0497,-3.1588,-3.3039,-3.3716,-3.4284,-3.4833,-3.5131,-3.5498,-3.5915,-3.5915,-3.6199,-3.6661,-3.7208,-3.7614,-3.7911,-3.8415,-3.8658,-3.8707,-3.8707,-3.8707,-3.8707,-3.8707,-3.8707,-3.8707,-3.8707,-3.8719,-3.8762,-3.8785,-3.8855,-3.8913,-3.9054,-3.9092,-3.9101,-3.9101,-3.9101,-3.9101,-3.9101,-3.9101,-3.9101,-3.9101,-3.9101,-3.9101,-3.9101,-3.9101,-3.9101,-3.9101,-3.9101,-3.9165,-3.9376,-3.9452,-3.9556,-3.9781,-3.9867,-3.9889,-3.9889,-4.0347,-4.0972,-4.1806,-4.264,-4.3095,-4.3095,-4.391,-4.4516,-4.4895,-4.4895,-4.4895,-4.4895,-4.4895,-4.4802,-4.4636,-4.4636,-4.453,0.2481,1.4303,2.5226,2.5364,2.6294,2.6989,2.6075,2.5811,2.5411,2.3886,2.2861,2.1709,1.9984,1.9152,1.8869,1.9215,1.9724,2.044,2.1542,2.0898,1.9977,1.9155,1.7751,1.5679,1.2677,1.2081,1.0051,0.5811,0.3377,0.0532,-0.2935,-0.6987,-1.0947,-1.4846,-1.7641,-2.0515,-2.3363,-2.5726,-2.7802,-2.9566,-3.1099,-3.2204,-3.2986,-3.3767,-3.4464,-3.5005,-3.5005,-3.5554,-3.6367,-3.6367,-3.6638,-3.702,-3.7523,-3.7774,-3.7946,-3.8364,-3.8609,-3.8707,-3.8707,-3.8707,-3.8707,-3.8707,-3.8738,-3.875,-3.875,-3.8851,-3.895,-3.8892,-3.8921,-3.9026,-3.9081,-3.9101,-3.9101,-3.9101,-3.9101,-3.9101,-3.9101,-3.9101,-3.9101,-3.9101,-3.911,-3.9156,-3.9156,-3.9192,-3.9219,-3.9219,-3.9219,-3.9305,-3.9556,-3.9585,-3.9675,-3.9892,-3.9914,-3.9933,-3.9911,-3.9889,-4.0233,-4.0953,-4.1768,-4.228,-4.2393,-4.3114,-4.3891,-4.4706,-4.4724,-4.4781,-4.4895,-4.4895,-4.4914,-4.4938,-4.4895,-4.4914,0.0726,0.819,1.6229,2.1925,2.4431,2.4959,2.2853,2.2767,2.2732,2.1271,2.0602,1.9974,1.9027,1.9012,1.9197,1.9259,2.0201,2.1094,2.1667,2.0898,2.0249,2.0068,1.8198,1.6035,1.3724,1.2422,1.0056,0.5991,0.3466,0.0621,-0.2667,-0.6896,-1.0716,-1.4005,-1.7338,-2.0515,-2.3363,-2.5726,-2.7867,-2.9766,-3.1157,-3.2447,-3.3684,-3.4366,-3.5191,-3.6071,-3.6071,-3.635,-3.6821,-3.6821,-3.686,-3.6978,-3.7578,-3.7791,-3.7895,-3.8465,-3.8658,-3.8707,-3.8707,-3.8707,-3.8707,-3.8707,-3.8851,-3.9045,-3.9045,-3.9298,-3.9508,-3.9298,-3.9101,-3.9026,-3.9092,-3.9101,-3.9101,-3.9101,-3.9101,-3.9101,-3.9101,-3.9101,-3.9101,-3.9101,-3.9272,-3.9452,-3.9452,-3.9566,-3.9687,-3.9687,-3.9731,-3.9838,-4.0001,-4.0004,-4.0024,-4.0061,-4.0061,-4.002,-3.9911,-3.9889,-3.9946,-4.01,-4.0915,-4.1692,-4.2375,-4.2545,-4.3,-4.3872,-4.3891,-4.4213,-4.4895,-4.4895,-4.4919,-4.4967,-4.4919,-4.4919,0.0791,0.6037,1.1359,1.6214,1.9364,2.0872,1.9431,2.0014,2.0477,1.9307,1.9325,1.9344,1.8834,1.8833,1.9181,1.9841,2.0753,2.1325,2.097,2.0076,1.9247,1.8703,1.7272,1.5471,1.3222,1.2444,1.031,0.6181,0.3757,0.0975,-0.2578,-0.7048,-1.1096,-1.4455,-1.7968,-2.1146,-2.4028,-2.5946,-2.7802,-2.9628,-3.1099,-3.2447,-3.3735,-3.4464,-3.5328,-3.6301,-3.6301,-3.6638,-3.7228,-3.7228,-3.7395,-3.7685,-3.8016,-3.815,-3.8216,-3.8578,-3.881,-3.891,-3.875,-3.8881,-3.9101,-3.895,-3.9101,-3.9324,-3.9313,-3.9508,-3.9675,-3.9561,-3.9408,-3.9272,-3.9298,-3.9324,-3.9331,-3.9445,-3.947,-3.947,-3.947,-3.947,-3.947,-3.947,-3.9566,-3.966,-3.966,-3.975,-3.9819,-3.9859,-3.988,-3.9943,-4.0082,-4.0101,-4.0138,-4.0194,-4.0212,-4.0139,-4.002,-4.0,-3.9977,-3.9911,-4.0338,-4.0946,-4.173,-4.1819,-4.2218,-4.2981,-4.3,-4.3189,-4.3549,-4.4023,-4.4275,-4.4364,-4.4778,-4.4991,0.0529,0.4915,0.8858,1.1503,1.4913,1.7538,1.7041,1.8014,1.8834,1.8121,1.8594,1.91,1.8896,1.9057,1.9569,2.0601,2.1328,2.1463,2.0718,1.9795,1.8788,1.7785,1.6763,1.522,1.277,1.2112,1.0242,0.6308,0.3716,0.0805,-0.2596,-0.6944,-1.0852,-1.4378,-1.8294,-2.1655,-2.435,-2.6177,-2.7933,-2.9504,-3.12,-3.2555,-3.3633,-3.456,-3.5481,-3.6301,-3.6409,-3.6821,-3.7505,-3.7632,-3.7915,-3.8307,-3.8368,-3.8446,-3.8559,-3.8658,-3.8822,-3.8979,-3.8851,-3.9073,-3.9401,-3.9245,-3.9376,-3.9604,-3.9595,-3.9705,-3.9854,-3.9816,-3.9728,-3.9651,-3.9604,-3.9561,-3.9609,-3.9754,-3.9797,-3.9797,-3.9797,-3.9797,-3.9797,-3.9797,-3.984,-3.9882,-3.9903,-3.9944,-3.9984,-4.0062,-4.0082,-4.012,-4.0227,-4.0245,-4.0298,-4.0351,-4.0351,-4.03,-4.0177,-4.012,-4.006,-3.9956,-4.002,-4.0304,-4.0877,-4.0988,-4.1388,-4.2109,-4.2128,-4.2223,-4.2435,-4.3099,-4.3468,-4.3555,-4.4349,-4.4734,-0.1332,0.4039,0.9,1.0328,1.36,1.6558,1.6648,1.7465,1.8121,1.8031,1.8362,1.8887,1.9162,2.0147,2.1039,2.1575,2.1695,2.1651,2.1642,2.0808,1.9795,1.8788,1.7785,1.596,1.277,1.1581,0.9588,0.6347,0.2872,-0.0183,-0.265,-0.5914,-0.9164,-1.2248,-1.7543,-2.1445,-2.3745,-2.637,-2.8271,-2.9504,-3.1596,-3.2898,-3.3633,-3.4958,-3.5827,-3.6343,-3.6701,-3.7094,-3.7542,-3.7967,-3.8207,-3.8307,-3.8368,-3.8515,-3.8707,-3.8707,-3.8707,-3.875,-3.9007,-3.9101,-3.9183,-3.9401,-3.9647,-3.9873,-3.9878,-4.01,-4.0307,-4.012,-4.0101,-4.0101,-3.984,-3.9775,-3.9775,-3.9797,-3.9797,-3.9797,-3.9797,-3.9797,-3.9797,-3.9797,-3.9983,-4.0177,-4.0175,-4.0389,-4.0539,-4.0545,-4.0607,-4.064,-4.0654,-4.07,-4.0668,-4.0511,-4.0496,-4.0431,-4.03,-4.0157,-4.0101,-4.0081,-3.9977,-3.993,-3.9984,-4.0006,-4.0404,-4.1275,-4.1294,-4.1677,-4.2503,-4.256,-4.2642,-4.2806,-4.3545,-4.3926,-0.0444,0.3712,0.741,0.9269,1.2196,1.5191,1.7107,1.7772,1.8175,1.8665,1.8913,1.9199,1.9607,2.0291,2.0698,2.0483,2.1114,2.1275,2.0076,1.9953,1.942,1.8071,1.6951,1.538,1.289,1.1582,0.9609,0.6361,0.335,0.0365,-0.2609,-0.5815,-0.8858,-1.1992,-1.8197,-2.266,-2.5183,-2.6879,-2.873,-3.0837,-3.1697,-3.2808,-3.4103,-3.5111,-3.5933,-3.6719,-3.7094,-3.7523,-3.7933,-3.814,-3.8225,-3.8241,-3.8368,-3.8496,-3.8707,-3.8707,-3.87,-3.8718,-3.8826,-3.9165,-3.9599,-3.9519,-3.9791,-4.0158,-4.0252,-4.0362,-4.0449,-4.0375,-4.0372,-4.0339,-4.0101,-4.0042,-4.0081,-4.0212,-4.023,-4.023,-4.023,-4.023,-4.023,-4.023,-4.0319,-4.0389,-4.0441,-4.0523,-4.0603,-4.0654,-4.0668,-4.0733,-4.0746,-4.079,-4.0759,-4.07,-4.0574,-4.0477,-4.0431,-4.03,-4.0176,-4.0101,-4.006,-3.9998,-3.9911,-3.9977,-4.015,-4.0404,-4.0426,-4.0621,-4.0946,-4.148,-4.1791,-4.1912,-4.273,-4.3151,-0.1063,0.2835,0.6304,0.7895,1.0758,1.3756,1.6167,1.7415,1.8158,1.8736,1.9343,1.9813,1.9897,2.055,2.0857,2.021,2.1015,2.1275,1.9894,2.0103,1.9762,1.7978,1.6865,1.5295,1.2901,1.1233,0.9165,0.6358,0.326,0.0457,-0.207,-0.5824,-0.9231,-1.2015,-1.8846,-2.359,-2.611,-2.7361,-2.9316,-3.2002,-3.2191,-3.2997,-3.4426,-3.5351,-3.6229,-3.6939,-3.7197,-3.7471,-3.7823,-3.8104,-3.8207,-3.8238,-3.8433,-3.8578,-3.8707,-3.8707,-3.87,-3.8699,-3.8796,-3.921,-3.9647,-3.9614,-3.9859,-4.0196,-4.0415,-4.0466,-4.0499,-4.0508,-4.0489,-4.0473,-4.0321,-4.0304,-4.0321,-4.0473,-4.0489,-4.0489,-4.0489,-4.0489,-4.0489,-4.0489,-4.0523,-4.0539,-4.0583,-4.0617,-4.0646,-4.0733,-4.0733,-4.0746,-4.079,-4.079,-4.079,-4.079,-4.0668,-4.0588,-4.0588,-4.045,-4.0334,-4.023,-4.0212,-4.012,-3.9911,-4.0019,-4.0039,-3.9933,-4.0015,-4.0057,-4.0077,-4.0649,-4.0976,-4.1074,-4.1913,-4.2353,-0.3726,0.0973,0.5778,0.6298,0.9191,1.2345,1.3678,1.6085,1.7997,1.7997,1.9524,2.0643,1.9998,2.1087,2.1859,2.1172,2.1447,2.1722,2.1722,2.1689,2.0993,1.9072,1.7857,1.5915,1.2836,1.0441,0.8188,0.6255,0.2421,-0.0184,-0.0921,-0.6034,-0.9923,-1.205,-1.9301,-2.41,-2.611,-2.7722,-3.0021,-3.2898,-3.3093,-3.3632,-3.4359,-3.5832,-3.665,-3.6921,-3.6891,-3.6897,-3.6969,-3.7841,-3.8219,-3.8342,-3.8609,-3.8707,-3.8707,-3.8707,-3.8707,-3.875,-3.9007,-3.9101,-3.921,-3.9739,-3.9897,-3.9962,-4.0307,-4.0449,-4.0499,-4.0508,-4.0489,-4.0489,-4.0489,-4.0489,-4.0489,-4.0489,-4.0489,-4.0489,-4.0489,-4.0489,-4.0489,-4.0489,-4.0539,-4.0603,-4.0607,-4.0654,-4.0713,-4.079,-4.079,-4.079,-4.079,-4.079,-4.079,-4.079,-4.079,-4.079,-4.079,-4.0621,-4.0511,-4.0511,-4.0442,-4.0264,-3.9933,-3.9975,-3.9996,-3.9996,-4.0057,-4.0137,-4.0196,-4.0196,-4.0234,-4.0329,-4.1113,-4.1495,-0.3095,0.0266,0.3474,0.5783,0.7895,0.9817,1.1643,1.4678,1.7423,1.8647,1.9334,1.9795,1.9897,2.0228,2.0343,1.9806,2.0368,2.0621,1.9922,1.9878,1.9692,1.9024,1.687,1.5084,1.4135,1.214,0.9884,0.7217,0.4227,0.1458,-0.0902,-0.461,-0.933,-1.5174,-2.0401,-2.4973,-2.8933,-2.9568,-3.114,-3.3742,-3.4582,-3.5294,-3.5949,-3.6802,-3.725,-3.734,-3.7667,-3.7823,-3.7823,-3.8104,-3.8547,-3.9153,-3.925,-3.9239,-3.9264,-3.9101,-3.9194,-3.9357,-3.9175,-3.935,-3.9717,-3.9899,-4.01,-4.027,-4.0427,-4.0476,-4.0492,-4.0489,-4.0489,-4.0489,-4.0489,-4.0489,-4.0489,-4.0489,-4.0489,-4.0489,-4.0489,-4.0489,-4.0489,-4.0489,-4.0539,-4.0603,-4.0607,-4.0654,-4.0713,-4.079,-4.079,-4.079,-4.079,-4.079,-4.079,-4.079,-4.079,-4.079,-4.079,-4.0746,-4.0654,-4.0511,-4.0535,-4.0457,-4.0264,-4.023,-4.0213,-4.0213,-4.0177,-4.0176,-4.0196,-4.0253,-4.0272,-4.031,-4.054,-4.0654,-0.3537,-0.0622,0.2231,0.4548,0.6577,0.8761,1.1724,1.4601,1.718,1.8975,1.951,1.9657,1.9668,2.0025,2.0108,1.9512,1.9991,2.0352,1.9862,1.9738,1.9341,1.8175,1.6585,1.5103,1.4199,1.285,1.0899,0.8046,0.5779,0.3236,0.0357,-0.3612,-0.8431,-1.4028,-1.9625,-2.4438,-2.8266,-2.9713,-3.1749,-3.4331,-3.5245,-3.6219,-3.717,-3.7596,-3.7792,-3.7792,-3.8072,-3.8328,-3.8514,-3.851,-3.8915,-3.9547,-3.9538,-3.9514,-3.9502,-3.9362,-3.9451,-3.9596,-3.9343,-3.9458,-3.9762,-3.9918,-4.01,-4.027,-4.0427,-4.0492,-4.0489,-4.0489,-4.0489,-4.0489,-4.0489,-4.0489,-4.0489,-4.0489,-4.0489,-4.0523,-4.0539,-4.0539,-4.0539,-4.0534,-4.0583,-4.0646,-4.064,-4.07,-4.0746,-4.079,-4.079,-4.079,-4.079,-4.079,-4.079,-4.079,-4.079,-4.0803,-4.0788,-4.0788,-4.0757,-4.0662,-4.0723,-4.0715,-4.0636,-4.0501,-4.038,-4.0334,-4.0323,-4.029,-4.0253,-4.0272,-4.031,-4.031,-4.031,-4.031,-0.4963,-0.1776,0.1338,0.2681,0.551,0.9005,1.2971,1.535,1.718,1.8816,1.9684,1.9922,1.9375,2.0079,2.0541,1.9934,2.0173,2.0513,2.0736,2.0416,1.935,1.711,1.6753,1.5837,1.3754,1.3114,1.1742,0.8948,0.7257,0.5142,0.2232,-0.2879,-0.7332,-1.0669,-1.7726,-2.2866,-2.5784,-2.8962,-3.1974,-3.4751,-3.5521,-3.6685,-3.8086,-3.8189,-3.8241,-3.8256,-3.8256,-3.8542,-3.9019,-3.9006,-3.9231,-3.9619,-3.9614,-3.9596,-3.9575,-3.9551,-3.9532,-3.9575,-3.9532,-3.9556,-3.9604,-3.9851,-3.9981,-4.0101,-4.0325,-4.0444,-4.0489,-4.0489,-4.0489,-4.0489,-4.0489,-4.0489,-4.0489,-4.0489,-4.0489,-4.0523,-4.0573,-4.0607,-4.0603,-4.0593,-4.0654,-4.07,-4.07,-4.0765,-4.079,-4.079,-4.079,-4.079,-4.079,-4.079,-4.079,-4.079,-4.0803,-4.0808,-4.0807,-4.0818,-4.0839,-4.0907,-4.0952,-4.0996,-4.0996,-4.0757,-4.0563,-4.0454,-4.0489,-4.0427,-4.031,-4.031,-4.031,-4.031,-4.031,-4.031,-0.6812,-0.4082,-0.1513,0.1338,0.567,0.9784,1.2099,1.4733,1.7025,1.8078,1.8388,1.8673,1.9231,1.9528,1.962,1.9448,1.9503,1.9567,1.9657,1.8823,1.8361,1.8702,1.7072,1.6162,1.6565,1.5521,1.3646,1.0797,0.9833,0.7219,0.232,-0.0789,-0.5881,-1.34,-1.7226,-2.2208,-2.8548,-3.077,-3.2886,-3.4863,-3.6647,-3.7851,-3.8548,-3.8523,-3.8628,-3.8828,-3.8828,-3.8876,-3.8998,-3.9064,-3.9324,-3.9679,-3.967,-3.9851,-4.0098,-3.9892,-3.9954,-4.0098,-3.9892,-3.9958,-4.0158,-4.0252,-4.0344,-4.0413,-4.046,-4.0492,-4.0489,-4.0489,-4.0489,-4.0489,-4.0489,-4.0489,-4.0489,-4.0489,-4.0489,-4.0504,-4.0523,-4.0573,-4.0607,-4.0603,-4.066,-4.07,-4.07,-4.0765,-4.079,-4.079,-4.079,-4.079,-4.079,-4.079,-4.079,-4.079,-4.08,-4.0796,-4.0807,-4.0849,-4.0878,-4.0907,-4.0952,-4.0996,-4.0996,-4.0888,-4.0819,-4.0787,-4.0602,-4.0492,-4.046,-4.0345,-4.031,-4.031,-4.031,-4.031,-0.7781,-0.5764,-0.3466,0.0356,0.4251,0.7683,0.9866,1.2172,1.4296,1.5831,1.7407,1.8727,1.9222,1.9301,1.9301,1.9301,1.9325,1.9307,1.9292,1.8815,1.8603,1.92,1.821,1.7228,1.6605,1.6648,1.5501,1.2777,1.2257,1.0404,0.6737,0.1991,-0.2972,-0.8093,-1.5187,-2.1424,-2.6635,-3.0432,-3.3502,-3.5907,-3.7274,-3.8264,-3.899,-3.8847,-3.8857,-3.9008,-3.9008,-3.909,-3.9242,-3.932,-3.9561,-3.9892,-3.9937,-4.0099,-4.0272,-4.0138,-4.0176,-4.0291,-4.0157,-4.0177,-4.0307,-4.0325,-4.0432,-4.0502,-4.0495,-4.0492,-4.0489,-4.0489,-4.0489,-4.0489,-4.0489,-4.0489,-4.0489,-4.0489,-4.0489,-4.0504,-4.0549,-4.0583,-4.0631,-4.0679,-4.072,-4.0746,-4.0746,-4.0778,-4.079,-4.079,-4.079,-4.079,-4.079,-4.079,-4.079,-4.079,-4.0792,-4.0818,-4.0849,-4.0917,-4.0952,-4.0988,-4.103,-4.1045,-4.1045,-4.1003,-4.0971,-4.0907,-4.0754,-4.0655,-4.0607,-4.0519,-4.0492,-4.0492,-4.0492,-4.046,-0.9,-0.7169,-0.4879,-0.0621,0.2304,0.4782,0.7085,0.9256,1.1406,1.3134,1.6226,1.8727,1.9054,1.9054,1.9134,1.9371,1.9358,1.9409,1.9696,1.9446,1.9464,1.9963,1.9869,1.8877,1.6667,1.7785,1.759,1.5043,1.5029,1.4186,1.1873,0.5352,0.033,-0.263,-1.345,-2.1029,-2.4883,-3.0268,-3.437,-3.7059,-3.7796,-3.8559,-3.9401,-3.9216,-3.9144,-3.9144,-3.9144,-3.9294,-3.9575,-3.9647,-3.9848,-4.0117,-4.0176,-4.0253,-4.031,-4.031,-4.031,-4.031,-4.031,-4.0309,-4.0307,-4.0307,-4.0396,-4.0502,-4.0499,-4.0511,-4.0504,-4.0534,-4.0519,-4.0504,-4.0534,-4.0519,-4.0489,-4.0489,-4.0489,-4.0519,-4.0593,-4.0607,-4.0635,-4.0759,-4.079,-4.079,-4.079,-4.079,-4.079,-4.079,-4.079,-4.079,-4.079,-4.079,-4.0803,-4.0796,-4.0804,-4.0849,-4.0917,-4.098,-4.1038,-4.1104,-4.111,-4.111,-4.111,-4.111,-4.1045,-4.0935,-4.0917,-4.0849,-4.073,-4.0706,-4.0694,-4.0694,-4.0694,-4.0642,-1.161,-0.8896,-0.5654,-0.1773,0.0796,0.2908,0.4678,0.8072,1.0851,1.1192,1.3697,1.637,1.7917,1.8158,1.8559,1.9844,1.9678,1.9775,2.1286,2.0196,2.0167,2.2476,2.214,2.1436,2.069,2.1192,2.0559,1.8224,1.9204,1.7926,1.3453,0.9761,0.2959,-0.7647,-1.47,-2.2129,-3.0116,-3.3829,-3.6244,-3.7356,-3.8776,-3.9585,-3.9823,-3.9804,-3.9781,-3.9781,-3.9781,-3.9804,-3.9867,-3.9975,-4.0057,-4.0117,-4.0234,-4.0291,-4.031,-4.031,-4.031,-4.031,-4.031,-4.0309,-4.0307,-4.0362,-4.0432,-4.0499,-4.0492,-4.0489,-4.0519,-4.0642,-4.0588,-4.0534,-4.0642,-4.0593,-4.0489,-4.0489,-4.0489,-4.0523,-4.0588,-4.0612,-4.0621,-4.07,-4.0759,-4.079,-4.079,-4.079,-4.079,-4.079,-4.079,-4.079,-4.079,-4.079,-4.0796,-4.0796,-4.0849,-4.0917,-4.098,-4.1045,-4.1085,-4.111,-4.111,-4.111,-4.111,-4.111,-4.1085,-4.1078,-4.0971,-4.0878,-4.0869,-4.0773,-4.0694,-4.0694,-4.0694,-4.0681,-1.3309,-1.0186,-0.689,-0.53,-0.2652,0.0,0.1947,0.4579,0.7024,0.8797,1.1059,1.3626,1.6627,1.7649,1.8399,1.9529,2.0284,2.0625,2.0449,2.1722,2.2626,2.2616,2.3176,2.3152,2.1901,2.2402,2.2211,2.0701,2.0565,2.0472,2.039,1.8294,1.1706,-0.0155,-0.73,-1.6768,-2.9018,-3.2826,-3.6116,-3.8926,-3.9562,-3.9906,-3.9947,-3.9924,-3.9889,-3.9889,-3.9889,-3.9911,-3.9954,-4.0057,-4.0137,-4.0157,-4.0253,-4.031,-4.031,-4.031,-4.031,-4.031,-4.031,-4.0309,-4.0362,-4.0379,-4.0447,-4.0511,-4.0508,-4.0564,-4.0615,-4.0681,-4.0655,-4.0615,-4.0681,-4.0588,-4.0504,-4.0558,-4.0558,-4.0554,-4.0631,-4.0626,-4.0635,-4.0746,-4.0778,-4.079,-4.079,-4.079,-4.079,-4.079,-4.079,-4.0803,-4.08,-4.0812,-4.0815,-4.0849,-4.0917,-4.0971,-4.0996,-4.1071,-4.111,-4.111,-4.111,-4.111,-4.111,-4.111,-4.111,-4.111,-4.1038,-4.1003,-4.1003,-4.0943,-4.0926,-4.0926,-4.0926,-4.0878,-1.4892,-1.2307,-0.9819,-0.9065,-0.653,-0.3632,-0.1593,0.0619,0.2918,0.5484,0.7668,1.0333,1.4047,1.6277,1.7908,1.9045,2.0284,2.0936,2.0372,2.2583,2.4118,2.353,2.4487,2.479,2.3618,2.4589,2.4704,2.3231,2.3261,2.4633,2.7669,2.534,1.7984,0.5109,-0.2165,-1.3283,-2.8772,-3.3037,-3.6726,-3.9918,-3.9995,-4.0059,-4.0056,-3.9987,-3.9975,-4.0015,-3.9975,-3.9998,-4.0059,-4.0158,-4.0215,-4.0253,-4.0327,-4.0328,-4.031,-4.031,-4.031,-4.031,-4.0291,-4.0327,-4.0379,-4.0415,-4.0463,-4.0492,-4.0489,-4.0579,-4.0655,-4.0711,-4.0699,-4.0706,-4.0723,-4.0636,-4.0564,-4.0588,-4.0603,-4.0617,-4.0687,-4.0668,-4.0681,-4.079,-4.081,-4.0829,-4.0829,-4.0829,-4.0829,-4.0829,-4.081,-4.0796,-4.0804,-4.0796,-4.0828,-4.0878,-4.0971,-4.1015,-4.103,-4.1071,-4.111,-4.111,-4.111,-4.111,-4.111,-4.111,-4.111,-4.111,-4.111,-4.111,-4.111,-4.111,-4.111,-4.111,-4.111,-4.1045,-1.653,-1.6009,-1.5165,-1.2391,-1.0223,-0.8311,-0.644,-0.3181,-0.0177,0.0887,0.3268,0.6072,0.8953,1.3323,1.7009,1.87,1.9204,2.0294,2.2691,2.2178,2.3007,2.6684,2.6671,2.662,2.7157,2.9228,2.9242,2.6126,2.9503,3.2191,3.329,2.7979,1.7545,0.1398,-0.4495,-1.5574,-3.2634,-3.724,-3.9451,-3.9441,-3.996,-4.0183,-4.0195,-4.0117,-4.0196,-4.0368,-4.0177,-4.012,-4.0211,-4.0399,-4.0434,-4.0389,-4.0457,-4.0413,-4.031,-4.031,-4.031,-4.0291,-4.0308,-4.0307,-4.0325,-4.0449,-4.0502,-4.0499,-4.0508,-4.0504,-4.0545,-4.074,-4.0749,-4.0711,-4.0771,-4.074,-4.0674,-4.0598,-4.0598,-4.0621,-4.0687,-4.0746,-4.079,-4.079,-4.0848,-4.09,-4.09,-4.09,-4.09,-4.09,-4.0829,-4.079,-4.0803,-4.0792,-4.0828,-4.0878,-4.0971,-4.103,-4.1085,-4.111,-4.111,-4.111,-4.111,-4.111,-4.111,-4.111,-4.111,-4.111,-4.111,-4.111,-4.111,-4.111,-4.111,-4.111,-4.111,-4.1104,-1.8204,-1.7276,-1.6016,-1.5,-1.2859,-1.0554,-0.8578,-0.624,-0.3796,-0.1064,0.0795,0.2816,0.5722,1.0783,1.5143,1.6928,1.9487,2.14,2.1996,2.391,2.5394,2.5665,2.7131,2.8679,3.0263,3.1132,3.1351,3.0763,3.2875,3.4607,3.563,3.4357,2.7657,1.4685,0.5327,-1.0376,-3.3132,-3.6183,-3.8365,-3.9856,-4.0002,-4.0077,-4.0079,-4.0008,-4.0017,-4.0076,-4.0232,-4.0332,-4.0399,-4.0462,-4.054,-4.0588,-4.0534,-4.0476,-4.043,-4.0328,-4.031,-4.0291,-4.0308,-4.0325,-4.0379,-4.0466,-4.0499,-4.0492,-4.0489,-4.0564,-4.0642,-4.0723,-4.0749,-4.077,-4.0738,-4.0723,-4.0694,-4.0607,-4.0673,-4.0726,-4.0759,-4.079,-4.079,-4.079,-4.0848,-4.09,-4.0829,-4.0865,-4.0897,-4.0834,-4.081,-4.0827,-4.0867,-4.0868,-4.0907,-4.1023,-4.1045,-4.1078,-4.111,-4.111,-4.111,-4.111,-4.111,-4.111,-4.111,-4.111,-4.111,-4.111,-4.111,-4.111,-4.111,-4.111,-4.111,-4.111,-4.111,-4.111,-1.9913,-1.8991,-1.7743,-1.7565,-1.5792,-1.3445,-1.1404,-0.9542,-0.7389,-0.4408,-0.2736,-0.0882,0.176,0.6592,1.1126,1.4289,1.8135,2.0968,2.148,2.391,2.573,2.6129,2.849,3.0784,3.2579,3.3182,3.3656,3.418,3.5581,3.682,3.7635,3.8245,3.3488,2.2351,0.6806,-0.9916,-2.7732,-3.355,-3.753,-3.9805,-3.9681,-3.9757,-3.9981,-3.9735,-3.9788,-4.0076,-4.0302,-4.0427,-4.0521,-4.0617,-4.0699,-4.0742,-4.0615,-4.0549,-4.0473,-4.0345,-4.031,-4.0291,-4.0308,-4.0342,-4.0415,-4.0485,-4.0495,-4.0489,-4.0489,-4.0564,-4.0642,-4.0681,-4.0734,-4.0759,-4.0718,-4.0681,-4.0655,-4.0635,-4.0713,-4.079,-4.079,-4.079,-4.079,-4.079,-4.0848,-4.0892,-4.0834,-4.0858,-4.0877,-4.0834,-4.0815,-4.0812,-4.0849,-4.0907,-4.0971,-4.1064,-4.1085,-4.111,-4.111,-4.111,-4.111,-4.111,-4.111,-4.111,-4.111,-4.111,-4.111,-4.111,-4.111,-4.111,-4.111,-4.111,-4.111,-4.111,-4.111,-4.111,0.0,0.0,0.0,-2.0304,-1.8928,-1.7243,-1.5306,-1.309,-1.1027,-0.9656,-0.7508,-0.5227,-0.2995,0.061,0.5023,1.0609,1.4979,1.8611,2.1271,2.204,2.3929,2.8485,3.1023,3.2933,3.4279,3.5538,3.6254,3.6155,3.7875,3.9118,3.9623,3.9235,3.3832,2.2527,-0.0989,-1.4516,-1.6781,-2.9719,-3.7207,-3.9141,-3.8918,-3.9183,-3.9883,-3.9314,-3.9524,-4.033,-4.0341,-4.0396,-4.0505,-4.0849,-4.0943,-4.0869,-4.0742,-4.0602,-4.0473,-4.0345,-4.031,-4.0291,-4.0308,-4.0362,-4.0415,-4.0485,-4.0495,-4.0489,-4.0489,-4.0489,-4.0534,-4.0655,-4.0694,-4.0694,-4.0694,-4.0642,-4.0621,-4.0687,-4.0746,-4.079,-4.079,-4.079,-4.079,-4.079,-4.0848,-4.0909,-4.0896,-4.0906,-4.09,-4.09,-4.0851,-4.0807,-4.0787,-4.0917,-4.0996,-4.0996,-4.1071,-4.111,-4.111,-4.111,-4.111,-4.111,-4.111,-4.111,-4.111,-4.111,-4.111,-4.111,-4.111,-4.111,-4.111,-4.111,-4.111,-4.111,-4.111,-4.111,-2.1766,0.0,0.0,0.0,0.0,0.0,-1.881,-1.7547,-1.5809,-1.285,-1.1685,-1.0324,-0.709,-0.4255,-0.1465,0.1294,0.9746,1.6669,1.8554,2.2739,2.729,3.1762,3.3924,3.5582,3.693,3.6787,3.7237,3.8784,3.9199,3.9779,4.0635,3.9643,3.361,2.1646,0.7412,-0.5531,-1.6987,-2.6806,-3.3731,-3.7745,-3.6931,-3.6859,-3.7546,-3.7981,-3.846,-3.8979,-3.9164,-3.9551,-4.0098,-4.053,-4.0718,-4.0742,-4.0602,-4.0534,-4.0473,-4.0345,-4.031,-4.0308,-4.0307,-4.0379,-4.0485,-4.0502,-4.0495,-4.0489,-4.0489,-4.0489,-4.0504,-4.0549,-4.0635,-4.0694,-4.0694,-4.0642,-4.0588,-4.0621,-4.0713,-4.079,-4.079,-4.079,-4.079,-4.079,-4.0848,-4.0892,-4.0843,-4.0866,-4.0868,-4.0829,-4.0812,-4.0818,-4.0859,-4.0943,-4.1023,-4.1071,-4.1085,-4.111,-4.111,-4.111,-4.111,-4.111,-4.111,-4.111,-4.111,-4.111,-4.111,-4.111,-4.111,-4.111,-4.111,-4.111,-4.111,-4.111,-4.111,-4.111,-2.2563,-2.2872,-2.3106,-2.339,0.0,0.0,-2.0515,-1.9608,-1.8311,-1.5731,-1.466,-1.3566,-1.1382,-0.9155,-0.7218,-0.5496,0.1164,0.7732,1.2531,1.7178,2.3511,3.2444,3.5102,3.676,3.821,3.7997,3.8507,4.0243,4.0234,4.0285,4.0578,3.9624,3.5079,2.6392,1.4074,0.2356,-0.8596,-2.1277,-2.9177,-3.2315,-3.3818,-3.4668,-3.5005,-3.6176,-3.722,-3.8081,-3.8496,-3.9051,-3.9671,-3.9927,-4.031,-4.0681,-4.0564,-4.0489,-4.0473,-4.0345,-4.031,-4.029,-4.029,-4.0381,-4.0449,-4.0449,-4.0479,-4.0489,-4.0489,-4.0489,-4.0489,-4.0489,-4.0564,-4.0615,-4.0648,-4.0635,-4.0621,-4.0654,-4.0713,-4.079,-4.079,-4.079,-4.079,-4.079,-4.0829,-4.0848,-4.081,-4.0829,-4.0848,-4.081,-4.0815,-4.0859,-4.0888,-4.0988,-4.1064,-4.1104,-4.111,-4.111,-4.111,-4.111,-4.111,-4.111,-4.111,-4.111,-4.111,-4.111,-4.111,-4.111,-4.111,-4.111,-4.111,-4.111,-4.111,-4.111,-4.111,-4.111,-2.3672,-2.3683,-2.3463,-2.4181,-2.3891,0.0,-2.1597,-2.0765,-1.9947,-1.8585,-1.7274,-1.6257,-1.5797,-1.437,-1.2681,-1.115,-0.9283,-0.4861,0.4289,0.7765,1.4459,2.8269,3.1593,3.3825,3.6593,3.8338,3.9727,4.0692,4.0781,4.0497,3.9818,3.9028,3.6945,3.3402,1.8841,0.8549,0.3243,-1.4405,-2.4014,-2.556,-3.0205,-3.2522,-3.2639,-3.4275,-3.5821,-3.7324,-3.7834,-3.8449,-3.9017,-3.9043,-3.9646,-4.0549,-4.0434,-4.0389,-4.0372,-4.0253,-4.0196,-4.0196,-4.0196,-4.0272,-4.0307,-4.0326,-4.0377,-4.0422,-4.0457,-4.0473,-4.0473,-4.0489,-4.0489,-4.0523,-4.0573,-4.0598,-4.0621,-4.0668,-4.0746,-4.079,-4.079,-4.079,-4.079,-4.079,-4.079,-4.079,-4.079,-4.079,-4.079,-4.079,-4.0856,-4.0907,-4.0907,-4.1023,-4.111,-4.111,-4.111,-4.111,-4.111,-4.111,-4.111,-4.111,-4.111,-4.111,-4.111,-4.111,-4.111,-4.111,-4.111,-4.111,-4.111,-4.111,-4.111,-4.111,-4.111,-4.1091,-2.3891,-2.4492,-2.5063,-2.5869,-2.6008,0.0,-2.6264,-2.5909,-2.5014,-2.2782,-2.2867,-2.2688,-2.0846,-2.0386,-1.993,-1.9115,-1.7342,-1.2843,-0.3422,0.0148,0.3346,0.7459,0.9536,1.4499,2.4378,3.3902,3.9611,3.999,4.0067,3.9784,3.9041,3.7064,3.4901,3.2689,1.9782,0.9761,0.3245,-0.962,-1.9306,-2.5595,-2.7908,-3.0017,-3.1998,-3.3173,-3.4234,-3.5301,-3.5453,-3.618,-3.7273,-3.7343,-3.8313,-3.9728,-3.9702,-3.9702,-3.9679,-3.967,-3.9675,-3.966,-3.9651,-3.9743,-3.9838,-3.9832,-3.9878,-3.9983,-4.0195,-4.0269,-4.0286,-4.0457,-4.0489,-4.0523,-4.0573,-4.0598,-4.0621,-4.0668,-4.0746,-4.079,-4.079,-4.079,-4.079,-4.079,-4.079,-4.079,-4.079,-4.079,-4.079,-4.079,-4.0856,-4.0907,-4.0907,-4.1023,-4.111,-4.111,-4.111,-4.111,-4.111,-4.111,-4.111,-4.111,-4.111,-4.111,-4.111,-4.111,-4.111,-4.111,-4.111,-4.111,-4.111,-4.111,-4.111,-4.111,-4.111,-4.1097,-2.4564,-2.5487,-2.6183,-2.665,-2.7056,0.0,0.0,-2.6419,-2.5921,-2.4534,-2.4723,-2.5086,-2.4986,-2.5074,-2.5019,-2.4627,-2.3329,-2.1034,-1.6875,-1.1748,-0.7007,-0.3279,-0.2849,0.1571,1.2776,2.2959,3.1898,3.9204,3.9822,3.9536,3.8784,3.6474,3.3445,2.9578,2.0511,1.2143,0.4787,-0.6301,-1.3961,-1.8136,-2.3572,-2.6738,-2.7908,-3.0134,-3.1982,-3.3561,-3.4137,-3.5082,-3.626,-3.6549,-3.7398,-3.8517,-3.8785,-3.8897,-3.8897,-3.8897,-3.8887,-3.8941,-3.9122,-3.9296,-3.9425,-3.9632,-3.9747,-3.9819,-3.9963,-4.0081,-4.0251,-4.0441,-4.0523,-4.0554,-4.0583,-4.0626,-4.0668,-4.0733,-4.0778,-4.079,-4.079,-4.079,-4.079,-4.079,-4.079,-4.079,-4.079,-4.079,-4.0803,-4.08,-4.0858,-4.0917,-4.0963,-4.1038,-4.111,-4.111,-4.111,-4.111,-4.111,-4.111,-4.111,-4.111,-4.111,-4.111,-4.111,-4.111,-4.111,-4.111,-4.111,-4.111,-4.111,-4.111,-4.111,-4.111,-4.111,-4.1097,-2.5358,-2.6321,-2.6989,-2.7258,-2.7789,-2.7944,0.0,0.0,0.0,-2.609,-2.6479,-2.7324,-2.899,-2.9073,-2.8898,-2.8661,-2.8015,-2.7993,-2.9116,-2.3777,-1.7839,-1.2529,-1.3105,-0.9822,0.0695,1.019,2.1489,3.5461,3.6407,3.6661,3.7456,3.5267,3.1397,2.5652,2.0669,1.4194,0.6205,-0.3215,-0.8941,-1.0969,-1.9526,-2.3821,-2.4155,-2.7157,-2.9791,-3.1989,-3.2861,-3.399,-3.5243,-3.5634,-3.6284,-3.7155,-3.7848,-3.8154,-3.8154,-3.8154,-3.8154,-3.8217,-3.8623,-3.8841,-3.9005,-3.9421,-3.9656,-3.9731,-3.9731,-3.9922,-4.0177,-4.0372,-4.0492,-4.0523,-4.0593,-4.0635,-4.07,-4.079,-4.079,-4.079,-4.079,-4.079,-4.079,-4.079,-4.079,-4.0803,-4.0796,-4.0796,-4.08,-4.0818,-4.0888,-4.0935,-4.0988,-4.1064,-4.111,-4.111,-4.111,-4.111,-4.111,-4.111,-4.111,-4.111,-4.111,-4.111,-4.111,-4.111,-4.111,-4.111,-4.111,-4.1091,-4.1097,-4.1097,-4.1091,-4.111,-4.1091,-4.1097,-2.5857,-2.6718,-2.7258,-2.8648,-2.9107,-2.9282,-2.9662,0.0,-2.9907,-2.9631,0.0,-3.3154,-3.3391,0.0,0.0,-3.1213,-3.1308,-3.1736,-3.2611,-3.1934,-3.0435,-2.808,-2.7754,-2.3682,-1.331,-0.0736,1.1829,2.4069,2.428,2.6558,3.2761,3.0938,2.7332,2.2072,1.9497,1.4237,0.6043,0.0668,-0.5485,-1.2419,-1.8455,-2.2472,-2.4749,-2.6467,-2.8352,-3.0288,-3.0393,-3.1554,-3.3383,-3.3435,-3.4268,-3.5582,-3.7044,-3.7596,-3.7596,-3.7596,-3.7596,-3.7667,-3.8111,-3.8323,-3.848,-3.8942,-3.9272,-3.9532,-3.9532,-3.9683,-3.9901,-4.0158,-4.0233,-4.0304,-4.0545,-4.0621,-4.0635,-4.0759,-4.079,-4.079,-4.079,-4.079,-4.079,-4.079,-4.079,-4.0796,-4.0804,-4.0796,-4.0818,-4.0869,-4.0963,-4.0988,-4.0996,-4.1064,-4.111,-4.111,-4.111,-4.111,-4.111,-4.111,-4.111,-4.111,-4.111,-4.111,-4.111,-4.111,-4.111,-4.111,-4.111,-4.1097,-4.1095,-4.1095,-4.1103,-4.111,-4.1103,-4.11,-2.6283,-2.6989,-2.7591,-2.9093,-2.9498,-2.9623,-3.0312,-3.0551,-3.0571,-3.0421,0.0,0.0,0.0,0.0,0.0,0.0,-3.3278,-3.3612,-3.5077,-3.4501,-3.3799,-3.3333,-3.3984,-2.9944,-1.8389,-1.0267,-0.0841,1.0957,1.3198,1.5744,1.9728,1.9876,1.836,1.5107,1.3121,0.9007,0.2705,-0.1279,-0.6033,-1.1433,-1.6428,-2.033,-2.3262,-2.4614,-2.6688,-2.9164,-2.94,-3.0557,-3.2198,-3.2447,-3.3399,-3.4733,-3.5385,-3.6002,-3.6522,-3.6522,-3.6661,-3.69,-3.7614,-3.7893,-3.8059,-3.8807,-3.9156,-3.9298,-3.9433,-3.9556,-3.966,-3.9901,-4.0002,-4.0101,-4.0351,-4.045,-4.0549,-4.0746,-4.079,-4.079,-4.079,-4.079,-4.079,-4.079,-4.079,-4.0796,-4.0796,-4.0807,-4.0839,-4.0935,-4.098,-4.1003,-4.1045,-4.1078,-4.111,-4.111,-4.111,-4.111,-4.111,-4.111,-4.111,-4.111,-4.111,-4.111,-4.111,-4.111,-4.1097,-4.1103,-4.1103,-4.1095,-4.1106,-4.1058,-4.1055,-4.1095,-4.1106,-4.1085,-2.6773,-2.7458,-2.8117,-2.9546,-2.987,-3.0007,-3.0507,-3.0615,-3.0602,-3.0593,-3.2461,0.0,0.0,0.0,-3.4301,-3.4808,0.0,-3.4781,-3.6128,-3.5753,-3.5565,-3.62,-3.7048,-3.3875,-2.4368,-2.0964,-1.4361,-0.2324,0.0652,0.3728,0.7875,0.9444,0.9458,0.7692,0.6607,0.3923,-0.0352,-0.3635,-0.709,-1.061,-1.524,-1.8725,-2.1281,-2.2963,-2.5155,-2.7604,-2.8387,-2.9591,-3.1113,-3.1671,-3.2701,-3.3989,-3.3989,-3.4607,-3.5498,-3.5739,-3.5941,-3.6284,-3.7228,-3.7755,-3.8111,-3.8807,-3.9045,-3.9156,-3.9324,-3.9401,-3.9433,-3.966,-3.9772,-3.992,-4.0211,-4.037,-4.0489,-4.0733,-4.079,-4.079,-4.079,-4.079,-4.079,-4.079,-4.079,-4.0796,-4.0796,-4.0818,-4.0859,-4.098,-4.1023,-4.1038,-4.1085,-4.111,-4.111,-4.111,-4.111,-4.111,-4.111,-4.111,-4.111,-4.111,-4.111,-4.111,-4.111,-4.111,-4.1097,-4.1109,-4.1109,-4.1086,-4.1074,-4.1021,-4.1023,-4.1101,-4.1069,-4.106,-2.7378,-2.8247,-2.8826,-3.0251,-3.0568,-3.0568,-3.0568,-3.0602,-3.0582,-3.0603,-3.2462,-3.411,-3.4115,-3.4101,-3.4267,-3.4828,-3.5278,0.0,0.0,-3.6526,-3.7683,-3.8412,-3.7857,-3.6552,-3.4413,-3.3858,-2.8281,-1.536,-1.4433,-0.9939,0.0387,0.2018,0.1959,0.0497,0.1348,0.06,-0.2102,-0.4844,-0.7714,-1.0666,-1.5457,-1.8186,-1.9085,-2.1834,-2.3879,-2.5356,-2.6909,-2.8451,-3.0033,-3.0763,-3.1916,-3.3235,-3.3235,-3.3834,-3.4835,-3.556,-3.5827,-3.5985,-3.7017,-3.8016,-3.8773,-3.8822,-3.895,-3.9101,-3.9129,-3.9129,-3.9183,-3.9433,-3.9604,-3.981,-4.0193,-4.0386,-4.0554,-4.0746,-4.079,-4.079,-4.079,-4.079,-4.079,-4.079,-4.079,-4.0796,-4.0796,-4.0849,-4.0926,-4.0988,-4.1064,-4.111,-4.111,-4.111,-4.111,-4.111,-4.111,-4.111,-4.111,-4.111,-4.111,-4.111,-4.111,-4.111,-4.111,-4.111,-4.111,-4.111,-4.111,-4.1076,-4.1009,-4.1009,-4.1033,-4.1094,-4.103,-4.1033,-2.7082,-2.7351,-2.7617,-2.9484,-2.9572,-2.9425,-3.0404,-3.06,-3.0822,-3.1658,-3.2415,-3.3228,-3.3965,-3.4101,-3.4333,-3.5005,-3.5375,-3.5796,0.0,-3.7399,-3.8382,-3.8934,-3.8339,-3.7489,-3.6584,-3.5912,-3.3119,-2.7238,-2.4405,-2.0515,-1.4968,-1.1242,-0.8673,-0.745,-0.6597,-0.6245,-0.6595,-0.7978,-1.0298,-1.349,-1.5681,-1.8143,-2.0643,-2.2253,-2.3868,-2.5484,-2.7018,-2.8349,-2.9566,-3.0674,-3.1736,-3.2695,-3.3039,-3.363,-3.4349,-3.4866,-3.5224,-3.5571,-3.6631,-3.7685,-3.8541,-3.8743,-3.8851,-3.8921,-3.9073,-3.9101,-3.9129,-3.9192,-3.9324,-3.9537,-3.9926,-4.0137,-4.0334,-4.07,-4.079,-4.079,-4.079,-4.079,-4.079,-4.079,-4.079,-4.0796,-4.0796,-4.0849,-4.0926,-4.0988,-4.1064,-4.111,-4.111,-4.111,-4.111,-4.111,-4.111,-4.111,-4.111,-4.111,-4.111,-4.111,-4.111,-4.111,-4.111,-4.111,-4.1097,-4.1109,-4.1109,-4.11,-4.1062,-4.1016,-4.1033,-4.109,-4.0989,-4.0969,-2.6973,-2.7229,-2.7617,-2.9233,-2.9434,-2.9487,-3.0404,-3.06,-3.0837,-3.1585,-3.2437,-3.3215,-3.3942,-3.4127,-3.425,-3.4739,-3.5252,-3.5909,0.0,-3.7684,-3.8368,-3.8855,-3.872,-3.8358,-3.784,-3.7308,-3.5939,-3.3356,-3.083,-2.7866,-2.4502,-2.0424,-1.6818,-1.3913,-1.2481,-1.1299,-1.0383,-1.1252,-1.2934,-1.5405,-1.6766,-1.8576,-2.0769,-2.1973,-2.3492,-2.5168,-2.6616,-2.805,-2.9359,-3.045,-3.1349,-3.2104,-3.2446,-3.3093,-3.3866,-3.448,-3.5008,-3.5493,-3.6347,-3.725,-3.8065,-3.8415,-3.8652,-3.8803,-3.8931,-3.9045,-3.9101,-3.9101,-3.9253,-3.9519,-3.9825,-4.0081,-4.0332,-4.07,-4.079,-4.079,-4.079,-4.079,-4.079,-4.079,-4.0796,-4.08,-4.0807,-4.0888,-4.0943,-4.0988,-4.1064,-4.111,-4.111,-4.111,-4.111,-4.111,-4.111,-4.111,-4.111,-4.111,-4.111,-4.111,-4.111,-4.111,-4.111,-4.1075,-4.1057,-4.1066,-4.1062,-4.1064,-4.1054,-4.1019,-4.1026,-4.1065,-4.0953,-4.0945]}]]